[[{"header":{"parameterUnit":"m.s-1","parameterCategory":1,"la1":30.6,"la2":28.766,"lo1":-90.7593,"lo2":-88.6598,"dy":0.0162,"dx":0.0183,"nx":116,"ny":114,"refTime":"2023-10-06T06:00:00:Z","depth":0,"parameterNumber":2,"parameterNumberName":"U-component_of_WINDS"},"data":[0.0,0.0,0.0,0.0,0.0,0.0,0.0,0.0,0.0,0.0,0.0,0.0,0.0,0.0,0.0,0.0,0.0,0.0,0.0,0.0,0.0,0.0,0.0,0.0,0.0,0.0,0.0,0.0,0.0,0.0,0.0,0.0,0.0,0.0,0.0,0.0,0.0,0.0,0.0,0.0,0.0,0.0,0.0,0.0,0.0,0.0,0.0,0.0,0.0,0.0,0.0,0.0,0.0,0.0,0.0,0.0,0.0,0.0,0.0,0.0,0.0,0.0,0.0,0.0,0.0,0.0,0.0,0.0,0.0,0.0,0.0,0.0,0.0,0.0,0.0,0.0,0.0,0.0,0.0,0.0,0.0,0.0,0.0,0.0,0.0,0.0,0.0,0.0,0.0,0.0,0.0,0.0,0.0,0.0,0.0,0.0,0.0,0.0,0.0,0.0,0.0,0.0,0.0,0.0,0.0,0.0,0.0,0.0,0.0,0.0,0.0,0.0,0.0,0.0,0.0,0.0,0.0,0.0,0.0,0.0,0.0,0.0,0.0,0.0,0.0,0.0,0.0,0.0,0.0,0.0,0.0,0.0,0.0,0.0,0.0,0.0,0.0,0.0,0.0,0.0,0.0,0.0,0.0,0.0,0.0,0.0,0.0,0.0,0.0,0.0,0.0,0.0,0.0,0.0,0.0,0.0,0.0,0.0,0.0,0.0,0.0,0.0,0.0,0.0,0.0,0.0,0.0,0.0,0.0,0.0,0.0,0.0,0.0,0.0,0.0,0.0,0.0,0.0,0.0,0.0,0.0,0.0,0.0,0.0,0.0,0.0,0.0,0.0,0.0,0.0,0.0,0.0,0.0,0.0,0.0,0.0,0.0,0.0,0.0,0.0,0.0,0.0,0.0,0.0,0.0,0.0,0.0,0.0,0.0,0.0,0.0,0.0,0.0,0.0,0.0,0.0,0.0,0.0,0.0,0.0,0.0,0.0,0.0,0.0,0.0,0.0,0.0,0.0,0.0,0.0,0.0,0.0,0.0,0.0,0.0,0.0,0.0,0.0,0.0,0.0,0.0,0.0,0.0,0.0,0.0,0.0,0.0,0.0,0.0,0.0,0.0,0.0,0.0,0.0,0.0,0.0,0.0,0.0,0.0,0.0,0.0,0.0,0.0,0.0,0.0,0.0,0.0,0.0,0.0,0.0,0.0,0.0,0.0,0.0,0.0,0.0,0.0,0.0,0.0,0.0,0.0,0.0,0.0,0.0,0.0,0.0,0.0,0.0,0.0,0.0,0.0,0.0,0.0,0.0,0.0,0.0,0.0,0.0,0.0,0.0,0.0,0.0,0.0,0.0,0.0,0.0,0.0,0.0,0.0,0.0,0.0,0.0,0.0,0.0,0.0,0.0,0.0,0.0,0.0,0.0,0.0,0.0,0.0,0.0,0.0,0.0,0.0,0.0,0.0,0.0,0.0,0.0,0.0,0.0,0.0,0.0,0.0,0.0,0.0,0.0,0.0,0.0,0.0,0.0,0.0,0.0,0.0,0.0,0.0,0.0,0.0,0.0,0.0,0.0,0.0,0.0,0.0,0.0,0.0,0.0,0.0,0.0,0.0,0.0,0.0,0.0,0.0,0.0,0.0,0.0,0.0,0.0,0.0,0.0,0.0,0.0,0.0,0.0,0.0,0.0,0.0,0.0,0.0,0.0,0.0,0.0,0.0,0.0,0.0,0.0,0.0,0.0,0.0,0.0,0.0,0.0,0.0,0.0,0.0,0.0,0.0,0.0,0.0,0.0,0.0,0.0,0.0,0.0,0.0,0.0,0.0,0.0,0.0,0.0,0.0,0.0,0.0,0.0,0.0,0.0,0.0,0.0,0.0,0.0,0.0,0.0,0.0,0.0,0.0,0.0,0.0,0.0,0.0,0.0,0.0,0.0,0.0,0.0,0.0,0.0,0.0,0.0,0.0,0.0,0.0,0.0,0.0,0.0,0.0,0.0,0.0,0.0,0.0,0.0,0.0,0.0,0.0,0.0,0.0,0.0,0.0,0.0,0.0,0.0,0.0,0.0,0.0,0.0,0.0,0.0,0.0,0.0,0.0,0.0,0.0,0.0,0.0,0.0,0.0,0.0,0.0,0.0,0.0,0.0,0.0,0.0,0.0,0.0,0.0,0.0,0.0,0.0,0.0,0.0,0.0,0.0,0.0,0.0,0.0,0.0,0.0,0.0,0.0,0.0,0.0,0.0,0.0,0.0,0.0,0.0,0.0,0.0,0.0,0.0,0.0,0.0,0.0,0.0,0.0,0.0,0.0,0.0,0.0,0.0,0.0,0.0,0.0,0.0,0.0,0.0,0.0,0.0,0.0,0.0,0.0,0.0,0.0,0.0,0.0,0.0,0.0,0.0,0.0,0.0,0.0,0.0,0.0,0.0,0.0,0.0,0.0,0.0,0.0,0.0,0.0,0.0,0.0,0.0,0.0,0.0,0.0,0.0,0.0,0.0,0.0,0.0,0.0,0.0,0.0,0.0,0.0,0.0,0.0,0.0,0.0,0.0,0.0,0.0,0.0,0.0,0.0,0.0,0.0,0.0,0.0,0.0,0.0,0.0,0.0,0.0,0.0,0.0,0.0,0.0,0.0,0.0,0.0,0.0,0.0,0.0,0.0,0.0,0.0,0.0,0.0,0.0,0.0,0.0,0.0,0.0,0.0,0.0,0.0,0.0,0.0,0.0,0.0,0.0,0.0,0.0,0.0,0.0,0.0,0.0,0.0,0.0,0.0,0.0,0.0,0.0,0.0,0.0,0.0,0.0,0.0,0.0,0.0,0.0,0.0,0.0,0.0,0.0,0.0,0.0,0.0,0.0,0.0,0.0,0.0,0.0,0.0,0.0,0.0,0.0,0.0,0.0,0.0,0.0,0.0,0.0,0.0,0.0,0.0,0.0,0.0,0.0,0.0,0.0,0.0,0.0,0.0,0.0,0.0,0.0,0.0,0.0,0.0,0.0,0.0,0.0,0.0,0.0,0.0,0.0,0.0,0.0,0.0,0.0,0.0,0.0,0.0,0.0,0.0,0.0,0.0,0.0,0.0,0.0,0.0,0.0,0.0,0.0,0.0,0.0,0.0,0.0,0.0,0.0,0.0,0.0,0.0,0.0,0.0,0.0,0.0,0.0,0.0,0.0,0.0,0.0,0.0,0.0,0.0,0.0,0.0,0.0,0.0,0.0,0.0,0.0,0.0,0.0,0.0,0.0,0.0,0.0,0.0,0.0,0.0,0.0,0.0,0.0,0.0,0.0,0.0,0.0,0.0,0.0,0.0,0.0,0.0,0.0,0.0,0.0,0.0,0.0,0.0,0.0,0.0,0.0,0.0,0.0,0.0,0.0,0.0,0.0,0.0,0.0,0.0,0.0,0.0,0.0,0.0,0.0,0.0,0.0,0.0,0.0,0.0,0.0,0.0,0.0,0.0,0.0,0.0,0.0,0.0,0.0,0.0,0.0,0.0,0.0,0.0,0.0,0.0,0.0,0.0,0.0,0.0,0.0,0.0,0.0,0.0,0.0,0.0,0.0,0.0,0.0,0.0,0.0,0.0,0.0,0.0,0.0,0.0,0.0,0.0,0.0,0.0,0.0,0.0,0.0,0.0,0.0,0.0,0.0,0.0,0.0,0.0,0.0,0.0,0.0,0.0,0.0,0.0,0.0,0.0,0.0,0.0,0.0,0.0,0.0,0.0,0.0,0.0,0.0,0.0,0.0,0.0,0.0,0.0,0.0,0.0,0.0,0.0,0.0,0.0,0.0,0.0,0.0,0.0,0.0,0.0,0.0,0.0,0.0,0.0,0.0,0.0,0.0,0.0,0.0,0.0,0.0,0.0,0.0,0.0,0.0,0.0,0.0,0.0,0.0,0.0,0.0,0.0,0.0,0.0,0.0,0.0,0.0,0.0,0.0,0.0,0.0,0.0,0.0,0.0,0.0,0.0,0.0,0.0,0.0,0.0,0.0,0.0,0.0,0.0,0.0,0.0,0.0,0.0,0.0,0.0,0.0,0.0,0.0,0.0,0.0,0.0,0.0,0.0,0.0,0.0,0.0,0.0,0.0,0.0,0.0,0.0,0.0,0.0,0.0,0.0,0.0,0.0,0.0,0.0,0.0,0.0,0.0,0.0,0.0,0.0,0.0,0.0,0.0,0.0,0.0,0.0,0.0,0.0,0.0,0.0,0.0,0.0,0.0,0.0,0.0,0.0,0.0,0.0,0.0,0.0,0.0,0.0,0.0,0.0,0.0,0.0,0.0,0.0,0.0,0.0,0.0,0.0,0.0,0.0,0.0,0.0,0.0,0.0,0.0,0.0,0.0,0.0,0.0,0.0,0.0,0.0,0.0,0.0,0.0,0.0,0.0,0.0,0.0,0.0,0.0,0.0,0.0,0.0,0.0,0.0,0.0,0.0,0.0,0.0,0.0,0.0,0.0,0.0,0.0,0.0,0.0,0.0,0.0,0.0,0.0,0.0,0.0,0.0,0.0,0.0,0.0,0.0,0.0,0.0,0.0,0.0,0.0,0.0,0.0,0.0,0.0,0.0,0.0,0.0,0.0,0.0,0.0,0.0,0.0,0.0,0.0,0.0,0.0,0.0,0.0,0.0,0.0,0.0,0.0,0.0,0.0,0.0,0.0,0.0,0.0,0.0,0.0,0.0,0.0,0.0,0.0,0.0,0.0,0.0,0.0,0.0,0.0,0.0,0.0,0.0,0.0,0.0,0.0,0.0,0.0,0.0,0.0,0.0,0.0,0.0,0.0,0.0,0.0,0.0,0.0,0.0,0.0,0.0,0.0,0.0,0.0,0.0,0.0,0.0,0.0,0.0,0.0,0.0,0.0,0.0,0.0,0.0,0.0,0.0,0.0,0.0,0.0,0.0,0.0,0.0,0.0,0.0,0.0,0.0,0.0,0.0,0.0,0.0,0.0,0.0,0.0,0.0,0.0,0.0,0.0,0.0,0.0,0.0,0.0,0.0,0.0,0.0,0.0,0.0,0.0,0.0,0.0,0.0,0.0,0.0,0.0,0.0,0.0,0.0,0.0,0.0,0.0,0.0,0.0,0.0,0.0,0.0,0.0,0.0,0.0,0.0,0.0,0.0,0.0,0.0,0.0,0.0,0.0,0.0,0.0,0.0,0.0,0.0,0.0,0.0,0.0,0.0,0.0,0.0,0.0,0.0,0.0,0.0,0.0,0.0,0.0,0.0,0.0,0.0,0.0,0.0,0.0,0.0,0.0,0.0,0.0,0.0,0.0,0.0,0.0,0.0,0.0,0.0,0.0,0.0,0.0,0.0,0.0,0.0,0.0,0.0,0.0,0.0,0.0,0.0,0.0,0.0,0.0,0.0,0.0,0.0,0.0,0.0,0.0,0.0,0.0,0.0,0.0,0.0,0.0,0.0,0.0,0.0,0.0,0.0,0.0,0.0,0.0,0.0,0.0,0.0,0.0,0.0,0.0,0.0,0.0,0.0,0.0,0.0,0.0,0.0,0.0,0.0,0.0,0.0,0.0,0.0,0.0,0.0,0.0,0.0,0.0,0.0,0.0,0.0,0.0,0.0,0.0,0.0,0.0,0.0,0.0,0.0,0.0,0.0,0.0,0.0,0.0,0.0,0.0,0.0,0.0,0.0,0.0,0.0,0.0,0.0,0.0,0.0,0.0,0.0,0.0,0.0,0.0,0.0,0.0,0.0,0.0,0.0,0.0,0.0,0.0,0.0,0.0,0.0,0.0,0.0,0.0,0.0,0.0,0.0,0.0,0.0,0.0,0.0,0.0,0.0,0.0,0.0,0.0,0.0,0.0,0.0,0.0,0.0,0.0,0.0,0.0,0.0,0.0,0.0,0.0,0.0,0.0,0.0,0.0,0.0,0.0,0.0,0.0,0.0,0.0,0.0,0.0,0.0,0.0,0.0,0.0,0.0,0.0,0.0,0.0,0.0,0.0,0.0,0.0,0.0,0.0,0.0,0.0,0.0,0.0,0.0,0.0,0.0,0.0,0.0,0.0,0.0,0.0,0.0,0.0,0.0,0.0,0.0,0.0,0.0,0.0,0.0,0.0,0.0,0.0,3.9079,0.0,0.0,0.0,0.0,0.0,0.0,0.0,0.0,0.0,0.0,0.0,0.0,0.0,0.0,0.0,0.0,0.0,0.0,0.0,0.0,0.0,0.0,0.0,0.0,0.0,0.0,0.0,0.0,0.0,0.0,0.0,0.0,0.0,0.0,0.0,0.0,0.0,0.0,2.617,2.617,2.6845,2.81,2.81,2.8602,2.9547,0.0,0.0,0.0,0.0,0.0,0.0,0.0,0.0,0.0,0.0,0.0,0.0,0.0,0.0,0.0,0.0,0.0,0.0,0.0,0.0,0.0,0.0,0.0,0.0,0.0,0.0,0.0,0.0,0.0,0.0,0.0,0.0,0.0,0.0,0.0,0.0,0.0,0.0,0.0,0.0,0.0,0.0,0.0,0.0,0.0,0.0,0.0,0.0,0.0,0.0,0.0,0.0,0.0,0.0,0.0,0.0,0.0,0.0,0.0,0.0,0.0,0.0,0.0,0.0,0.0,0.0,0.0,0.0,0.0,0.0,0.0,4.0405,0.0,0.0,0.0,0.0,0.0,0.0,0.0,0.0,0.0,0.0,0.0,0.0,0.0,0.0,0.0,0.0,0.0,0.0,0.0,0.0,0.0,0.0,0.0,0.0,2.5441,2.4933,2.5571,2.5821,0.0,0.0,0.0,0.0,0.0,0.0,0.0,2.5924,2.6333,2.699,2.7161,2.7975,2.942,2.963,2.9728,2.9771,3.0494,0.0,0.0,0.0,0.0,0.0,0.0,0.0,0.0,0.0,0.0,0.0,0.0,0.0,0.0,0.0,0.0,0.0,0.0,0.0,0.0,0.0,0.0,0.0,0.0,0.0,0.0,0.0,0.0,0.0,0.0,0.0,0.0,0.0,0.0,0.0,0.0,0.0,0.0,0.0,0.0,0.0,0.0,0.0,0.0,0.0,0.0,0.0,0.0,0.0,0.0,0.0,0.0,0.0,0.0,0.0,0.0,0.0,0.0,0.0,0.0,0.0,0.0,0.0,4.3227,4.3719,4.507,4.3645,4.3377,4.4013,4.3347,4.3301,4.362,0.0,0.0,0.0,0.0,0.0,0.0,0.0,0.0,0.0,0.0,0.0,0.0,0.0,0.0,0.0,0.0,0.0,0.0,0.0,0.0,0.0,0.0,2.4504,2.4957,2.5606,2.5879,2.6317,0.0,0.0,0.0,0.0,0.0,0.0,2.7394,2.7531,2.7641,2.7752,2.8565,2.916,2.9492,3.0263,3.0655,3.0722,3.0839,3.1269,3.1875,0.0,0.0,0.0,0.0,0.0,0.0,0.0,0.0,0.0,0.0,0.0,0.0,0.0,0.0,0.0,0.0,0.0,0.0,0.0,0.0,0.0,0.0,0.0,0.0,0.0,0.0,0.0,0.0,0.0,0.0,0.0,0.0,0.0,0.0,0.0,0.0,0.0,0.0,0.0,0.0,0.0,3.4197,3.4944,0.0,0.0,0.0,0.0,0.0,0.0,0.0,0.0,0.0,0.0,0.0,0.0,0.0,4.3005,4.3005,4.4569,4.5103,4.4659,4.5282,4.5745,4.6014,4.5781,4.5752,4.5851,4.5757,0.0,4.3598,4.3496,0.0,0.0,0.0,0.0,0.0,0.0,0.0,0.0,0.0,0.0,0.0,0.0,0.0,0.0,0.0,0.0,0.0,0.0,0.0,0.0,0.0,2.5419,2.6272,2.6205,2.7195,2.7811,2.7857,2.7522,0.0,0.0,0.0,2.7708,2.7759,2.7838,2.8129,2.8616,3.0094,3.0598,3.0183,3.0605,3.1072,3.1556,3.1107,3.1091,3.1426,3.1523,0.0,0.0,0.0,0.0,0.0,0.0,0.0,0.0,0.0,0.0,0.0,0.0,0.0,0.0,0.0,0.0,0.0,0.0,0.0,0.0,0.0,0.0,0.0,0.0,0.0,0.0,0.0,0.0,0.0,0.0,0.0,0.0,0.0,0.0,0.0,0.0,0.0,0.0,0.0,3.2822,3.4235,3.3646,3.4128,3.4326,0.0,0.0,0.0,0.0,0.0,0.0,0.0,0.0,0.0,4.3627,4.3619,4.4234,4.5674,4.5966,4.6149,4.6263,4.6193,4.6415,4.6858,4.641,4.6196,4.6201,4.6201,4.5772,4.5036,4.4566,4.4394,4.4296,0.0,0.0,0.0,0.0,4.3728,4.3649,0.0,0.0,0.0,0.0,0.0,0.0,0.0,0.0,0.0,0.0,0.0,0.0,2.4233,2.5903,2.6959,2.6834,2.807,2.863,2.8165,2.7902,0.0,2.779,2.8099,2.8286,2.8338,2.846,2.8847,2.9525,3.0944,3.1326,3.0693,3.0741,3.1125,3.1758,3.1368,3.1321,3.1543,3.1718,3.1522,3.1089,0.0,0.0,0.0,0.0,0.0,0.0,0.0,0.0,0.0,0.0,0.0,0.0,0.0,0.0,0.0,0.0,0.0,0.0,0.0,0.0,0.0,0.0,0.0,0.0,0.0,0.0,0.0,0.0,0.0,0.0,0.0,0.0,0.0,0.0,0.0,0.0,0.0,3.3693,3.4991,3.3699,3.5271,3.6056,0.0,0.0,0.0,0.0,0.0,0.0,4.063,4.131,4.2836,4.5379,4.4876,4.5475,4.7384,4.6819,4.6702,4.708,4.6482,4.6411,4.6762,4.6398,4.6105,4.591,4.6125,4.6222,4.6176,4.5555,4.5311,4.5233,4.459,4.4336,4.4414,4.5078,4.4858,4.4421,0.0,0.0,0.0,0.0,0.0,0.0,0.0,0.0,0.0,0.0,0.0,2.3961,2.4847,2.5056,2.5837,2.7593,2.7834,2.7911,2.8005,2.8793,2.8986,2.8297,2.9242,2.9785,2.9791,3.0056,3.0271,3.0443,3.0588,3.0692,3.0691,3.0693,3.0757,3.0899,3.1699,3.2492,3.3164,3.1612,3.1331,3.187,3.1045,0.0,0.0,0.0,0.0,0.0,0.0,0.0,0.0,0.0,0.0,0.0,0.0,0.0,0.0,0.0,0.0,0.0,0.0,0.0,0.0,0.0,0.0,0.0,0.0,0.0,0.0,0.0,0.0,0.0,0.0,0.0,0.0,0.0,0.0,0.0,0.0,0.0,0.0,3.7996,4.0257,0.0,0.0,0.0,0.0,3.9585,4.0383,4.1604,4.3309,4.3451,4.4643,4.7182,4.7221,4.726,4.7396,4.7357,4.6989,4.6265,4.6226,4.5826,4.5145,4.5945,4.5847,4.5106,4.5945,4.6296,4.63,4.6173,4.6139,4.6141,4.6093,4.6067,4.607,4.6127,4.6069,4.5991,0.0,0.0,0.0,0.0,0.0,0.0,0.0,0.0,2.3085,2.2982,2.3053,2.3212,2.3549,2.4608,2.5543,2.6204,2.7048,2.7574,2.761,2.7775,2.7773,2.7606,2.8034,2.8609,2.9308,3.0554,3.0975,3.0491,3.0569,3.0343,2.9859,2.9916,2.9932,2.9999,3.088,3.2055,3.3351,3.2756,3.2341,3.2023,3.1687,3.1502,0.0,0.0,0.0,0.0,0.0,0.0,0.0,0.0,0.0,0.0,0.0,0.0,0.0,0.0,0.0,0.0,0.0,0.0,0.0,0.0,0.0,0.0,0.0,0.0,0.0,0.0,0.0,0.0,0.0,0.0,0.0,0.0,0.0,0.0,0.0,0.0,0.0,3.9081,4.0827,0.0,4.0366,4.0256,4.075,4.19,4.2776,4.3799,4.5074,4.52,4.5905,4.7423,4.6961,4.6957,4.7523,4.6977,4.6553,4.6249,4.5703,4.5277,4.4992,4.4738,4.4758,4.5012,4.5324,4.5773,4.63,4.6264,4.6267,4.6267,4.6261,4.6264,4.6262,4.6251,4.6225,4.617,0.0,0.0,0.0,0.0,0.0,0.0,0.0,0.0,2.2613,2.2502,2.2504,2.2677,2.305,2.4108,2.4942,2.5365,2.6226,2.6662,2.6468,2.667,2.6859,2.6979,2.7811,2.8502,2.9025,3.0237,3.0458,2.967,2.9427,2.8907,2.812,2.8469,2.8612,2.8651,2.9524,3.0743,3.2148,3.2712,3.2946,3.2901,3.257,3.2396,3.2278,0.0,0.0,0.0,0.0,0.0,0.0,0.0,0.0,0.0,0.0,0.0,0.0,0.0,0.0,0.0,0.0,0.0,0.0,0.0,0.0,0.0,0.0,0.0,0.0,0.0,0.0,0.0,0.0,0.0,0.0,0.0,0.0,0.0,0.0,0.0,4.0797,3.9914,4.184,4.2772,4.1576,4.1991,4.2825,4.4026,4.4647,4.5247,4.5937,4.6044,4.6367,4.6972,4.6495,4.6387,4.6694,4.6123,4.5679,4.5421,4.5132,4.4683,4.4114,4.4133,4.4133,4.4156,4.4738,4.5324,4.587,4.6183,4.6124,4.589,4.6183,4.63,4.63,4.63,4.6075,4.5715,0.0,0.0,0.0,0.0,0.0,0.0,0.0,2.2328,2.2249,2.1927,2.1943,2.2378,2.3418,2.3534,2.4009,2.5188,2.5312,2.5075,2.458,2.5651,2.6372,2.6516,2.8664,2.9599,2.9025,2.9074,2.8743,2.7965,2.7125,2.6313,2.5577,2.6418,2.6819,2.6857,2.7734,2.8652,2.9667,3.1323,3.3002,3.4488,3.3665,3.331,3.3277,0.0,0.0,0.0,0.0,0.0,0.0,0.0,0.0,0.0,0.0,0.0,0.0,0.0,0.0,0.0,0.0,0.0,0.0,0.0,0.0,0.0,0.0,0.0,0.0,0.0,0.0,0.0,0.0,0.0,0.0,0.0,0.0,0.0,3.8054,4.02,4.16,4.0853,4.3659,4.5005,4.3434,4.4684,4.5689,4.5835,4.5852,4.5847,4.585,4.5979,4.6017,4.5959,4.5998,4.5652,4.4871,4.4858,4.4473,4.3704,4.4533,4.4025,4.2454,4.4114,4.3983,4.2527,4.4195,4.4972,4.5109,4.589,4.5734,4.509,4.5968,4.628,4.6261,4.6261,4.567,4.4727,0.0,0.0,0.0,0.0,0.0,0.0,0.0,2.1973,2.1889,2.1713,2.1698,2.1778,2.1908,2.2098,2.2375,2.2673,2.3142,2.3302,2.317,2.3864,2.4487,2.4838,2.6352,2.7143,2.7063,2.7234,2.7248,2.7129,2.5645,2.4833,2.4651,2.4894,2.5005,2.5046,2.5937,2.719,2.8735,2.9823,3.1616,3.3763,3.4098,3.4605,3.5076,0.0,0.0,0.0,0.0,0.0,0.0,0.0,0.0,0.0,0.0,0.0,0.0,0.0,0.0,0.0,0.0,0.0,0.0,0.0,0.0,0.0,0.0,0.0,0.0,0.0,0.0,0.0,0.0,0.0,0.0,0.0,0.0,4.1282,4.0577,4.2285,4.3734,4.4035,4.4397,4.4629,4.4729,4.4075,4.3953,4.4622,4.4758,4.4819,4.4877,4.4979,4.5034,4.5059,4.4563,4.4169,4.3968,4.4007,4.3915,4.3698,4.3303,4.2864,4.2393,4.224,4.2597,4.3327,4.318,4.4192,4.5851,4.4836,4.4641,4.509,4.5968,4.5909,4.5363,4.5363,4.4748,4.3831,0.0,0.0,0.0,0.0,0.0,0.0,0.0,2.1748,2.1645,2.1421,2.1392,2.1357,2.1244,2.1343,2.1526,2.1702,2.2007,2.2281,2.2457,2.3406,2.4073,2.4281,2.5769,2.6393,2.5888,2.6022,2.5784,2.5163,2.3816,2.2992,2.2677,2.3033,2.3227,2.3295,2.4157,2.5344,2.6745,2.7988,2.9782,3.1945,3.347,3.4847,3.5911,3.5742,3.5742,3.5839,3.5752,3.5808,3.5703,3.4393,0.0,0.0,0.0,0.0,0.0,0.0,0.0,0.0,0.0,0.0,0.0,0.0,0.0,0.0,0.0,0.0,0.0,0.0,0.0,0.0,0.0,0.0,0.0,0.0,4.0817,4.2047,4.2427,4.3446,4.4326,4.4748,4.4097,4.379,4.421,4.3408,4.3099,4.3654,4.3816,4.3866,4.3907,4.3975,4.4021,4.4023,4.3656,4.3279,4.2935,4.296,4.2816,4.2479,4.2407,4.2163,4.1819,4.1699,4.2209,0.0,4.2614,4.3469,4.5129,4.4114,4.3782,0.0,0.0,0.0,0.0,0.0,4.387,4.298,0.0,0.0,0.0,0.0,0.0,0.0,0.0,2.1592,2.145,2.1141,2.1086,2.1083,2.1067,2.1083,2.1247,2.1615,2.1672,2.1866,2.2265,2.3638,2.4332,2.4166,2.5871,2.6261,2.4998,2.4954,2.4226,2.2752,2.1944,2.1153,2.04,2.1187,2.16,2.1682,2.245,2.3358,2.4367,2.6002,2.7774,2.9665,3.2012,3.4193,3.6094,3.6973,3.6836,3.6309,3.7031,3.6832,3.6069,3.5149,0.0,0.0,0.0,0.0,0.0,0.0,0.0,0.0,0.0,0.0,0.0,0.0,0.0,0.0,0.0,0.0,0.0,0.0,0.0,0.0,0.0,0.0,0.0,0.0,4.167,4.1889,4.3441,4.3704,4.3749,4.3864,4.3157,4.2699,4.2776,4.2623,4.2603,4.2844,4.2915,4.2931,4.2951,0.0,0.0,0.0,0.0,4.2574,4.1865,4.1959,4.1607,4.0809,4.1801,4.183,4.1027,4.1958,4.238,4.2415,4.2494,4.304,4.3821,4.3626,4.3157,4.2708,4.425,4.4855,4.4754,4.3997,4.309,0.0,0.0,0.0,0.0,0.0,0.0,0.0,0.0,2.1467,2.131,2.1114,2.1086,2.1051,2.0875,2.0987,2.1133,2.1199,2.1495,2.1866,2.2265,2.292,2.3094,2.2656,2.3562,2.3708,2.2899,2.2416,2.2074,2.1847,2.0991,2.0482,2.032,2.0559,2.0656,2.0687,2.0902,2.1875,2.3417,2.4452,2.6308,2.8651,2.9843,3.2617,3.6094,3.6973,3.7617,3.8008,3.748,3.7632,3.7825,3.6202,3.6241,3.6779,3.5724,3.4881,0.0,0.0,0.0,0.0,0.0,0.0,0.0,0.0,0.0,0.0,0.0,0.0,0.0,0.0,0.0,0.0,0.0,0.0,0.0,3.9981,4.1411,4.2458,4.2791,4.2345,4.224,4.2947,4.2278,4.203,4.2737,4.159,4.111,4.189,4.1961,4.1959,4.1978,4.2021,0.0,4.1975,4.1459,4.1103,4.0958,4.1691,4.1648,4.0809,0.0,0.0,4.1033,4.1925,4.2354,4.2435,4.3138,4.3938,4.4641,4.3235,4.2962,4.3489,4.3821,4.3957,4.3938,4.3759,4.2661,4.1234,0.0,0.0,0.0,0.0,0.0,0.0,0.0,2.1311,2.1214,2.0973,2.1038,2.089,2.0379,2.0682,2.0859,2.0571,2.1241,2.1653,2.1585,2.2366,2.268,2.2321,2.2813,2.2682,2.1765,2.1524,2.1426,2.1493,2.0694,2.0502,2.088,2.0525,2.0364,2.0417,2.0896,2.1611,2.2578,2.3865,2.5406,2.7106,2.8418,3.0488,3.3027,3.5176,3.6543,3.7363,3.779,3.8231,3.8394,3.7006,3.7127,3.7692,3.6793,3.6483,3.6123,0.0,0.0,0.0,0.0,0.0,0.0,0.0,0.0,0.0,0.0,0.0,0.0,0.0,0.0,3.5951,0.0,0.0,3.9264,4.0801,4.1165,4.1456,4.1977,4.1336,4.0997,4.1475,4.0788,4.0253,4.0253,3.987,3.9849,4.0362,4.078,4.0816,4.0411,4.0441,4.0422,4.0392,4.0076,4.0104,4.0549,4.1007,4.1253,4.1249,4.1345,4.1645,4.2113,4.2233,4.2792,4.3646,4.3651,4.4139,4.486,4.3534,4.3514,4.4295,4.4295,4.4051,4.3693,4.3693,4.2554,4.1007,0.0,0.0,0.0,0.0,0.0,0.0,0.0,2.1164,2.1099,2.0859,2.081,2.0586,1.9869,2.0145,2.0289,2.0013,2.0889,2.1346,2.1149,2.2136,2.2615,2.2396,2.272,2.242,2.1405,2.1498,2.1577,2.1589,2.1031,2.1082,2.1694,2.1062,2.0812,2.0885,2.1622,2.2177,2.2694,2.4053,2.5238,2.6314,2.7712,2.8808,2.9921,3.2851,3.4609,3.5702,3.727,3.7731,3.7497,3.6898,3.7058,3.74,3.6977,3.7326,3.7443,3.5172,3.4781,0.0,0.0,0.0,0.0,0.0,0.0,0.0,0.0,3.4963,3.5799,3.7166,3.7451,3.7943,3.9437,3.9309,3.9637,4.1558,4.0817,4.0266,4.1074,4.0576,4.0058,3.9986,3.9547,3.8973,3.8266,3.8839,3.9259,3.9331,3.9943,4.002,3.9363,3.9325,3.9325,3.9327,3.9344,3.9687,4.0379,4.0551,4.0933,4.1431,4.1075,4.1525,4.2686,4.2392,4.2934,4.4104,4.3585,4.376,4.4364,4.3994,4.4169,4.4656,4.4832,4.4397,4.366,4.3685,4.2538,4.1,0.0,0.0,0.0,0.0,0.0,0.0,0.0,0.0,2.0859,2.0794,2.0299,1.9917,1.9789,1.9279,1.9215,1.9936,2.0271,2.0868,2.182,2.2529,2.2705,2.2321,2.2761,2.2691,2.2004,2.208,2.2178,2.2288,2.2323,2.239,2.2479,2.246,2.2438,2.2462,2.2664,2.3634,2.5104,2.5356,2.641,2.7934,2.8133,2.8777,2.9736,3.0888,3.2311,3.3827,3.4781,3.4644,3.4069,3.4689,3.445,3.4124,3.5519,3.6004,3.5888,3.4803,3.3518,3.2314,3.1797,3.2268,3.3164,3.4366,3.5356,3.7024,0.0,4.1525,4.1658,4.1848,4.1968,4.1585,3.9989,3.994,4.01,4.0019,4.0134,4.0215,4.0101,4.008,3.9808,3.8969,3.9643,4.0119,4.0024,4.01,4.0157,4.0173,4.0252,4.0252,4.0173,4.0154,4.0174,4.0176,4.021,4.0283,4.0307,4.1146,4.1221,4.055,4.1255,4.1362,4.1013,4.1707,4.183,4.1481,4.2143,4.2494,4.2689,4.415,4.4364,4.3819,4.4598,4.435,4.353,4.3585,4.25,4.1003,0.0,0.0,0.0,0.0,0.0,0.0,0.0,0.0,0.0,0.0,2.081,2.0369,2.0375,2.0097,1.9909,1.9877,2.1238,2.2236,2.25,2.3369,2.3811,2.3649,2.3894,2.3823,2.3333,2.3505,2.3841,2.4391,2.4033,2.4145,2.4635,2.4183,2.406,2.4245,2.4794,2.5525,2.6353,2.6885,2.7839,2.8953,2.8957,2.9497,3.0345,3.0704,3.1594,3.2686,3.3054,3.2947,0.0,3.2992,3.2511,3.2081,3.3757,3.3943,3.3352,3.2435,3.2377,3.2677,3.3128,3.3763,3.4549,3.5675,3.6963,3.8516,4.0671,4.0745,4.0689,4.174,4.1569,4.0936,3.9989,4.0025,4.0075,0.0,3.9913,3.9876,3.9279,3.9207,3.9097,3.8736,3.9045,3.9124,3.865,3.9068,3.9373,3.9374,3.9792,3.9868,3.9393,3.9414,3.9414,3.9353,3.9433,3.9662,4.0059,4.046,4.0729,4.0922,4.0807,4.1165,4.1925,4.1846,4.2022,4.2354,4.2634,4.282,4.2994,4.3761,4.3867,4.3575,4.3945,4.3547,4.2751,4.2821,4.2035,4.0935,0.0,0.0,0.0,0.0,0.0,0.0,0.0,0.0,0.0,0.0,2.1264,2.0793,2.0813,2.0803,2.0688,2.0413,2.2053,2.3258,2.3547,2.4517,2.5215,2.5604,2.5781,2.5753,2.5489,2.5697,2.6107,2.6701,2.607,2.6086,2.67,2.5918,2.5677,2.588,2.6592,2.7131,2.7537,2.848,2.9535,3.0571,3.0812,3.1288,3.1856,3.1858,3.1946,3.204,3.1815,3.1573,3.1352,3.1313,3.0568,2.9913,3.1615,3.1698,3.1099,3.0666,3.1523,3.2802,3.3646,3.452,3.54,3.6239,3.7695,3.909,3.9603,3.941,3.9431,4.052,4.0175,3.9658,3.9545,3.9618,3.97,3.965,3.9771,3.9543,3.8653,3.8516,3.8522,3.8527,3.8486,3.8241,3.7659,3.8256,3.8698,3.8698,3.9248,3.9418,3.9037,3.9083,3.9064,3.9039,3.9083,3.9349,3.9889,3.9889,4.0239,4.0912,4.0326,4.0749,4.203,4.1591,4.1788,4.2537,4.2473,4.2543,4.2701,4.2994,4.3121,4.3121,4.3121,4.2733,4.216,4.1965,4.1479,4.0907,0.0,0.0,0.0,0.0,0.0,0.0,0.0,0.0,0.0,0.0,0.0,0.0,0.0,2.0805,2.1065,2.1789,2.2191,2.3241,2.5092,2.5885,2.6836,2.8135,2.8443,2.8646,2.876,2.8815,2.8913,2.8996,2.8452,2.8199,2.8222,2.7531,2.7233,2.725,2.7535,2.8144,2.9013,3.0139,3.1607,3.3261,3.4107,3.4464,3.4481,3.4481,3.3448,3.1896,3.1126,3.0241,2.9492,2.9557,2.8385,2.7213,2.8974,2.9443,2.955,3.0363,3.1077,3.1821,3.2634,3.4006,3.5384,3.6119,3.7585,3.8803,3.876,3.9385,3.9726,3.895,3.876,3.8706,3.8575,3.8652,3.8896,3.9425,3.9677,3.9414,3.8276,3.8216,3.8254,3.8128,3.8128,3.8109,0.0,3.8445,3.8719,3.8719,3.8738,3.9058,3.9813,3.9873,3.9873,3.9851,3.9873,3.9892,3.9889,3.9889,3.9911,3.9949,3.993,3.9996,4.0196,4.0415,4.0549,4.0602,4.0788,4.0865,4.0942,4.1787,4.2136,4.2136,4.2136,4.2136,4.2,4.1167,4.0868,4.0907,0.0,0.0,0.0,0.0,0.0,0.0,0.0,0.0,0.0,0.0,0.0,0.0,0.0,0.0,0.0,0.0,2.4123,2.5317,2.6184,2.7182,2.8387,2.9751,2.9919,3.035,3.1157,3.0794,3.0612,3.0631,3.0613,3.0614,3.0617,3.0617,3.0655,3.0788,3.1596,3.2169,3.2659,3.3604,3.4691,3.5786,3.6066,3.6531,3.6851,3.5029,3.3973,3.3122,0.0,2.9476,2.9322,2.871,2.7699,2.6757,2.7248,2.6967,2.6718,2.8077,2.9492,3.1011,3.294,3.4282,3.5451,3.6824,3.7509,3.7888,3.7848,3.8452,3.8772,3.8001,3.822,3.831,3.7452,3.7966,3.8458,3.8338,3.8988,3.9208,3.8253,3.8107,3.8103,3.8103,3.8518,0.0,0.0,0.0,0.0,3.76,3.7539,3.7652,3.8026,3.809,3.809,3.8045,3.8131,3.8376,3.8832,3.8832,3.9142,3.9781,3.9781,3.9785,3.9832,4.0022,4.0211,4.038,4.0535,4.0681,4.0812,4.1106,4.1233,4.1233,4.1233,4.1233,4.1194,4.0904,4.0798,4.0839,0.0,0.0,0.0,0.0,0.0,0.0,0.0,0.0,0.0,0.0,0.0,0.0,0.0,0.0,0.0,0.0,0.0,2.6623,2.7165,2.8096,2.9301,3.0867,3.1036,3.1576,3.257,3.2306,3.2296,3.261,3.2547,3.2661,3.2966,3.272,3.2852,3.3261,3.3804,3.4295,3.479,3.5736,3.6439,3.6994,3.7323,3.7605,3.7644,3.5858,3.477,0.0,3.1602,3.0497,2.9882,2.8367,2.7258,2.6486,2.642,2.6166,2.6142,2.7471,2.9118,3.1029,3.3517,3.4391,3.4925,3.6255,3.6539,3.6385,3.6061,3.6566,3.6961,3.6495,3.6882,3.7219,3.6879,3.7517,3.8053,3.7828,3.8417,3.8606,3.7729,3.7283,3.7426,3.8308,3.8571,3.8692,0.0,0.0,0.0,3.7835,3.7773,3.7817,3.7909,3.7957,3.7831,3.7483,3.7836,3.8099,3.8227,3.8227,3.8389,3.8691,3.9016,3.9166,3.9166,3.9675,4.0021,4.0266,4.0434,4.0621,4.0808,4.0812,4.0792,4.0792,4.0792,4.0792,4.0792,4.0792,4.0792,4.0792,0.0,0.0,0.0,0.0,0.0,0.0,0.0,0.0,0.0,0.0,0.0,0.0,0.0,0.0,0.0,0.0,0.0,0.0,2.7982,2.8517,2.9616,3.1444,3.1791,3.2349,3.3135,3.3375,3.3905,3.4714,3.4164,3.4286,3.5099,3.3926,3.3886,3.4741,3.4343,3.4668,3.5578,3.6646,3.7069,3.7119,3.7992,3.7839,3.7024,3.6929,3.5809,3.4269,3.4135,3.2968,3.1101,2.8632,2.7173,2.6416,2.6427,2.6944,2.7695,2.8502,2.9907,3.1726,3.4169,3.4245,3.3809,3.4565,3.4715,3.4508,3.3612,3.406,3.4658,3.4658,3.4983,3.5625,3.6754,3.7337,3.7733,3.7987,3.8126,3.7879,3.7008,3.6173,3.6493,0.0,0.0,0.0,0.0,0.0,0.0,3.945,0.0,3.9216,3.9317,3.9279,3.8887,3.8072,3.8831,3.8887,3.8103,3.8109,3.7736,3.6969,3.7766,3.8165,3.8222,3.9286,3.9924,4.0177,4.0351,4.0545,4.0746,4.0778,4.0759,4.0778,4.079,4.079,4.079,4.079,4.079,4.079,0.0,0.0,0.0,0.0,0.0,0.0,0.0,0.0,0.0,0.0,0.0,0.0,0.0,0.0,0.0,0.0,0.0,0.0,2.7402,2.8329,2.9656,3.1426,3.1575,3.2373,3.396,3.3531,3.3441,3.384,3.4411,3.4913,3.5339,3.5914,3.6416,3.6859,3.7536,3.8005,3.8339,3.9259,3.9309,3.8788,3.902,3.8524,3.745,3.604,3.5518,3.5286,3.328,3.2637,3.2504,3.0893,2.9281,2.7834,2.7198,2.7544,2.8341,2.9191,3.0243,3.1523,3.3412,3.3318,3.2845,3.3714,3.3824,3.3707,3.344,3.4513,3.5531,3.5437,3.5778,3.6173,3.6435,3.7535,3.8424,3.8511,3.9741,0.0,3.946,3.9127,0.0,3.8921,3.9243,3.9649,4.0085,4.1065,0.0,0.0,3.8999,3.7683,3.8402,3.7809,3.738,3.7206,3.7412,3.7729,3.8103,3.8084,3.8016,3.7792,3.7399,3.7555,3.8116,3.7951,3.8577,3.9738,3.9318,3.9545,4.0136,4.0351,4.0434,4.0434,4.064,4.0733,4.0733,4.079,4.0778,4.0733,0.0,0.0,0.0,0.0,0.0,0.0,0.0,0.0,0.0,0.0,0.0,0.0,0.0,0.0,0.0,0.0,0.0,0.0,0.0,2.8311,2.9491,3.0832,3.1276,3.2121,3.3544,3.328,3.3237,3.3411,3.4395,3.4981,3.523,3.6112,3.6806,3.7406,3.7865,3.8293,3.8716,3.9253,3.897,0.0,0.0,3.7751,3.7051,3.5944,3.5932,3.6276,3.4773,3.4473,3.4596,3.3145,3.1469,2.9777,2.8596,2.8746,2.9494,3.0001,3.0508,3.1204,3.2539,3.2257,3.1806,3.2673,3.2842,3.288,3.324,3.4614,3.5778,3.5722,3.6321,3.6878,3.6819,3.8122,3.9061,3.8688,3.9958,4.0688,3.9755,3.9305,3.915,3.9349,3.943,3.9909,4.099,4.1649,4.2295,0.0,4.0688,3.936,3.9584,3.9129,3.8552,3.7888,3.8223,3.8298,3.8,3.7671,3.7485,3.7485,3.7063,3.7088,3.7517,3.7207,3.7608,3.8568,0.0,3.9052,3.9603,4.0178,4.0415,4.045,4.0593,4.0654,4.0654,4.07,4.07,4.0654,0.0,0.0,0.0,0.0,0.0,0.0,0.0,0.0,0.0,0.0,0.0,0.0,0.0,0.0,0.0,0.0,0.0,0.0,0.0,0.0,2.9272,3.0077,3.0966,3.1829,3.2581,3.2773,3.2955,3.3128,3.3957,3.4484,3.4709,3.5165,3.5968,3.6976,3.6692,3.706,3.7901,3.7959,3.7488,3.6685,3.6554,3.6364,3.6205,0.0,3.6439,3.7055,3.7167,3.7047,3.6634,3.5174,3.3668,3.212,3.063,3.048,3.0891,3.1005,3.08,3.0725,3.1586,3.1287,3.0876,3.1631,3.1995,3.2355,3.3166,3.4543,3.5719,3.5938,3.677,3.7496,3.7594,3.8771,3.9562,3.8912,3.9781,4.0234,3.9473,3.8695,3.8718,3.9976,3.9473,3.9913,4.2165,4.1742,4.1958,4.3494,4.3014,4.2345,4.1662,4.1422,4.0656,3.9277,3.9964,3.9667,3.8228,3.7318,3.6853,3.6853,3.6794,3.6807,3.6807,3.6752,3.686,3.7181,0.0,0.0,3.9007,4.0038,4.0446,4.0466,4.0496,4.0496,4.0511,4.0511,4.0511,4.0511,0.0,0.0,0.0,0.0,0.0,0.0,0.0,0.0,0.0,0.0,2.6233,2.5983,0.0,0.0,0.0,0.0,0.0,0.0,0.0,0.0,0.0,3.0071,3.0854,3.169,3.2581,3.2053,3.1895,3.2151,3.242,3.2739,3.3105,3.3957,3.5082,3.635,3.6301,3.6878,3.7888,3.7853,3.7396,3.668,3.6501,3.591,3.5135,3.4958,0.0,0.0,3.7456,3.7209,3.6535,3.6311,3.5653,3.4792,3.3859,3.272,3.192,3.2552,3.1304,2.9886,3.0688,3.0822,3.0751,3.0883,3.1972,3.3197,3.3923,3.4846,3.5893,3.7166,3.734,3.7433,3.8055,3.8964,3.9803,4.0321,4.1397,4.2092,4.183,4.1664,4.1392,4.0979,4.0781,4.1111,4.2228,4.2209,0.0,0.0,0.0,4.3011,4.2364,4.1083,4.0215,3.9919,4.0078,4.0023,3.9785,3.834,3.7654,3.7671,3.7047,3.6731,3.6694,3.605,3.6131,3.6795,3.6976,0.0,3.8197,3.9251,3.9683,3.9705,3.9924,4.0023,4.0004,4.0024,4.0024,4.0043,0.0,0.0,0.0,0.0,0.0,0.0,0.0,2.7565,2.7382,2.6908,2.6825,2.6826,2.7014,2.7365,2.7823,0.0,0.0,0.0,0.0,0.0,0.0,0.0,3.0214,3.0838,3.1307,3.1411,3.1381,3.1177,0.0,3.257,3.2529,3.3552,3.4271,3.463,3.4789,3.5166,3.5704,3.5683,3.5661,3.5678,3.5911,3.5953,3.5923,0.0,0.0,0.0,3.8237,3.8098,3.7747,3.7785,3.7303,3.6485,3.5299,3.4056,3.3037,3.2985,3.1563,3.0146,3.0951,3.1158,3.1274,3.1689,3.2402,3.3302,3.4548,3.544,3.6342,3.7503,3.7713,3.7768,3.8177,3.8852,3.9535,3.9889,4.1317,4.2356,4.22,4.22,4.2038,4.1604,4.1183,4.1272,4.2077,4.2203,4.242,4.2842,0.0,4.3015,4.1862,4.1114,4.072,4.072,4.072,4.0332,3.9542,3.9172,3.8783,3.8414,3.7599,3.7007,3.6581,3.621,3.6033,3.6085,3.7012,0.0,3.8191,3.9223,3.966,3.9683,3.9962,4.0061,4.0062,4.0175,4.0138,4.0062,0.0,0.0,0.0,0.0,0.0,0.0,0.0,2.7589,2.7452,2.7034,2.7352,2.7787,2.8213,2.8345,2.8691,0.0,0.0,0.0,0.0,0.0,0.0,0.0,0.0,0.0,0.0,0.0,0.0,3.0747,3.1955,0.0,0.0,0.0,0.0,0.0,3.3336,3.3505,3.3612,3.3788,3.407,0.0,0.0,3.5975,0.0,0.0,0.0,0.0,0.0,3.887,3.8851,3.8892,3.8446,3.7661,3.6295,3.5016,3.3872,3.3239,3.1927,3.0796,3.143,3.1744,3.2005,3.2643,3.2919,3.3486,3.5125,3.5993,3.6705,3.765,3.801,3.8149,3.7993,3.8487,3.8943,3.8995,4.0565,4.188,4.2193,4.2412,4.2504,4.2504,4.1939,4.1756,4.2212,4.2355,0.0,4.3101,0.0,0.0,4.1484,4.1475,4.1507,4.1507,4.1359,4.0732,3.9674,3.9933,3.9748,3.915,3.8338,3.7544,3.6768,3.6768,3.6352,3.5729,3.731,0.0,0.0,3.9392,3.9769,3.9637,4.0027,4.0093,3.9962,4.012,4.0101,3.9962,0.0,0.0,0.0,0.0,0.0,0.0,0.0,2.7648,2.7591,2.7542,2.8041,2.8669,2.9372,2.8819,2.8718,0.0,0.0,0.0,0.0,0.0,0.0,0.0,0.0,0.0,0.0,0.0,0.0,3.1601,3.1026,0.0,0.0,0.0,0.0,0.0,0.0,3.3066,3.3301,3.4079,0.0,0.0,0.0,0.0,0.0,0.0,0.0,0.0,0.0,3.8785,3.8738,3.8793,3.8719,3.8474,3.7562,3.5782,3.399,3.3906,3.2734,3.1507,3.158,3.2127,3.2691,3.2783,3.3366,3.4289,3.5787,3.6174,3.665,3.8028,3.8383,3.8153,3.7419,3.7648,3.8054,3.8389,3.9558,4.101,4.2832,4.3725,4.4162,4.4162,4.4089,4.3816,4.316,4.3105,4.2886,0.0,0.0,0.0,4.2158,4.2209,4.2228,4.2228,4.1479,4.142,4.2087,4.0707,3.9982,3.9981,3.9169,3.8375,3.7599,3.7599,3.7156,3.6454,3.735,0.0,0.0,3.9423,3.9655,3.9063,3.9814,3.9694,3.9101,3.911,3.9165,3.9219,0.0,0.0,0.0,0.0,0.0,0.0,2.7648,2.7665,2.7805,2.8159,2.8403,2.9019,3.0197,2.9982,3.0074,3.0822,0.0,0.0,0.0,0.0,0.0,0.0,0.0,0.0,0.0,0.0,3.1315,3.2423,3.2585,0.0,0.0,0.0,0.0,0.0,0.0,3.2569,3.2298,3.3112,0.0,0.0,0.0,0.0,0.0,0.0,0.0,0.0,0.0,0.0,3.8689,3.8652,3.8279,3.779,3.7441,3.6352,3.5133,3.4669,3.4079,3.3599,3.3585,3.4179,3.4776,3.4748,3.4962,3.5486,3.6554,3.6783,3.7102,3.819,3.7958,3.7618,3.7822,3.7545,3.7484,3.8182,3.9102,4.0322,4.205,4.2577,4.3321,4.4774,4.4084,4.3557,0.0,0.0,4.3069,0.0,0.0,0.0,4.2951,4.2087,4.1589,4.1589,4.1754,4.1277,4.0171,4.096,4.068,3.9258,3.9406,3.8817,3.7584,3.8081,3.789,3.72,3.8022,0.0,0.0,3.9113,3.9187,3.8958,3.9426,3.9435,3.921,3.9313,3.9287,3.9219,0.0,0.0,0.0,0.0,0.0,2.7683,2.7648,2.7666,2.7936,2.8517,2.8795,2.942,3.0634,3.0928,3.131,3.2081,3.1485,0.0,0.0,0.0,0.0,0.0,0.0,0.0,0.0,0.0,3.1864,3.3264,3.3831,3.4666,0.0,0.0,3.4685,3.4007,0.0,0.0,0.0,0.0,0.0,0.0,0.0,0.0,0.0,0.0,0.0,0.0,0.0,0.0,0.0,0.0,0.0,3.7617,3.7549,3.7138,3.6486,3.552,3.522,3.5229,3.523,3.5632,3.6054,3.6017,3.6017,3.6229,3.6996,3.7166,3.735,3.8011,3.7708,3.7464,3.7756,3.7343,3.7167,3.7715,3.8474,3.9606,4.1284,4.1717,4.2582,4.4552,0.0,4.3403,0.0,4.3645,0.0,0.0,0.0,0.0,0.0,4.2077,4.1504,4.1776,4.1849,4.1189,3.979,4.0983,4.0744,3.9056,3.9386,3.8946,3.7863,3.8432,3.8426,3.7971,0.0,0.0,0.0,3.911,3.9073,3.887,3.9305,3.9361,3.9165,3.932,3.9287,3.9165,0.0,0.0,0.0,0.0,0.0,0.0,2.7701,2.7701,2.7936,2.8517,2.9281,3.0006,3.0631,3.1328,3.2098,3.2817,3.2221,0.0,0.0,0.0,0.0,0.0,0.0,0.0,0.0,0.0,3.2161,3.4092,3.4088,3.4684,3.58,3.5783,3.5353,3.4575,0.0,0.0,0.0,0.0,0.0,0.0,0.0,0.0,0.0,0.0,0.0,0.0,0.0,0.0,0.0,0.0,0.0,0.0,0.0,3.828,3.7959,3.644,3.6,3.5993,3.6006,3.5991,3.5996,3.5996,3.5996,3.6191,3.6922,3.7099,3.7172,3.744,3.7869,3.7864,3.6827,3.6964,3.7126,3.6952,3.7577,3.8811,4.0806,4.1792,4.2596,4.3435,4.3673,4.3796,4.3796,4.4114,0.0,0.0,0.0,0.0,0.0,4.2449,4.2429,4.3339,4.1784,4.1342,4.2249,4.0708,3.99,3.9863,3.9093,3.8707,3.8689,3.8707,3.8707,0.0,0.0,0.0,0.0,3.9551,3.9423,3.8781,3.957,3.9448,3.8822,3.8822,3.8851,3.8892,0.0,0.0,0.0,0.0,0.0,0.0,0.0,2.7701,2.8123,2.9266,2.9626,3.0214,3.1328,3.2115,3.2852,3.3663,3.3099,0.0,0.0,0.0,0.0,0.0,0.0,0.0,0.0,0.0,3.3669,3.5471,3.5095,3.5695,3.7226,3.6798,3.6471,3.624,3.5697,0.0,0.0,0.0,0.0,0.0,0.0,0.0,0.0,0.0,0.0,0.0,0.0,0.0,0.0,0.0,0.0,0.0,0.0,0.0,0.0,3.7226,3.7334,3.7458,3.6888,3.7148,3.7564,3.7512,3.7494,3.7458,3.7262,3.7226,3.7172,3.6886,3.6905,3.698,3.6923,3.6962,3.7241,3.802,3.8355,3.9133,4.0856,4.1752,4.2733,4.4089,4.4928,4.4964,0.0,0.0,0.0,0.0,0.0,0.0,0.0,4.2777,4.2287,4.1645,4.1115,4.0455,3.9694,4.0317,4.0111,3.9074,3.9386,3.9239,3.8707,3.8707,0.0,0.0,0.0,0.0,0.0,3.8964,3.8927,3.8726,3.8982,3.8958,3.8719,3.8719,3.875,3.875,0.0,0.0,0.0,0.0,0.0,0.0,0.0,2.7689,2.817,2.9627,2.9763,3.0353,3.2009,3.2624,3.3445,3.4822,3.4364,0.0,0.0,0.0,0.0,0.0,0.0,0.0,0.0,3.4356,3.5244,3.6111,3.615,3.6737,3.7887,3.76,3.728,3.6958,3.6481,0.0,0.0,0.0,0.0,0.0,0.0,0.0,3.7745,0.0,0.0,0.0,0.0,0.0,0.0,0.0,0.0,0.0,0.0,0.0,0.0,0.0,3.7829,3.7953,3.7408,3.7654,3.8047,3.7959,3.7959,3.7887,3.7494,3.7327,3.7122,3.6728,3.6551,3.6481,3.6716,3.6799,3.7176,3.8115,3.838,3.9223,4.1421,4.1853,4.2587,4.4272,0.0,0.0,0.0,0.0,0.0,0.0,0.0,0.0,0.0,4.2666,4.1887,4.0706,4.0757,4.0333,3.9378,3.9812,3.9552,3.8596,3.909,3.9085,3.8609,3.8609,0.0,0.0,0.0,0.0,0.0,3.8707,3.8707,3.8707,3.8707,3.8707,3.8707,3.8707,3.8707,3.8707,0.0,0.0,0.0,0.0,0.0,0.0,0.0,2.7652,2.815,2.9573,2.9695,3.0441,3.2607,3.2939,3.3869,3.6042,0.0,0.0,0.0,0.0,0.0,0.0,0.0,0.0,0.0,3.5806,3.6635,3.6061,3.6996,3.7502,3.7721,3.792,3.7636,3.6994,3.6994,0.0,0.0,0.0,0.0,0.0,0.0,0.0,0.0,0.0,0.0,0.0,0.0,0.0,0.0,0.0,0.0,0.0,0.0,0.0,0.0,0.0,0.0,0.0,0.0,3.7587,3.7605,3.7605,3.7605,3.7587,3.7551,3.7295,0.0,3.6807,3.6606,3.6378,3.622,3.6492,3.7003,3.7683,3.8027,3.9274,4.2339,4.2254,4.2466,0.0,4.4503,0.0,4.3773,0.0,0.0,0.0,0.0,0.0,0.0,4.2194,4.1433,4.0619,4.0635,4.0668,4.0609,3.9148,3.8401,3.8382,3.8382,3.8446,3.8491,3.8491,0.0,0.0,0.0,0.0,0.0,3.8676,3.8676,3.8676,3.8658,3.8707,3.8707,3.8707,3.8707,3.8707,0.0,0.0,0.0,0.0,0.0,0.0,0.0,0.0,0.0,0.0,2.9625,3.0214,3.1888,3.3127,3.4292,0.0,0.0,0.0,0.0,0.0,0.0,0.0,0.0,0.0,0.0,3.5792,3.6,3.5855,3.5691,3.5679,3.5842,3.6041,3.6435,3.6994,3.6994,0.0,0.0,0.0,0.0,0.0,0.0,0.0,0.0,0.0,0.0,0.0,3.4641,3.4534,0.0,0.0,0.0,0.0,0.0,0.0,0.0,0.0,3.7132,3.7136,3.7132,0.0,3.7583,3.7583,3.7583,3.7494,0.0,3.6908,3.6646,3.592,3.5929,3.619,3.6746,3.6724,3.7267,3.9473,3.9364,3.9894,4.2454,4.3658,0.0,4.4032,4.4693,4.4556,0.0,0.0,0.0,0.0,0.0,0.0,0.0,4.2719,4.2248,4.1452,4.0836,4.0,3.8904,3.8503,3.8354,3.8382,3.8382,3.8415,3.8415,3.8415,0.0,0.0,0.0,0.0,3.8465,3.8465,3.8465,3.8465,3.8528,3.8559,3.8559,3.8658,3.8707,3.8707,0.0,0.0,0.0,0.0,0.0,0.0,0.0,0.0,0.0,0.0,0.0,3.0274,3.2098,3.3055,0.0,0.0,0.0,0.0,0.0,0.0,0.0,0.0,0.0,0.0,3.5803,3.6841,3.6878,3.5797,3.5971,3.5729,3.5133,3.5753,3.6327,3.6874,3.7347,0.0,0.0,0.0,0.0,0.0,3.7217,0.0,0.0,0.0,0.0,0.0,3.3694,3.3671,0.0,3.4074,3.4303,3.458,0.0,0.0,0.0,0.0,3.69,3.6755,3.6755,3.7294,3.7743,3.74,3.7563,3.7598,3.6847,3.6523,3.6255,3.5719,3.553,3.5664,3.6404,3.6679,3.753,3.9852,4.0306,4.1035,4.3033,4.4641,4.5185,4.4044,4.417,4.3891,0.0,0.0,0.0,0.0,0.0,0.0,0.0,4.2538,4.1995,4.118,4.0401,3.9621,3.8803,3.8422,3.8274,3.8322,3.8322,3.8303,3.8336,3.8336,3.8368,0.0,0.0,0.0,3.8382,3.8382,3.8382,3.8415,3.8446,3.8446,3.8478,3.8546,3.8546,3.8546,0.0,0.0,0.0,0.0,0.0,0.0,0.0,0.0,0.0,0.0,0.0,0.0,0.0,0.0,0.0,0.0,0.0,0.0,0.0,0.0,0.0,0.0,0.0,3.7044,3.5846,3.7743,3.7745,3.5634,3.6504,3.6219,3.5011,3.5876,3.6468,3.6785,3.7754,3.8174,0.0,0.0,0.0,0.0,3.6636,0.0,0.0,0.0,0.0,0.0,0.0,0.0,0.0,3.2809,3.3159,3.3704,3.4427,0.0,0.0,0.0,0.0,0.0,3.6435,3.7246,3.7877,3.7044,3.7431,3.7743,3.6667,3.6133,3.5885,3.5833,3.5396,3.526,3.595,3.6769,3.7966,3.9832,4.1337,0.0,4.4225,4.5572,4.5782,4.4097,4.3507,0.0,0.0,0.0,0.0,0.0,0.0,0.0,0.0,4.2102,4.1306,4.0528,3.9786,3.9333,3.9206,3.8536,3.8192,3.8192,3.8192,3.8225,3.8274,3.8274,3.8322,0.0,0.0,0.0,3.8368,3.8368,3.8368,3.8368,3.8401,3.8382,3.8401,3.8401,3.8382,3.8382,0.0,0.0,0.0,0.0,0.0,0.0,0.0,0.0,0.0,0.0,0.0,0.0,0.0,0.0,0.0,0.0,0.0,0.0,0.0,0.0,0.0,0.0,3.6116,3.5379,3.5771,3.6147,3.585,3.4861,3.5027,3.503,3.4907,3.4652,3.54,3.6993,3.7845,3.8119,3.7923,0.0,0.0,0.0,0.0,0.0,0.0,0.0,0.0,0.0,0.0,0.0,0.0,3.2423,3.2546,3.2703,3.3229,0.0,0.0,0.0,0.0,0.0,3.6112,3.7016,3.7757,3.6403,3.6863,3.7365,3.6256,3.5925,3.5833,3.5522,3.5629,3.5983,3.6841,3.7767,3.9,4.0931,4.3513,4.5673,0.0,0.0,4.6379,4.415,0.0,0.0,0.0,0.0,0.0,0.0,0.0,0.0,0.0,4.1875,4.1158,4.0528,3.9786,3.9061,3.8373,3.8246,3.8192,3.8192,3.8192,3.8225,3.8225,3.8225,3.8207,0.0,0.0,3.8241,3.8241,3.8241,3.8241,3.8241,3.8307,3.834,3.8322,3.8401,3.8382,3.8382,0.0,0.0,0.0,0.0,0.0,0.0,0.0,0.0,0.0,0.0,0.0,0.0,0.0,0.0,0.0,0.0,0.0,0.0,0.0,0.0,0.0,3.8157,3.6702,3.5913,3.5809,3.5809,3.5232,3.4047,3.405,3.3875,3.3565,3.4266,3.559,3.7338,3.7693,3.7832,3.7727,0.0,0.0,0.0,0.0,0.0,0.0,0.0,0.0,0.0,0.0,0.0,0.0,0.0,3.176,3.1917,3.2335,0.0,0.0,0.0,0.0,0.0,3.5521,3.6371,3.6847,3.5738,3.6995,3.8096,3.6671,3.6825,3.6989,3.6047,3.6444,3.7191,3.7862,3.9264,4.1239,4.4147,0.0,4.6595,4.6221,4.5782,4.4799,0.0,0.0,0.0,0.0,0.0,0.0,0.0,0.0,0.0,0.0,0.0,4.0969,4.0347,3.9626,3.8903,3.8192,3.8192,3.8192,3.8192,3.8192,3.8192,3.8192,3.8192,3.8192,3.8192,0.0,3.8192,3.8192,3.8192,3.8192,3.8192,3.8241,3.8259,3.8295,3.8764,3.9197,3.9615,0.0,0.0,0.0,0.0,0.0,0.0,0.0,0.0,0.0,0.0,0.0,0.0,0.0,0.0,0.0,0.0,0.0,0.0,0.0,0.0,3.8457,3.7883,3.7106,3.6365,3.5581,3.5349,3.4677,3.3523,3.3339,3.3058,3.2756,3.448,3.6006,3.7345,3.7521,3.7587,3.7546,3.7546,3.7471,0.0,0.0,0.0,0.0,0.0,0.0,0.0,0.0,0.0,0.0,0.0,0.0,0.0,0.0,0.0,0.0,3.3422,3.3763,3.381,3.4626,3.5419,3.5857,3.5245,3.6756,3.8154,3.7076,3.7367,3.7653,3.6877,3.7334,3.8046,3.8622,4.0443,4.2965,4.6301,4.7074,4.6876,4.5751,4.4892,4.3822,0.0,0.0,0.0,0.0,0.0,0.0,0.0,0.0,0.0,0.0,0.0,4.0538,4.0161,3.9228,3.8564,3.8124,3.8124,3.8158,3.8192,3.8192,3.8192,3.8192,3.8192,3.8192,3.8192,3.8192,3.8192,3.8192,3.8391,3.8355,3.821,3.8391,3.859,3.8826,3.9641,4.0419,4.1126,0.0,0.0,0.0,0.0,0.0,0.0,0.0,0.0,0.0,0.0,0.0,0.0,0.0,0.0,0.0,0.0,0.0,0.0,0.0,0.0,3.694,3.7084,3.6301,3.5562,3.4801,3.4039,3.3617,3.3494,3.2823,3.2894,3.3722,3.5297,3.6185,3.6523,3.7291,3.7488,3.7332,3.7332,3.7041,0.0,0.0,0.0,0.0,0.0,0.0,0.0,0.0,0.0,0.0,0.0,0.0,0.0,0.0,0.0,3.1537,3.0965,3.2215,3.3717,3.3283,3.4178,3.5162,3.5096,3.5586,3.6213,3.7002,3.6759,3.671,3.7883,3.7945,3.7931,3.8594,4.0644,4.2997,4.5331,4.6323,4.6882,4.7036,0.0,0.0,0.0,0.0,0.0,0.0,0.0,0.0,0.0,0.0,0.0,0.0,0.0,0.0,3.9914,3.8488,3.7775,3.7899,3.7899,3.8021,3.8192,3.8192,3.8192,3.8192,3.8192,3.8192,3.8192,3.8192,3.8192,3.8246,3.9007,3.8862,3.8264,3.9007,3.9731,4.0437,4.1252,4.2049,4.2629,0.0,0.0,0.0,0.0,0.0,0.0,0.0,0.0,0.0,0.0,0.0,0.0,0.0,0.0,0.0,0.0,0.0,0.0,0.0,0.0,3.6404,3.56,3.6185,3.5756,3.3984,3.3671,3.3275,3.2818,3.2544,3.3316,3.5037,3.5168,3.6037,3.7474,3.7312,3.6923,3.6374,3.6679,3.6509,3.605,0.0,0.0,0.0,0.0,0.0,0.0,0.0,0.0,0.0,0.0,3.021,3.0112,2.9702,2.9812,3.016,3.0603,3.1404,3.2272,3.2847,3.4112,3.5186,3.4723,3.5074,3.586,3.7131,3.7719,3.8107,3.838,3.9182,4.0022,4.0649,4.2345,4.4096,4.5372,4.5561,4.5542,4.576,0.0,0.0,0.0,0.0,0.0,0.0,0.0,0.0,0.0,0.0,0.0,0.0,0.0,0.0,3.9736,3.8226,3.7558,3.7917,3.7899,3.8003,3.8192,3.8192,3.8192,3.8192,3.8192,3.8192,3.821,3.8717,3.8645,3.8246,3.9061,3.9206,3.9061,4.0347,4.1017,4.1361,4.2158,4.2629,4.2918,0.0,0.0,0.0,0.0,0.0,0.0,0.0,0.0,0.0,0.0,0.0,0.0,0.0,0.0,0.0,0.0,0.0,0.0,0.0,3.4751,3.5486,3.5079,3.5595,3.5257,3.3916,3.3142,3.2643,3.2393,3.2398,3.3318,3.5069,3.4809,3.5656,3.7347,3.6865,3.6309,3.5811,3.6043,3.5824,3.5368,3.5552,3.4697,0.0,0.0,0.0,0.0,0.0,0.0,0.0,0.0,2.9593,2.9545,2.92,2.9075,2.931,3.038,3.111,3.1772,3.2827,3.4064,3.499,3.4704,3.5054,3.5748,3.72,3.7931,3.8473,3.904,4.0008,4.0941,4.1359,4.2672,0.0,0.0,4.4709,4.4535,0.0,0.0,0.0,0.0,0.0,0.0,0.0,0.0,0.0,0.0,0.0,0.0,0.0,0.0,0.0,0.0,3.787,3.7372,3.7721,3.7721,3.7828,3.8124,3.8124,3.8158,3.8192,3.8192,3.8192,3.821,3.8771,3.8699,3.8246,3.9061,3.9532,3.9876,4.1198,4.1868,4.2194,4.2973,4.3425,4.3697,0.0,0.0,0.0,0.0,0.0,0.0,0.0,0.0,0.0,0.0,0.0,0.0,0.0,0.0,0.0,0.0,0.0,0.0,3.3134,3.3193,3.3964,3.5706,3.4321,3.388,3.4657,3.2388,3.162,3.2388,3.2388,3.2773,3.3528,3.4339,3.5087,3.5789,3.5811,3.5811,3.5741,3.5421,3.4948,3.4405,3.4795,3.4185,0.0,0.0,0.0,0.0,0.0,0.0,0.0,0.0,2.9483,2.9137,2.9091,2.9137,2.9278,2.9986,3.1191,3.2447,3.3085,3.38,3.4486,3.5217,3.5406,3.578,3.7163,3.6911,3.7218,4.0025,4.0308,4.0126,4.0178,4.119,0.0,4.3047,4.3786,0.0,0.0,0.0,0.0,0.0,0.0,0.0,0.0,0.0,0.0,0.0,0.0,0.0,0.0,0.0,0.0,0.0,3.7374,3.7105,3.7297,3.7297,3.7484,3.7917,3.7899,3.8021,3.8192,3.8192,3.8192,3.8192,3.8192,3.8192,3.8246,3.9079,3.9858,4.0619,4.1433,4.2212,4.3009,4.3806,4.4603,4.5164,0.0,0.0,0.0,0.0,0.0,0.0,0.0,0.0,0.0,0.0,0.0,0.0,0.0,0.0,0.0,0.0,0.0,0.0,3.2273,3.2837,3.3209,3.3246,3.3413,3.3382,3.3106,3.2382,3.1891,3.155,3.155,3.2528,3.4339,3.4596,3.5087,3.5811,3.5794,3.4981,3.3639,3.3812,3.3402,3.2658,3.2805,3.2412,3.1601,0.0,0.0,0.0,0.0,0.0,0.0,0.0,0.0,0.0,3.0018,3.0555,3.1175,3.0428,3.1534,3.2954,3.267,3.3809,3.4996,3.4668,3.5738,3.6832,3.6732,3.698,3.7488,3.8748,3.9259,3.9446,3.9291,4.0357,0.0,4.1561,0.0,0.0,0.0,0.0,0.0,0.0,0.0,0.0,0.0,0.0,0.0,0.0,0.0,0.0,0.0,0.0,0.0,0.0,3.7374,3.7105,3.7297,3.7297,3.7676,3.8472,3.808,3.8021,3.8192,3.8192,3.8192,3.821,3.879,3.8717,3.8282,3.9641,4.0981,4.2266,4.3063,4.3534,4.3769,4.4005,4.3878,4.357,0.0,0.0,0.0,0.0,0.0,0.0,0.0,0.0,0.0,0.0,0.0,0.0,0.0,0.0,0.0,0.0,0.0,0.0,0.0,0.0,3.2545,3.2231,3.2699,3.2645,3.1934,3.2509,3.2456,3.169,3.169,3.2721,3.4692,3.4391,3.4644,3.5364,3.4999,3.4059,3.2693,3.2767,3.232,3.1549,3.1738,3.1552,3.1087,0.0,0.0,0.0,0.0,0.0,0.0,0.0,0.0,0.0,3.07,3.1182,3.1787,3.1517,3.2529,3.3737,3.39,3.4868,3.577,3.5618,3.6551,3.7358,3.6907,3.7406,3.8079,3.8637,3.8946,3.9292,3.9695,4.0394,0.0,4.1285,0.0,0.0,0.0,0.0,0.0,0.0,0.0,0.0,0.0,0.0,0.0,0.0,0.0,0.0,0.0,0.0,0.0,0.0,3.7672,3.7664,3.8078,3.8078,3.8408,3.9046,3.8415,3.8187,3.8401,3.8251,3.8192,3.821,3.8699,3.8645,3.8301,3.9858,4.1071,4.2067,4.3172,4.3607,4.3607,4.3607,4.3317,4.2882,0.0,0.0,0.0,0.0,0.0,0.0,0.0,0.0,0.0,0.0,0.0,0.0,0.0,0.0,0.0,0.0,0.0,0.0,0.0,0.0,3.1882,3.2074,3.2161,3.1969,3.1411,3.2774,3.323,3.2617,3.2459,3.316,3.4586,3.3845,3.3847,3.4442,3.3685,3.3046,3.2462,3.2001,3.1426,3.0856,3.1253,3.1253,3.0951,3.0318,0.0,0.0,0.0,0.0,0.0,0.0,0.0,0.0,3.1272,3.1344,3.1694,3.2824,3.3739,3.4678,3.5944,3.6306,3.6525,3.7311,3.7472,3.7519,3.7524,3.7963,3.8518,3.9115,3.9135,3.9489,4.0783,4.0968,4.1094,0.0,0.0,0.0,0.0,0.0,0.0,0.0,0.0,0.0,0.0,0.0,0.0,0.0,0.0,0.0,0.0,0.0,0.0,3.8093,3.8181,3.8567,3.9305,3.9305,3.9423,0.0,3.8819,3.8561,3.8877,3.8383,3.8158,3.8158,3.8158,3.8194,3.8375,3.9823,4.0492,4.0709,4.2265,4.2862,4.2862,4.2862,4.2862,4.2862,0.0,0.0,0.0,0.0,0.0,0.0,0.0,0.0,0.0,0.0,0.0,0.0,0.0,0.0,0.0,0.0,0.0,0.0,0.0,0.0,3.108,3.1177,3.1952,3.2563,3.3011,3.3353,3.374,3.421,3.299,3.2869,3.374,3.3564,3.3247,3.2757,3.281,3.2167,3.1012,3.0566,3.0024,2.9545,2.9593,2.9593,2.9561,2.9404,2.9812,0.0,0.0,0.0,0.0,0.0,0.0,0.0,3.2002,3.2588,3.3296,3.25,3.3661,3.5212,3.5539,3.5643,3.5951,3.7194,3.7531,3.7524,3.7504,3.7479,3.7556,3.7682,3.8487,3.9401,4.0104,4.06,4.0944,0.0,0.0,0.0,0.0,0.0,0.0,0.0,0.0,0.0,0.0,0.0,0.0,0.0,0.0,0.0,3.783,0.0,0.0,3.8093,3.8725,3.9147,3.9305,3.9305,3.9663,0.0,3.9005,3.9067,4.0276,3.8522,3.7739,3.7739,3.7739,3.8097,3.8742,3.9636,4.0387,4.1049,4.2056,4.245,4.245,4.245,4.245,4.245,0.0,0.0,0.0,0.0,0.0,0.0,0.0,0.0,0.0,0.0,0.0,0.0,0.0,0.0,0.0,0.0,0.0,0.0,0.0,0.0,0.0,3.1369,3.2282,3.2788,3.2847,3.3897,3.4484,3.4542,3.3739,3.3546,3.3951,3.3196,3.2508,3.1829,3.1981,3.1372,3.0236,2.9966,2.9553,2.9075,2.9075,2.9075,2.9075,2.9075,2.9561,3.0274,3.0974,0.0,0.0,0.0,0.0,0.0,0.0,0.0,3.3426,3.3013,3.3737,3.4864,3.555,3.6024,3.6576,3.7667,3.8212,3.8236,3.7514,3.7512,3.7676,3.7576,3.8051,3.8774,3.9705,3.9804,0.0,0.0,0.0,0.0,0.0,0.0,0.0,0.0,0.0,0.0,0.0,0.0,0.0,0.0,0.0,3.7303,3.8058,3.8111,3.8444,3.9217,3.9656,4.0042,4.0411,4.0411,4.0604,4.1007,3.9922,3.9629,4.0034,3.8727,3.813,3.8112,3.7737,3.8023,3.8808,3.9593,4.0378,4.1181,4.1984,4.2287,4.2287,4.2287,4.2519,4.284,0.0,0.0,0.0,0.0,0.0,0.0,0.0,0.0,0.0,0.0,0.0,0.0,0.0,0.0,0.0,0.0,0.0,0.0,0.0,0.0,0.0,3.186,3.2609,3.2786,3.2282,3.4116,3.4799,3.4209,3.4197,3.4286,3.4412,3.281,3.1834,3.1383,3.1182,3.0634,2.987,2.9722,2.947,2.9075,2.9075,2.9075,2.9075,2.9075,0.0,3.0258,3.0916,3.1492,3.2101,3.2792,0.0,0.0,0.0,0.0,3.2958,3.3521,3.3793,3.4177,3.5598,3.655,3.7411,3.8423,3.8885,3.888,3.7673,3.7737,3.7965,3.7702,3.7742,3.815,3.9296,3.9008,0.0,0.0,0.0,0.0,0.0,0.0,0.0,0.0,0.0,0.0,0.0,0.0,0.0,0.0,0.0,3.7584,3.8076,3.8357,3.9111,4.0446,4.0604,4.0972,4.1604,4.1604,4.1604,4.1604,4.0972,4.027,3.9498,3.9177,3.8943,3.8783,3.816,3.816,3.8676,3.9619,4.0313,4.0882,4.1949,4.2287,4.2181,4.2323,4.2768,4.3319,0.0,0.0,0.0,0.0,0.0,0.0,0.0,0.0,0.0,0.0,0.0,0.0,0.0,0.0,0.0,0.0,0.0,0.0,2.6255,0.0,0.0,3.1908,3.2133,3.252,3.303,3.3341,3.3467,3.3345,3.3368,3.3658,3.4216,3.2367,3.143,3.129,3.0451,2.998,2.9763,2.937,2.9167,2.9075,2.9075,2.9075,2.9075,0.0,0.0,0.0,3.0795,3.1362,3.1949,3.2672,3.2788,0.0,0.0,0.0,3.2647,3.2726,3.3339,3.4084,3.4862,3.6088,3.7515,3.8937,3.8542,3.7832,3.8189,3.776,3.727,3.7118,3.7466,3.7997,3.8625,3.8663,0.0,0.0,0.0,0.0,0.0,0.0,0.0,0.0,0.0,0.0,0.0,0.0,0.0,0.0,3.8602,3.8743,3.8146,3.941,4.027,4.0463,4.1113,4.1499,4.1604,4.1604,4.1604,4.1604,4.1499,4.106,4.0323,4.0285,3.988,3.9212,3.9124,3.8737,3.8297,3.9792,4.0056,3.9757,4.1903,4.2308,4.178,4.2484,4.2801,4.2889,0.0,0.0,0.0,0.0,0.0,0.0,0.0,0.0,0.0,0.0,0.0,0.0,0.0,0.0,0.0,2.5523,2.5868,2.6299,2.6747,2.7444,2.887,3.1181,3.1278,3.1642,3.2414,3.2827,3.3028,3.3033,3.2804,3.2836,0.0,3.1307,3.1064,3.1992,3.0903,3.024,2.9974,2.9343,2.9075,2.9075,2.9075,2.9374,2.9674,0.0,0.0,0.0,0.0,0.0,3.1813,3.2508,3.2647,3.2499,3.2499,0.0,0.0,0.0,3.277,3.3336,3.4571,3.5959,3.7281,3.8099,3.843,3.8344,3.785,3.7997,3.7998,3.7002,3.7225,3.7689,3.7929,0.0,0.0,0.0,0.0,0.0,0.0,0.0,0.0,0.0,0.0,0.0,0.0,0.0,0.0,0.0,3.8824,3.934,3.9427,4.0095,4.0674,4.1095,4.1429,4.1604,4.1604,4.1604,4.1604,4.1604,4.1604,4.1429,4.1113,4.1113,4.0691,3.9937,3.9498,3.9357,3.9498,4.02,4.0533,4.0744,4.2236,4.2587,4.2377,4.3131,4.3711,4.4097,0.0,0.0,0.0,0.0,0.0,0.0,0.0,0.0,0.0,0.0,0.0,0.0,0.0,0.0,0.0,0.0,2.5609,2.6074,2.6678,2.6885,2.8006,3.03,3.0589,3.107,3.1783,3.2349,3.2586,3.2441,3.2127,3.2034,3.2077,3.0709,3.0937,0.0,3.1001,3.0179,0.0,2.9343,2.9232,2.939,2.939,2.9817,0.0,0.0,0.0,0.0,0.0,0.0,0.0,0.0,0.0,3.2398,3.2398,3.2398,0.0,0.0,0.0,3.2715,3.4203,3.5345,3.643,3.7414,3.8232,3.8642,3.8121,3.8602,3.8764,0.0,3.7405,3.7566,3.7508,0.0,0.0,0.0,0.0,0.0,0.0,0.0,0.0,0.0,0.0,0.0,0.0,0.0,0.0,0.0,3.9336,3.9929,4.0122,4.0358,4.0744,4.1306,4.1323,4.1323,4.1323,4.1323,4.1323,4.1323,4.1516,4.1604,4.1604,4.1604,4.1306,4.0744,4.0147,4.0112,4.0498,4.0691,4.1095,4.171,4.2693,4.3079,4.3184,4.3921,4.4571,4.5098,0.0,0.0,0.0,0.0,0.0,0.0,0.0,0.0,0.0,0.0,0.0,0.0,0.0,2.6092,2.6092,2.6057,2.5454,2.5074,2.5126,2.5781,2.7195,2.9472,3.03,0.0,3.1783,3.1834,3.1648,3.1173,3.119,3.1345,3.1622,3.101,3.1205,3.1931,3.0053,2.9186,2.9122,0.0,0.0,0.0,0.0,0.0,0.0,0.0,0.0,0.0,0.0,0.0,0.0,0.0,0.0,0.0,0.0,0.0,3.2398,0.0,0.0,0.0,3.3516,3.3805,3.457,3.7455,3.7689,3.7711,3.9688,3.9653,3.9132,3.8823,3.8261,3.7708,3.7524,0.0,0.0,0.0,0.0,0.0,0.0,0.0,0.0,0.0,0.0,0.0,0.0,0.0,0.0,0.0,4.0794,4.0674,3.9241,4.0017,4.0498,4.0533,4.0533,4.0533,4.0533,4.0533,4.0533,4.0551,4.1271,4.1604,4.1604,4.1604,4.1587,4.1552,4.1499,4.1113,4.0533,4.1253,4.1569,4.1745,4.3254,4.3834,4.3939,4.4746,4.5062,4.5098,0.0,0.0,0.0,0.0,0.0,0.0,0.0,0.0,0.0,0.0,0.0,0.0,0.0,2.4841,2.5026,2.413,2.4007,2.4457,2.5614,2.5954,2.7351,3.0144,3.0541,3.1041,3.1783,3.1504,3.1257,3.1123,3.0543,3.034,3.043,2.9958,2.9844,3.0145,2.9896,3.0068,3.0385,2.9911,0.0,0.0,0.0,0.0,0.0,0.0,0.0,0.0,0.0,0.0,0.0,0.0,0.0,0.0,0.0,0.0,0.0,3.2398,3.2398,3.2554,3.3278,3.3502,3.3931,3.5626,3.6097,3.6408,3.7404,3.8328,3.8858,3.8331,3.8618,3.8831,3.8336,0.0,0.0,0.0,0.0,0.0,0.0,0.0,0.0,0.0,0.0,0.0,0.0,0.0,0.0,0.0,0.0,4.0971,4.0069,4.0323,4.0253,3.9743,3.9726,3.9726,3.9726,3.9726,3.9726,3.9743,4.0516,4.0884,4.0902,4.1376,4.1604,4.1604,4.1604,4.1745,4.199,4.2271,4.2658,4.3184,4.4255,4.4676,4.4764,4.5536,4.5835,4.5835,0.0,0.0,0.0,0.0,0.0,0.0,0.0,0.0,0.0,0.0,0.0,0.0,0.0,0.0,2.5246,2.4435,2.433,2.5022,2.675,2.6868,2.8023,3.0575,3.0571,3.0788,3.1562,3.1123,3.0828,3.0666,3.0081,2.9722,2.9544,2.9198,2.9029,2.9045,2.9533,2.999,0.0,0.0,0.0,3.0923,0.0,0.0,3.2422,0.0,0.0,0.0,0.0,0.0,0.0,0.0,0.0,0.0,0.0,0.0,0.0,0.0,0.0,3.2492,3.2964,3.3055,3.3329,3.4546,3.5198,3.5759,3.6499,3.7786,3.8721,3.8482,3.8917,3.925,3.9008,0.0,0.0,0.0,0.0,0.0,0.0,0.0,0.0,0.0,0.0,0.0,0.0,0.0,0.0,0.0,0.0,0.0,4.0001,3.9991,3.9666,3.8936,3.8918,3.8918,3.8918,3.8918,3.8918,3.8918,3.9972,4.0481,4.0559,4.1253,4.1604,4.1604,4.1604,4.2061,4.2816,4.2816,4.3395,4.436,4.4887,4.5256,4.5536,4.6046,4.6172,4.6172,0.0,0.0,0.0,0.0,0.0,0.0,0.0,0.0,0.0,0.0,0.0,0.0,0.0,0.0,0.0,2.7252,2.6561,2.675,2.8334,2.8404,2.9076,3.0644,3.0296,3.0391,3.11,3.0716,3.03,2.9826,2.981,2.9544,2.9075,2.8967,2.8904,2.8904,2.8826,2.8811,2.8873,0.0,2.9637,3.0853,0.0,3.2086,3.387,0.0,0.0,0.0,3.3679,3.3362,0.0,3.2647,0.0,0.0,0.0,0.0,0.0,0.0,0.0,0.0,0.0,0.0,0.0,3.4291,3.508,3.5892,3.7406,3.8164,3.8784,3.9543,3.9129,3.8836,3.956,0.0,0.0,0.0,0.0,0.0,0.0,0.0,0.0,0.0,0.0,0.0,0.0,0.0,0.0,0.0,4.1012,4.0429,3.8973,3.8981,3.8741,3.8093,3.8076,3.8076,3.8076,3.8076,3.8076,3.8093,3.9691,4.0446,4.0463,4.1253,4.1604,4.1604,4.1604,4.2061,4.2816,4.2833,4.3728,4.5098,4.5115,4.5589,4.6172,4.6172,4.6172,4.6172,0.0,0.0,0.0,0.0,0.0,0.0,2.9128,2.8444,0.0,0.0,0.0,0.0,0.0,0.0,2.6264,2.7153,2.6535,2.6996,2.9059,2.8602,2.9059,3.0921,3.1046,3.1183,3.1366,3.0953,3.0644,3.0526,2.971,2.9198,2.8967,2.8904,2.8873,2.8826,2.8732,2.8668,2.8731,2.9676,0.0,3.2075,3.2006,3.2585,0.0,0.0,0.0,0.0,0.0,3.2684,3.2662,0.0,3.2398,3.2398,0.0,0.0,0.0,0.0,0.0,0.0,3.2895,0.0,0.0,0.0,0.0,0.0,0.0,0.0,3.804,3.9439,3.9526,3.9457,3.9664,3.9526,0.0,0.0,0.0,0.0,0.0,0.0,0.0,0.0,0.0,0.0,0.0,0.0,0.0,0.0,4.0199,3.9857,3.9016,3.7986,3.7393,3.7303,3.7286,3.7286,3.7286,3.7286,3.7286,3.7303,3.8883,3.9638,3.9691,4.1007,4.1604,4.1604,4.1604,4.2061,4.2851,4.3377,4.4185,4.515,4.5712,4.6046,4.6172,4.6172,4.6172,4.6172,0.0,0.0,0.0,0.0,0.0,2.968,2.8906,2.8414,2.8019,0.0,0.0,0.0,0.0,0.0,0.0,2.7982,2.7673,2.8131,2.9827,2.9421,2.9663,3.0794,3.1071,3.1204,3.1204,3.0771,3.0557,3.0557,2.9593,2.9029,2.8904,2.8889,2.8811,2.8684,0.0,0.0,0.0,0.0,0.0,0.0,3.1929,0.0,0.0,3.2967,3.2988,0.0,0.0,0.0,3.3188,3.2604,3.2398,0.0,0.0,0.0,0.0,0.0,0.0,0.0,0.0,0.0,0.0,0.0,0.0,0.0,3.6465,3.6825,3.7205,0.0,3.8767,3.887,3.9181,3.9491,3.956,0.0,0.0,0.0,0.0,0.0,0.0,0.0,0.0,0.0,0.0,3.9939,4.0107,3.9842,3.9807,3.943,3.8546,3.7493,3.6908,3.6987,3.6987,3.6987,3.6987,3.6987,3.6987,3.7005,3.8567,3.9305,3.9357,4.0902,4.1604,4.1604,4.1604,4.1868,4.2359,4.3131,4.4097,4.5133,4.5589,4.5958,4.6172,4.6172,4.6172,4.6172,0.0,0.0,2.9793,2.9705,2.938,2.887,2.8255,2.7671,2.7498,0.0,0.0,0.0,0.0,0.0,0.0,0.0,2.9395,2.97,3.0543,3.0426,3.0351,3.0435,3.0689,3.0838,3.0838,3.0577,3.0417,3.0401,2.958,2.9139,2.8983,2.8857,2.87,2.8573,0.0,0.0,0.0,0.0,0.0,3.0582,3.1243,3.2259,0.0,0.0,3.3725,3.4147,3.3539,3.3727,3.4076,3.2798,3.2398,0.0,0.0,0.0,0.0,0.0,3.2492,0.0,0.0,0.0,0.0,0.0,0.0,0.0,3.7099,3.6927,3.6706,0.0,3.7784,3.7956,3.8715,3.9457,3.9922,0.0,0.0,0.0,0.0,0.0,0.0,0.0,0.0,0.0,4.0819,4.0888,4.0578,3.9888,3.9664,3.9047,3.7843,3.7288,3.6987,3.6987,3.6987,3.6987,3.6987,3.6987,3.6987,3.7005,3.848,3.9217,3.9357,4.0814,4.1516,4.1604,4.1604,4.1604,4.1657,4.2377,4.3535,4.4869,4.5027,4.5519,4.6116,4.6186,4.6172,4.6172,0.0,2.9837,2.9661,2.9166,2.8997,2.8889,2.8701,2.8529,2.8545,0.0,0.0,0.0,0.0,0.0,0.0,0.0,2.9995,3.0136,3.1246,3.0073,2.9544,2.9924,3.0686,3.1148,3.1148,3.1621,3.1804,3.1671,3.0445,2.9687,2.9477,2.8885,2.8589,2.8444,2.8396,0.0,0.0,0.0,0.0,3.1259,3.1921,0.0,3.3336,3.2798,3.269,3.2773,3.2665,3.2686,3.2778,3.2521,3.2398,3.2398,0.0,0.0,0.0,0.0,0.0,0.0,0.0,0.0,0.0,0.0,0.0,0.0,3.7882,3.8054,3.8391,0.0,3.9715,3.9508,4.0284,4.1043,4.1354,4.075,0.0,0.0,0.0,0.0,0.0,0.0,0.0,0.0,4.0922,4.0888,4.0819,4.0664,3.9508,3.8511,3.7826,3.7143,3.6846,3.697,3.6987,3.6987,3.6987,3.6987,3.6987,3.6987,3.7918,3.869,3.934,4.027,4.1025,4.1604,4.1604,4.1604,4.1622,4.178,4.2394,4.3377,4.4624,4.5185,4.5396,4.5993,4.6172,4.6172,2.9438,2.9348,2.9227,2.8889,2.8858,2.8858,2.8794,2.8794,2.8919,0.0,0.0,0.0,0.0,0.0,0.0,0.0,0.0,0.0,0.0,3.0498,3.0164,3.0386,3.116,3.1612,3.1612,3.1958,3.208,3.1909,3.0908,3.0136,2.9596,2.9596,2.919,2.8427,2.9119,2.9597,0.0,0.0,3.1289,3.1921,3.2259,0.0,3.2859,3.2521,3.2398,3.2398,3.2398,3.2398,3.2428,3.2795,3.2678,0.0,0.0,3.2586,3.2788,0.0,3.2986,3.3251,0.0,0.0,0.0,3.5679,0.0,0.0,0.0,3.8521,3.8574,3.9485,3.9376,3.9267,3.9664,4.0353,4.0853,4.0871,4.1836,0.0,0.0,0.0,0.0,0.0,0.0,0.0,4.2061,4.1336,4.0716,4.0319,3.8915,3.7984,3.7731,3.7085,3.6788,3.6908,3.6987,3.6987,3.6987,3.6987,3.6987,3.7027,3.7742,3.8532,3.934,4.013,4.0884,4.1604,4.1604,4.1604,4.1604,4.1604,4.185,4.2359,4.3904,4.4746,4.5185,4.5958,4.6172,4.6172,2.8967,2.8873,2.8889,2.8966,2.8841,2.8794,2.8871,2.8793,2.8948,0.0,0.0,0.0,0.0,0.0,0.0,0.0,0.0,0.0,0.0,0.0,3.1039,3.0974,3.1616,3.2013,3.1961,3.2102,3.2113,3.1955,3.1301,3.0592,2.9933,3.0366,2.9929,2.8842,2.9935,3.0489,0.0,0.0,0.0,3.2398,0.0,3.2398,3.2398,3.2398,3.2398,3.2398,3.2398,3.2398,3.2499,3.3005,3.2918,3.2567,3.2578,3.2935,0.0,0.0,0.0,0.0,0.0,0.0,0.0,0.0,0.0,3.7611,0.0,0.0,0.0,3.886,3.8997,3.9026,3.9026,0.0,0.0,0.0,0.0,0.0,0.0,0.0,0.0,0.0,0.0,0.0,0.0,4.2092,4.094,3.9991,3.8874,3.8105,3.7854,3.7433,3.7114,3.7015,3.7079,3.7158,3.7158,3.7018,3.6948,3.6987,3.7602,3.8392,3.934,3.9972,4.0744,4.1604,4.1604,4.1604,4.1604,4.1604,4.1604,4.1745,4.3289,4.429,4.4975,4.5888,4.6172,4.6172,2.8842,2.8794,2.8982,2.9428,2.9024,2.879,2.9261,2.8845,2.8706,0.0,0.0,0.0,0.0,0.0,0.0,0.0,0.0,0.0,3.1665,0.0,3.1074,3.0838,3.1565,3.1961,3.1821,3.2444,3.2703,3.2524,3.1843,3.1402,3.1204,3.0658,3.0335,3.0197,3.0299,3.0735,0.0,0.0,3.1782,0.0,3.2398,3.2398,0.0,3.2398,3.2398,3.2398,3.2398,3.2398,3.2398,0.0,3.2829,3.3295,0.0,3.3556,3.4149,0.0,0.0,0.0,0.0,0.0,0.0,0.0,3.766,0.0,0.0,0.0,4.0629,4.0612,0.0,0.0,0.0,0.0,0.0,0.0,0.0,0.0,4.2406,0.0,0.0,0.0,0.0,0.0,0.0,4.3059,4.2302,4.0853,4.0642,3.9997,3.8737,3.8581,3.8304,3.7711,3.7676,3.7718,3.7718,3.712,3.6811,3.6829,3.7036,3.7883,3.9305,3.9392,4.0235,4.1604,4.1604,4.1604,4.1604,4.1604,4.1604,4.1745,4.3289,4.3957,4.4202,4.5694,4.6172,4.6172,2.8684,2.901,2.9319,2.945,2.9539,2.9585,2.9427,2.9827,0.0,0.0,0.0,0.0,0.0,0.0,0.0,0.0,0.0,3.2185,0.0,0.0,0.0,3.2509,3.3201,3.3372,3.2928,3.3224,3.3051,3.2453,3.2175,3.1836,3.1382,3.1505,3.1166,3.0406,3.1228,0.0,3.1428,0.0,3.249,0.0,0.0,0.0,0.0,3.2398,3.2398,3.2398,3.2398,3.2398,3.2398,0.0,3.2772,0.0,0.0,0.0,0.0,0.0,0.0,0.0,0.0,0.0,0.0,0.0,0.0,0.0,3.9625,0.0,4.0583,0.0,0.0,0.0,0.0,0.0,0.0,0.0,4.2112,0.0,0.0,0.0,4.4492,0.0,0.0,0.0,0.0,0.0,0.0,0.0,4.0888,4.0452,3.9392,3.8987,3.8651,3.8365,3.8434,3.8208,3.7815,3.7526,3.7161,3.6725,3.6829,3.7714,3.9203,3.9263,4.0147,4.1604,4.1604,4.1604,4.1604,4.1604,4.1885,4.2412,4.3483,4.3904,4.4097,4.5642,4.6172,4.6172,2.8773,0.0,0.0,2.9658,3.0104,3.0258,2.9766,3.0505,0.0,0.0,0.0,0.0,3.1254,3.1647,0.0,0.0,3.2547,3.2773,0.0,0.0,3.3727,3.3599,3.4322,0.0,3.3908,3.3707,3.3295,3.2675,3.249,3.2136,3.1674,3.2167,3.1874,3.0997,3.1967,3.2121,3.1736,0.0,3.3121,3.2721,3.3198,3.2998,3.2398,3.2398,3.2398,3.2398,3.2398,3.2398,3.2453,3.2547,3.302,0.0,3.361,0.0,0.0,0.0,0.0,0.0,3.6152,0.0,0.0,0.0,0.0,0.0,0.0,0.0,0.0,0.0,0.0,0.0,0.0,0.0,0.0,0.0,0.0,4.2112,0.0,0.0,0.0,0.0,0.0,0.0,0.0,0.0,0.0,0.0,0.0,4.0974,3.9767,3.9496,3.9282,3.9057,3.9067,3.8851,3.8313,3.8148,3.7808,3.7328,3.7167,3.7947,3.9476,3.9368,4.0147,4.1604,4.1604,4.1604,4.1604,4.1604,4.2078,4.2886,4.3605,4.4027,4.4395,4.573,4.6172,4.6172,2.9258,2.9396,0.0,0.0,3.0412,3.0412,3.0397,0.0,0.0,0.0,0.0,0.0,0.0,0.0,0.0,0.0,0.0,3.2773,3.2453,0.0,3.3743,3.3398,3.4249,3.462,0.0,3.3752,3.3398,3.3367,3.2721,3.2382,3.2367,3.2382,3.2367,3.2336,3.2382,3.2382,3.2398,3.3106,3.3398,3.3367,3.3398,3.2998,3.2398,0.0,3.2398,3.2398,3.2398,0.0,0.0,3.2986,3.364,0.0,0.0,0.0,0.0,0.0,0.0,0.0,0.0,0.0,0.0,3.8616,0.0,0.0,0.0,0.0,4.0745,0.0,0.0,0.0,0.0,0.0,0.0,0.0,0.0,0.0,0.0,0.0,0.0,0.0,0.0,0.0,0.0,0.0,0.0,0.0,0.0,0.0,3.9819,4.0405,4.0457,3.9681,3.9664,3.9646,3.9629,3.9074,3.8842,3.8938,3.829,3.8828,4.0411,3.9656,4.0147,4.1604,4.1604,4.1604,4.1604,4.1604,4.2078,4.2886,4.3605,4.4378,4.515,4.594,4.6172,4.6172,0.0,0.0,0.0,0.0,0.0,0.0,0.0,3.2105,0.0,0.0,0.0,0.0,0.0,3.3131,3.3131,0.0,0.0,3.3388,3.3737,3.4531,0.0,0.0,0.0,3.566,0.0,3.4906,3.4321,3.3398,3.3167,3.2829,3.2398,3.2398,3.2398,3.2398,3.2398,3.2644,0.0,0.0,0.0,0.0,0.0,3.2998,3.2398,0.0,0.0,3.2949,3.2949,3.3161,0.0,3.3665,3.4165,3.4743,3.4804,3.5268,3.5807,3.5645,3.5994,0.0,0.0,0.0,3.7872,3.9459,0.0,0.0,0.0,0.0,0.0,0.0,0.0,0.0,0.0,0.0,0.0,0.0,0.0,0.0,0.0,0.0,0.0,0.0,0.0,0.0,0.0,0.0,0.0,0.0,0.0,0.0,0.0,4.0733,4.0767,4.0491,4.0474,4.0233,3.9698,3.9002,3.8442,3.7984,3.7307,3.7826,3.9347,3.9172,3.9931,4.1363,4.1408,4.1471,4.1471,4.156,4.2359,4.3553,4.3799,4.4694,4.587,4.6133,4.6172,4.6172,3.0011,0.0,0.0,0.0,0.0,0.0,0.0,0.0,0.0,0.0,3.3983,0.0,3.3136,0.0,3.3136,0.0,3.3398,3.3706,3.4429,3.5106,0.0,3.5476,3.6122,0.0,0.0,0.0,3.4922,3.3783,3.3521,3.3059,3.2398,3.2398,3.2398,3.2398,3.2398,3.2767,3.346,3.4168,3.4614,0.0,0.0,3.3367,0.0,0.0,3.2749,3.3235,0.0,3.3716,3.4036,3.4235,3.4577,3.4927,3.5068,3.5424,3.5773,3.5622,3.6022,3.6581,3.7297,3.7499,0.0,3.912,3.9255,0.0,3.9795,0.0,0.0,0.0,0.0,0.0,0.0,0.0,0.0,0.0,0.0,0.0,0.0,4.1285,0.0,0.0,0.0,0.0,0.0,0.0,0.0,0.0,0.0,0.0,0.0,0.0,4.0888,4.0888,4.0888,4.0491,3.9698,3.9215,3.8656,3.7975,3.7517,3.8018,3.9294,3.9338,4.0043,4.1192,4.1318,4.1318,4.1335,4.1723,4.2625,4.378,4.406,4.4953,4.6073,4.6172,4.6172,4.6172,3.0973,0.0,0.0,0.0,3.2521,0.0,0.0,0.0,3.3429,0.0,3.2921,3.249,3.2444,3.2444,3.2705,3.3352,3.3398,3.3706,3.4429,3.5106,0.0,0.0,3.6122,3.6492,3.6492,0.0,0.0,0.0,3.3798,3.309,3.2398,3.2398,3.2398,3.2398,3.2398,3.2782,3.3506,3.4183,3.486,3.543,3.4783,3.4075,3.3336,3.2746,3.2765,3.3251,3.3767,3.3986,3.4086,3.4577,3.4769,3.488,3.5424,3.5684,3.5773,3.5667,3.5684,3.5943,3.6615,3.6772,3.6958,3.7719,0.0,0.0,0.0,0.0,4.0483,0.0,0.0,0.0,0.0,0.0,0.0,0.0,0.0,0.0,0.0,0.0,0.0,0.0,0.0,0.0,0.0,0.0,0.0,0.0,0.0,0.0,0.0,0.0,4.0957,4.0888,4.0922,4.056,3.9767,3.9681,3.9364,3.8841,3.8772,3.9197,4.0095,4.0068,4.0468,4.1209,4.1209,4.1209,4.1279,4.2079,4.2845,4.3593,4.4394,4.5159,4.5821,4.6073,4.6172,4.6172,3.1749,3.2513,3.3072,0.0,3.2444,3.2913,0.0,0.0,0.0,0.0,3.4368,3.3737,3.3198,3.3136,3.3213,3.3383,3.3398,0.0,0.0,0.0,0.0,3.5476,3.6122,3.6492,3.6492,3.6322,0.0,3.4475,0.0,3.3583,3.2398,3.2398,3.2398,3.2398,3.2398,3.3075,3.4214,3.4398,3.486,3.546,3.5291,3.4491,0.0,0.0,3.348,3.3251,3.3355,3.3665,3.4036,3.4185,3.4529,3.4975,3.5115,3.547,3.5773,3.5773,3.5711,3.5836,3.6569,3.6772,3.7005,3.7904,3.8227,3.8499,0.0,0.0,0.0,0.0,0.0,0.0,0.0,0.0,0.0,0.0,0.0,0.0,0.0,0.0,0.0,4.1423,0.0,0.0,0.0,0.0,0.0,0.0,0.0,0.0,0.0,0.0,0.0,4.0922,4.1405,4.1336,4.0578,3.9439,3.906,3.9451,3.8346,3.8545,3.979,3.9807,4.0222,4.0965,4.1076,4.1123,4.1175,4.205,4.2845,4.3593,4.4492,4.5358,4.6073,4.6073,4.6122,4.6172,3.2249,0.0,0.0,3.3683,0.0,0.0,3.453,0.0,0.0,3.4983,3.4429,0.0,3.3444,3.3136,3.3075,3.3367,3.3398,0.0,3.4429,0.0,0.0,3.5476,3.5845,3.6184,3.6476,3.6199,0.0,3.4475,0.0,3.3444,3.2398,3.2398,3.2398,3.2398,3.2398,3.3167,3.4506,3.5106,3.5568,3.5876,3.5276,0.0,0.0,3.3803,3.353,3.3251,3.3459,3.3869,3.4382,3.4625,3.4975,3.527,3.527,3.5532,3.5773,3.5728,3.5711,3.5768,3.6163,3.6327,3.6542,3.7473,3.7928,3.8401,3.9264,3.9727,4.0086,0.0,0.0,0.0,0.0,0.0,0.0,0.0,0.0,0.0,0.0,0.0,0.0,0.0,4.1078,0.0,0.0,0.0,0.0,0.0,0.0,0.0,0.0,0.0,0.0,4.094,4.194,4.1819,4.0388,3.9853,3.9474,3.9198,3.8698,3.8888,3.9715,4.0043,4.0457,4.0871,4.0982,4.0982,4.1116,4.2272,4.3013,4.3499,4.4709,4.5556,4.6023,4.6023,4.63,4.673,3.2706,0.0,0.0,0.0,0.0,0.0,0.0,3.4621,0.0,3.4414,0.0,3.3275,3.3275,3.2752,3.2628,3.3213,0.0,3.3537,3.4152,3.4291,3.4599,3.5183,3.5383,3.5722,3.6215,3.5737,0.0,0.0,0.0,3.3106,3.2521,3.2428,3.2398,3.2398,3.2398,3.3167,3.4552,3.583,3.6415,3.6384,3.5122,3.4552,3.4438,3.363,3.3277,3.3287,3.3869,3.4382,3.4785,3.5224,3.5424,3.5515,3.5532,3.5622,3.5773,3.5667,3.5728,3.5773,3.5622,3.5711,3.597,3.6695,3.753,3.8403,3.9144,3.9945,4.0577,4.0728,4.0745,4.0745,0.0,0.0,0.0,0.0,0.0,0.0,0.0,0.0,0.0,0.0,0.0,0.0,0.0,0.0,0.0,0.0,0.0,0.0,0.0,0.0,0.0,4.1078,4.2319,0.0,4.0181,0.0,4.0146,3.9043,3.9491,3.975,3.9871,4.056,4.0888,4.0888,4.0991,4.1026,4.1147,4.2681,4.3421,4.3646,4.5061,4.5667,4.5821,4.5922,4.6632,4.7469,3.3381,0.0,0.0,0.0,0.0,3.4299,3.403,3.3693,3.3563,3.3614,3.2998,3.2567,3.2567,3.2459,3.2444,3.2552,3.2567,0.0,0.0,0.0,0.0,3.3767,3.4876,3.5276,3.4845,3.526,3.5153,0.0,0.0,0.0,3.3213,3.2659,3.2398,3.2398,3.2398,3.3167,3.4522,3.5322,0.0,3.6415,3.563,3.4968,3.45,3.4164,3.3688,3.3339,3.4317,3.4431,3.4136,3.4235,3.4577,3.4975,3.5068,3.5333,3.5667,3.5728,3.5773,3.5773,3.5622,3.58,3.601,3.6146,3.6761,3.7586,3.8522,3.9233,3.9907,4.0703,4.0871,4.0888,4.0888,0.0,0.0,0.0,0.0,0.0,0.0,0.0,0.0,0.0,0.0,4.0267,0.0,0.0,0.0,0.0,0.0,0.0,0.0,0.0,0.0,0.0,4.2061,0.0,0.0,0.0,4.0405,4.1371,4.0233,4.0043,4.0681,4.0819,4.0888,4.0905,4.1526,4.1785,4.1923,4.344,4.456,4.52,4.5477,4.5667,4.5821,4.5821,4.676,4.791,0.0,0.0,0.0,0.0,0.0,0.0,0.0,3.3495,0.0,3.3398,3.3121,3.2921,3.2921,3.2613,3.2398,3.2398,3.2398,3.2398,3.2398,3.269,3.3044,3.3383,3.4044,0.0,3.4983,3.4614,3.4599,3.4999,0.0,0.0,3.3952,3.3629,3.3475,3.349,3.3844,3.4368,0.0,0.0,0.0,3.643,3.5753,3.5076,3.45,3.4619,3.4206,3.3767,3.4816,3.5021,3.4833,3.4833,3.5021,3.5224,3.527,3.5424,3.5622,3.5667,3.5684,3.5667,3.5622,3.5756,3.599,3.6471,3.7182,3.8008,3.8946,3.9721,4.0375,4.0802,4.0888,4.0888,4.0888,4.0888,0.0,0.0,0.0,0.0,0.0,0.0,0.0,0.0,0.0,0.0,0.0,0.0,0.0,0.0,0.0,0.0,0.0,0.0,0.0,0.0,0.0,0.0,0.0,0.0,0.0,4.1974,4.0853,4.0716,4.1457,4.1457,4.1681,4.2127,4.244,4.2595,4.2681,4.382,4.4785,4.5528,4.5563,4.5632,4.5788,4.6239,4.7143,4.8048,0.0,3.5609,0.0,0.0,3.5048,0.0,3.397,3.3495,3.3196,3.3213,3.3183,3.3183,3.3183,3.2721,3.2398,3.2398,3.2398,3.2398,3.2398,3.2398,3.2628,3.3167,3.3321,3.3921,3.5014,3.3967,3.4014,0.0,0.0,0.0,0.0,3.4475,3.4475,0.0,0.0,0.0,0.0,0.0,3.6368,3.643,3.5753,3.5272,3.4934,3.515,3.501,3.4774,3.5572,3.5876,3.5842,3.5673,3.5622,3.5622,3.5622,3.5622,3.5622,3.5622,3.5622,3.5622,3.5622,3.5711,3.6041,3.6683,3.7518,3.8356,3.9094,3.9957,4.0629,4.0629,4.0629,4.0629,4.0629,4.0629,0.0,0.0,0.0,0.0,0.0,0.0,0.0,0.0,0.0,0.0,4.2092,0.0,0.0,0.0,0.0,0.0,0.0,0.0,0.0,0.0,0.0,4.3923,4.3647,0.0,4.299,0.0,4.1716,4.1664,4.225,4.225,4.2578,4.3232,4.3387,4.3492,4.3699,4.4285,4.4889,4.5423,4.5528,4.5684,4.5909,4.6638,4.7472,4.8236,0.0,0.0,0.0,0.0,0.0,0.0,3.4001,3.3511,3.3027,3.2567,3.249,3.249,3.249,3.2428,3.2398,3.2398,3.2398,3.2398,3.2398,3.2398,3.2428,3.249,3.3075,3.346,3.3598,3.3475,3.3783,0.0,0.0,0.0,0.0,0.0,0.0,0.0,0.0,0.0,0.0,3.5553,3.5938,3.643,3.5753,3.5789,3.62,3.6136,3.6375,3.6821,3.6703,3.6671,3.6569,3.5859,3.5622,3.5622,3.5622,3.5622,3.5622,3.5622,3.5684,3.5773,3.5622,3.5905,3.614,3.6104,3.6764,3.7435,3.768,3.8694,3.9679,3.9819,3.9802,3.9802,3.9802,3.9802,3.9802,0.0,0.0,0.0,0.0,0.0,0.0,3.9888,0.0,0.0,0.0,4.0215,0.0,0.0,0.0,0.0,0.0,0.0,0.0,4.3111,0.0,4.3906,4.5199,4.3854,0.0,4.4061,4.337,4.3042,4.3111,4.3111,4.3145,4.3266,4.3889,4.4578,4.5216,4.5285,4.5354,4.5423,4.5423,4.5855,4.651,4.6579,4.751,4.8774,0.0,0.0,0.0,0.0,0.0,0.0,0.0,3.406,3.3508,3.3034,3.2644,3.2398,3.2398,3.2398,3.2398,3.2398,3.2398,3.2398,3.2398,3.2398,3.2398,3.2398,3.2659,3.3198,3.4029,3.3629,3.3952,0.0,0.0,0.0,0.0,0.0,0.0,0.0,0.0,3.583,3.6091,3.6091,3.6245,3.6538,3.6596,3.6519,3.6457,3.708,3.7263,3.712,3.736,3.7449,3.733,3.6569,3.6011,3.5622,3.5622,3.5622,3.5622,3.5622,3.5622,3.5667,3.5622,3.5773,3.5949,3.5975,3.6644,3.7342,3.7473,3.8584,3.9531,3.9129,3.9026,3.9026,3.9026,3.9388,3.9698,0.0,0.0,0.0,0.0,0.0,0.0,0.0,0.0,3.9629,0.0,0.0,0.0,0.0,0.0,0.0,0.0,0.0,0.0,4.387,0.0,4.3906,4.5406,4.4371,4.3992,4.4268,4.3577,4.3456,4.3837,4.3837,4.4078,4.4544,4.4837,4.5147,4.5423,4.5423,4.5423,4.5475,4.5958,4.6337,4.6717,4.7596,4.8303,4.889,3.5235,0.0,3.5669,0.0,3.5015,3.4751,3.4486,3.4212,3.3829,3.3172,3.269,3.2398,3.2398,3.2398,3.2398,3.2398,3.2398,3.2398,3.2398,3.2398,3.2398,3.2398,3.2398,0.0,3.4137,3.346,3.369,3.4876,3.5091,0.0,0.0,0.0,0.0,0.0,3.6492,3.6492,3.6492,3.6492,3.6492,3.6554,3.6952,3.7058,3.7061,3.7878,3.8112,3.797,3.8149,3.8227,3.8075,3.711,3.6417,3.5926,3.569,3.5622,3.5622,3.5622,3.5622,3.5622,3.5667,3.5773,3.5905,3.6036,3.656,3.7025,3.7146,3.8129,3.8957,3.8646,3.8422,3.8267,3.8267,3.8698,3.9112,3.9336,0.0,0.0,0.0,0.0,0.0,0.0,3.9439,3.9508,4.0146,4.0112,0.0,0.0,0.0,0.0,0.0,0.0,0.0,0.0,0.0,0.0,0.0,4.4889,4.4613,4.4613,4.4096,4.4113,4.4613,4.4613,4.4906,4.5423,4.5423,4.5423,4.5423,4.5423,4.5561,4.582,4.6389,4.6872,4.7389,4.8441,4.8976,4.9252,3.4622,3.5564,3.6058,3.4726,3.5123,3.5087,3.3317,3.3663,3.3778,3.2582,3.2398,3.2398,3.2398,3.2398,3.2398,3.2398,3.2398,3.2398,3.2398,3.2398,3.2398,0.0,0.0,3.2721,3.3398,3.2752,3.2736,3.3429,0.0,0.0,3.4506,0.0,3.6492,3.6492,3.6492,3.6492,3.6492,3.6492,3.6492,3.6492,3.6492,3.7222,3.8278,3.8262,3.9049,3.9952,3.9242,3.8988,3.8751,3.728,3.6772,3.6637,3.5859,3.5622,3.5622,3.5622,3.5622,3.5622,3.5773,3.5905,3.6019,3.6165,3.6251,3.6318,3.6318,3.6939,3.7715,3.8439,3.8008,3.7491,3.7491,3.7508,3.7749,3.8474,0.0,0.0,0.0,0.0,0.0,0.0,4.0388,4.0267,3.8767,3.9991,0.0,0.0,0.0,0.0,0.0,0.0,0.0,4.3266,4.463,0.0,4.5423,4.5406,4.5406,4.5406,4.5406,4.5406,4.5406,4.5406,4.5406,4.5423,4.5423,4.5423,4.5423,4.5423,4.5889,4.6596,4.6613,4.751,4.8803,4.8821,4.9321,4.9993,3.4517,3.5205,3.5684,3.525,3.5404,3.5307,3.4516,3.4972,3.4866,3.3264,3.3506,3.3444,3.249,3.2398,3.2398,0.0,3.2398,3.2398,0.0,3.2398,3.2398,3.2398,3.2398,3.2705,3.3398,3.3183,3.3183,3.3398,0.0,0.0,0.0,3.6292,3.6492,3.6492,3.6492,3.6492,3.6492,3.6492,3.6492,3.6554,3.6952,3.7342,3.7796,3.8574,3.9135,3.9506,3.9699,3.9732,3.9512,3.8041,3.755,3.7313,3.6028,3.5622,3.5622,3.5728,3.5728,3.5773,3.5888,3.6019,3.6122,3.6182,3.6233,3.6301,3.6301,3.649,3.6887,3.768,3.7215,3.668,3.668,3.7129,3.756,3.7801,3.8888,0.0,0.0,0.0,0.0,0.0,3.9922,3.9888,0.0,3.9784,0.0,0.0,0.0,0.0,0.0,0.0,0.0,0.0,4.4389,0.0,4.5423,4.5423,4.5423,4.5423,4.5423,4.5423,4.5423,4.5423,4.5423,4.5423,4.5423,4.5734,4.6234,4.6234,4.6682,4.7424,4.7924,4.8407,4.889,4.9441,4.9786,5.0011,3.4098,3.4861,3.5355,3.4846,3.503,3.4916,3.4046,3.4486,3.4485,3.3172,3.3413,3.346,3.2844,3.2552,0.0,3.2398,3.2398,3.2398,3.2398,3.2398,3.2398,3.2398,3.2398,3.2598,3.3013,0.0,0.0,3.3013,3.4414,3.5584,3.6492,3.6492,3.6492,3.6492,3.6492,3.6492,3.6492,3.6492,3.6492,3.6554,3.6892,3.7178,3.7535,3.8463,3.8974,3.9259,3.985,4.007,3.9901,3.8717,3.8125,3.7736,3.6789,3.6079,3.5622,3.5711,3.5773,3.5817,3.5975,3.6122,3.6225,3.6251,3.6276,3.6301,3.6301,3.6301,3.6439,3.6939,3.6646,3.6301,3.6301,3.6715,3.7129,3.7439,3.8491,3.937,3.9664,0.0,0.0,0.0,0.0,0.0,0.0,4.0146,0.0,0.0,0.0,0.0,0.0,0.0,0.0,4.4285,4.4561,0.0,4.5423,4.5423,4.5423,4.5423,4.5423,4.5423,4.5423,4.5423,4.5423,4.5441,4.5734,4.6148,4.6631,4.6906,4.7458,4.8183,4.8648,4.8993,4.9321,4.9821,5.0011,5.0011,3.3499,3.4577,0.0,0.0,3.4282,0.0,3.2497,3.2871,3.3181,3.2567,3.2552,3.2813,3.3336,3.289,3.2536,3.2536,0.0,0.0,0.0,3.2398,3.2398,3.2398,3.2398,3.2398,3.2398,3.2398,3.2413,3.2459,3.3767,3.5091,3.6415,3.6415,3.6445,3.6492,3.6492,3.6492,3.6492,3.6492,3.6492,3.6492,3.6554,3.6892,3.746,3.8124,3.8684,3.9259,3.985,4.007,3.9969,3.9242,3.8531,3.7973,3.7922,3.6924,3.5774,3.5707,3.5762,3.5861,3.5975,3.6122,3.6208,3.6259,3.6301,3.6301,3.6301,3.6301,3.6301,3.6301,3.6301,3.6301,3.6301,3.6301,3.6559,3.7353,3.8112,3.8853,3.9595,0.0,0.0,0.0,0.0,0.0,0.0,4.0888,4.0922,0.0,0.0,0.0,0.0,0.0,4.5061,4.4302,4.5027,4.5423,4.5423,4.5423,4.5423,4.5423,4.5492,4.5422,4.5423,4.5492,4.551,4.5544,4.6286,4.6665,4.682,4.751,4.8234,4.8907,4.8907,4.9355,5.0011,5.0011,5.0011,5.0011,0.0,0.0,3.54,3.5085,3.516,3.5063,3.4364,3.4896,3.482,3.3326,3.4091,3.4414,3.3506,3.3752,3.3983,3.3983,3.3013,3.2398,3.2398,3.2398,3.2398,3.2398,3.2398,3.2398,3.2398,3.2398,3.2644,3.3167,3.349,3.4368,3.5722,3.5722,3.5999,3.6492,3.6492,3.6492,3.6492,3.6492,3.6492,3.6554,3.7013,3.7298,3.7519,3.859,3.9082,3.9259,3.985,4.007,3.9969,3.9242,3.887,3.8633,3.8091,3.7652,3.7246,3.6729,3.6287,3.5975,3.6122,3.6191,3.6259,3.6301,3.6301,3.6301,3.6301,3.6301,3.6301,3.6301,3.6301,3.6301,3.6301,3.6301,3.6559,3.7353,3.8112,3.8853,3.9595,4.0388,0.0,0.0,4.0888,4.0888,4.0888,4.0888,4.1371,0.0,0.0,0.0,0.0,4.513,4.5061,4.4302,4.5027,4.5423,4.5423,4.5423,4.5423,4.5441,4.6044,4.601,4.5441,4.6061,4.6337,4.6337,4.6527,4.7251,4.8303,4.8493,4.9028,4.9735,4.9735,4.9838,5.0011,5.0011,5.0011,5.0011,3.3888,3.4786,3.54,3.51,3.5168,3.5133,3.4638,3.4958,3.4972,3.4044,3.4552,3.486,3.4398,3.4429,3.4599,3.4906,3.3967,3.3336,3.3336,3.3336,3.3336,3.3336,3.3336,3.3336,3.3336,3.3336,3.3521,3.3891,3.3567,3.3952,3.5014,3.5014,3.5214,3.5568,3.5568,3.5737,3.603,3.603,3.6215,3.6554,3.7178,3.7417,3.7519,3.8756,3.9206,3.9259,3.985,4.007,4.002,3.9631,3.9276,3.892,3.8531,3.7939,3.7313,3.6966,3.6633,3.6376,3.6165,3.6208,3.6276,3.6301,3.6301,3.6301,3.6301,3.6301,3.6301,3.6301,3.6301,3.6301,3.6301,3.6301,3.6559,3.7353,3.8112,3.8853,3.9595,4.0388,0.0,4.1336,4.1388,4.1526,4.1937,4.1857,4.2135,4.2978,0.0,0.0,4.4662,4.5075,4.5164,4.482,4.5199,4.5423,4.5423,4.5423,4.5596,4.5975,4.6406,4.6562,4.6493,4.6906,4.7113,4.7131,4.7476,4.8079,4.8855,4.9217,4.9614,5.0011,5.0011,5.0011,5.0011,5.0011,5.0011,5.0011,3.4367,3.504,3.5325,3.479,3.4936,3.4926,3.4425,3.4589,3.4737,3.4645,3.4722,3.4953,3.543,3.506,3.5014,3.5584,3.5106,3.4691,3.4491,3.4475,3.4475,3.4475,3.4475,3.4475,3.4475,3.4475,3.4429,3.4306,3.3706,3.3706,3.4306,3.4306,3.4368,3.4475,3.4583,3.4953,3.5491,3.5599,3.5968,3.6554,3.7178,3.746,3.7637,3.8756,3.9259,3.9418,3.9918,4.007,4.007,4.007,3.9665,3.914,3.9039,3.8125,3.7077,3.6857,3.6847,3.6752,3.618,3.6122,3.6251,3.6301,3.6301,3.6301,3.6301,3.6301,3.6301,3.6301,3.6301,3.6335,3.6456,3.6473,3.6818,3.7836,3.8422,3.906,3.9922,0.0,4.1285,4.1905,4.2078,4.2423,4.3095,4.2979,4.2945,4.3014,4.3561,4.3936,0.0,4.4797,4.5247,4.5371,4.5371,4.5423,4.5423,4.5423,4.582,4.6613,4.6717,4.7096,4.7717,4.7838,4.7889,4.7924,4.8545,4.889,4.9045,4.9735,5.0011,5.0011,5.0011,5.0011,5.0011,5.0011,5.0011,5.0011,3.4457,3.504,3.5524,3.5503,3.5537,3.5634,3.5843,3.589,3.5753,3.5399,3.583,3.5999,3.5537,3.5891,3.6215,3.6322,3.6245,3.5691,3.4552,3.4475,3.4475,3.4475,3.4475,3.4475,3.4475,3.4475,3.4168,3.3567,3.346,3.346,3.3567,3.3567,3.3891,3.4491,3.5076,3.5383,3.5522,3.6091,3.6384,3.6554,3.7178,3.7679,3.8238,3.892,3.954,3.9969,4.007,4.007,4.007,4.007,4.0003,3.98,3.9191,3.8836,3.8396,3.7144,3.6818,3.6695,3.6137,3.6148,3.6301,3.6301,3.6301,3.6301,3.6301,3.6301,3.6301,3.6301,3.6301,3.6508,3.718,3.7301,3.7974,4.0026,3.9888,4.0008,4.1423,0.0,4.1756,4.1974,4.2444,4.2824,4.2944,4.2911,4.3134,4.3698,4.3816,4.4158,4.479,4.5072,4.5194,4.523,4.5371,4.5423,4.5423,4.5423,4.582,4.6613,4.7234,4.7596,4.7734,4.8372,4.8648,4.8665,4.8769,4.92,4.9821,4.9959,5.0011,5.0011,5.0011,5.0011,5.0011,5.0011,5.0011,5.0011,3.5048,3.5379,3.5653,3.5831,3.5958,3.6006,3.6211,3.6274,3.6306,3.6076,3.6307,3.6507,3.6569,3.6522,3.6645,3.7015,3.6707,3.6384,3.6122,3.5768,3.5568,3.5568,3.5568,3.5568,3.5568,3.5199,3.486,3.4522,3.4152,3.3783,3.3398,3.3398,3.3583,3.3906,3.4229,3.4783,3.5507,3.5814,3.6153,3.66,3.7504,3.8067,3.839,3.9348,3.9867,4.002,3.9631,3.9495,3.9428,3.9039,3.8903,3.8785,3.8041,3.7804,3.7584,3.6485,3.6254,3.6304,3.6078,3.6148,3.6301,3.6301,3.6301,3.6301,3.6301,3.6301,3.6301,3.6301,3.6628,3.7042,3.7422,3.8129,3.9163,4.0647,4.0905,0.0,0.0,4.2513,4.2413,4.253,4.3083,4.3442,4.3442,4.3749,4.4036,4.4357,4.4337,4.4436,4.4759,4.4978,4.5086,4.5086,4.53,4.563,4.6061,4.5648,4.6217,4.7803,4.7751,4.8148,4.8959,4.9304,4.9459,4.9459,4.9459,4.9666,5.0011,5.0011,5.0011,5.0011,5.0011,5.0011,5.0011,5.0011,5.0011,5.0011,3.5661,3.5752,3.5752,3.6037,3.6148,3.6211,3.6274,3.6414,3.6553,3.6707,3.6722,3.6984,3.7661,3.7277,3.7169,3.7692,3.7261,3.7184,3.7707,3.7246,3.6892,3.6738,3.6569,3.6569,3.6722,3.6061,3.5645,3.5476,3.4968,3.4337,3.366,3.366,3.366,3.366,3.3814,3.4475,3.5491,3.5645,3.6014,3.66,3.7679,3.8084,3.8179,3.9404,3.9868,3.9766,3.9394,3.9242,3.914,3.8396,3.8278,3.8244,3.733,3.7161,3.711,3.6163,3.6027,3.6198,3.607,3.6148,3.6259,3.6301,3.6301,3.6353,3.6542,3.6577,3.6628,3.6801,3.7456,3.7991,3.7991,3.9215,4.0491,4.1285,0.0,0.0,0.0,4.3186,4.3083,4.3186,4.3732,4.4087,4.4087,4.4562,4.4793,4.4737,4.4682,4.4587,4.4587,4.4831,4.4978,4.5032,4.5264,4.5803,4.6596,4.601,4.6751,4.8821,4.8252,4.8683,5.0011,5.0011,5.0011,5.0011,5.0011,5.0011,5.0011,5.0011,5.0011,5.0011,5.0011,5.0011,5.0011,5.0011,5.0011,5.0011,3.591,3.5831,3.5816,3.6148,3.6196,3.6274,3.6429,3.6492,3.6722,3.7338,3.743,3.7692,3.8354,3.8385,3.8385,3.8431,3.8385,3.8385,3.8431,3.8385,3.8077,3.7446,3.683,3.6784,3.7415,3.6769,3.6107,3.5476,3.543,3.506,3.4398,3.4398,3.4398,3.4429,3.5045,3.5383,3.5522,3.6153,3.6445,3.6554,3.7178,3.7412,3.7459,3.878,3.9174,3.9157,3.9766,4.0003,3.9884,3.9157,3.936,3.9681,3.8261,3.8294,3.8548,3.711,3.6763,3.6729,3.6311,3.6225,3.6208,3.6259,3.6301,3.649,3.7232,3.7404,3.7594,3.8284,3.9008,3.9526,3.9526,4.0784,4.2078,4.2921,0.0,0.0,4.3941,4.3765,4.3605,4.3799,4.4357,4.4746,4.4746,4.4742,4.4737,4.4626,4.4643,4.4587,4.4587,4.4737,4.494,4.5194,4.53,4.5803,4.6596,4.6544,4.7286,4.8821,4.8769,4.9183,5.0011,5.0011,5.0011,5.0011,5.0011,5.0011,5.0011,5.0011,5.0011,5.0011,5.0011,5.0011,5.0011,5.0011,5.0011,5.0011,3.6709,3.6359,3.6344,3.7456,3.7256,3.7182,3.7677,3.7384,3.7215,3.7461,3.7507,3.7754,3.8431,3.8508,3.8677,3.9093,3.8754,3.8692,3.9108,3.8739,3.82,3.7523,3.7261,3.7046,3.6876,3.6615,3.6368,3.6107,3.6107,3.5768,3.5106,3.5106,3.5106,3.5106,3.5368,3.5707,3.6122,3.6384,3.6492,3.6554,3.7178,3.7578,3.7978,3.8859,3.9408,3.9648,3.9462,3.9411,3.9292,3.8565,3.8497,3.8633,3.8091,3.8091,3.821,3.7652,3.7513,3.7539,3.7445,3.7511,3.7573,3.76,3.7671,3.7801,3.8094,3.8163,3.8249,3.8525,3.9577,4.0422,4.0422,4.2061,4.3509,4.3802,0.0,4.4421,4.473,4.4551,4.4218,4.3846,4.4279,4.4495,4.4003,4.4393,4.4626,4.457,4.4587,4.4587,4.4587,4.5179,4.564,4.5863,4.6416,4.6883,4.7286,4.7286,4.8062,4.9545,4.9062,4.9235,5.0011,5.0011,5.0011,5.0011,5.0011,5.0011,5.0011,5.0011,5.0011,5.0011,5.0011,5.0011,5.0011,5.0011,5.0011,5.0011,3.722,3.7085,3.7208,3.8288,3.8123,3.7984,3.8431,3.8123,3.7892,3.8108,3.8138,3.8385,3.9062,3.9139,3.9323,3.9801,3.94,3.9339,3.9801,3.94,3.8846,3.8169,3.7938,3.7707,3.7446,3.703,3.6799,3.6799,3.6599,3.6245,3.5799,3.5799,3.5799,3.5799,3.5799,3.6061,3.6492,3.6492,3.6492,3.6554,3.7178,3.761,3.8042,3.8891,3.9441,3.9698,3.9428,3.9343,3.9225,3.8481,3.8396,3.8548,3.8328,3.8261,3.8294,3.8514,3.843,3.8343,3.8738,3.8978,3.8968,3.858,3.855,3.8646,3.8888,3.8939,3.9008,3.925,4.0526,4.1526,4.1267,4.3095,4.4561,4.4268,4.4749,4.514,4.5086,4.4886,4.455,4.4041,4.4321,4.4367,4.3842,4.4485,4.484,4.4604,4.501,4.528,4.528,4.5869,4.6294,4.658,4.7369,4.7854,4.8062,4.8062,4.8717,4.9993,4.9459,4.9597,5.0355,5.0355,5.0355,5.0355,5.0355,5.0218,5.0011,5.0011,5.0011,5.0011,5.0011,4.9987,5.0021,5.0021,5.0021,5.0021,3.7443,3.7931,3.8341,3.8457,3.8523,3.8523,3.8523,3.8523,3.8769,3.9431,3.9524,3.977,4.0447,4.0524,4.0524,4.0524,4.0524,4.0524,4.0524,4.0524,4.0232,3.9554,3.8877,3.8831,3.9493,3.82,3.7507,3.7507,3.683,3.6507,3.6507,3.6507,3.6492,3.6492,3.6492,3.6492,3.6492,3.6492,3.6492,3.6554,3.7118,3.7339,3.7339,3.871,3.9089,3.9089,3.9817,4.007,3.9969,3.9242,3.9478,3.9952,3.9225,3.9005,3.914,3.9868,3.958,3.9223,4.0051,4.0404,4.0223,3.8946,3.8612,3.8801,3.956,3.9715,3.9939,4.0733,4.2112,4.299,4.2147,4.3871,4.5129,4.4268,4.4607,4.4923,4.4831,4.4682,4.4587,4.4587,4.4587,4.4587,4.4587,4.5263,4.5382,4.4637,4.5957,4.6786,4.6786,4.6802,4.6903,4.7216,4.7984,4.8569,4.8838,4.8838,4.9235,5.0011,5.0011,5.039,5.1114,5.1114,5.1114,5.1114,5.1114,5.0683,5.0011,5.0011,5.0011,5.0011,5.0011,4.9997,5.0017,5.0051,5.0051,5.0051,3.8749,3.8626,3.8749,3.9754,3.9524,3.9385,3.9862,3.9524,3.9293,3.9493,3.9524,3.9601,3.9801,4.0247,4.0524,4.0524,4.0524,4.0524,4.0524,4.0524,4.0432,4.0232,3.9585,3.9093,3.8816,3.8415,3.82,3.82,3.8,3.7661,3.72,3.72,3.6953,3.6492,3.6492,3.6492,3.6492,3.6492,3.6492,3.6492,3.6723,3.7008,3.7409,3.7774,3.8181,3.8607,3.9229,3.947,3.9489,3.9716,3.9901,4.0037,3.9817,3.9749,3.98,4.002,4.0307,4.0646,4.0968,4.1103,4.1102,4.0903,4.0548,4.0526,4.1836,4.1698,4.1526,4.2319,4.3268,4.3922,4.363,4.4596,4.5284,4.4955,4.4932,4.4923,4.4831,4.4682,4.4587,4.4587,4.4587,4.4587,4.4587,4.479,4.5043,4.5348,4.6244,4.6786,4.6786,4.7293,4.77,4.8036,4.877,4.934,4.9648,4.9648,4.9769,5.0011,5.0011,5.039,5.1114,5.1114,5.1114,5.1114,5.1114,5.0683,5.0011,5.0011,5.0011,5.0011,5.0011,4.997,5.0245,5.2379,5.313,5.2816,3.9364,3.94,3.957,4.0385,4.0185,4.0062,4.0462,4.0185,3.9924,3.9924,3.9924,3.9924,3.9924,4.0293,4.0524,4.0524,4.0524,4.0524,4.0524,4.0524,4.0524,4.0524,4.0139,3.9724,3.9323,3.9046,3.8908,3.8908,3.8646,3.8292,3.7908,3.7908,3.7677,3.7292,3.7292,3.7292,3.7292,3.7292,3.7292,3.7261,3.6999,3.7235,3.7796,3.7512,3.7972,3.8724,3.9073,3.9388,3.964,4.0019,4.0273,4.0578,4.0865,4.095,4.095,4.095,4.1288,4.1679,4.1783,4.1852,4.1954,4.2484,4.1965,4.1598,4.2888,4.2802,4.2595,4.3011,4.37,4.4182,4.413,4.4749,4.5211,4.5086,4.4978,4.4886,4.4737,4.4626,4.4688,4.4993,4.5026,4.5145,4.5432,4.572,4.621,4.6955,4.7158,4.7361,4.7648,4.8105,4.8463,4.8821,4.9248,4.9683,5.0011,5.0011,5.0011,5.0011,5.0304,5.0838,5.1563,5.1778,5.1718,5.1563,5.1563,5.0934,4.9997,4.9997,4.9997,4.998,4.997,4.9987,5.0245,5.207,5.3495,5.4091,3.9601,4.0108,4.0524,4.0524,4.0524,4.0555,4.0616,4.057,4.0555,4.0616,4.057,4.0524,4.0524,4.0524,4.0524,4.0524,4.0524,4.0524,4.0524,4.0524,4.0524,4.0524,4.0524,4.0524,4.0524,3.9924,3.9616,3.9616,3.8985,3.8662,3.86,3.86,3.8569,3.8508,3.8508,3.8508,3.8508,3.8508,3.8508,3.8462,3.7846,3.795,3.8353,3.7723,3.8209,3.9231,3.9155,3.9589,4.0227,4.0288,4.073,4.1424,4.2083,4.2286,4.2286,4.2286,4.2337,4.2441,4.2564,4.2564,4.2804,4.3746,4.2997,4.2207,4.3149,4.332,4.3235,4.31,4.3683,4.4129,4.404,4.4534,4.494,4.4831,4.4776,4.4754,4.4727,4.4621,4.4891,4.5703,4.5737,4.5991,4.6718,4.7479,4.8189,4.8849,4.8359,4.8308,4.8968,4.9001,4.9185,4.9488,4.9616,4.9786,5.0114,5.0131,5.0114,5.0045,5.0659,5.1442,5.2235,5.2736,5.2641,5.2218,5.2201,5.1339,5.0017,5.0,5.0,4.9983,5.0021,4.9997,4.9992,4.9983,5.189,5.4105,4.0201,4.0432,4.0524,4.0524,4.0524,4.0709,4.1278,4.0893,4.0724,4.1294,4.0878,4.0524,4.0524,4.0524,4.0524,4.0524,4.0524,4.0524,4.0524,4.0524,4.0524,4.0524,4.0524,4.0524,4.0524,4.0385,4.0309,4.0309,4.017,3.9816,3.9293,3.9293,3.9016,3.8508,3.8508,3.8508,3.8508,3.8508,3.8508,3.8492,3.8354,3.8342,3.8456,3.8317,3.8461,3.8668,3.8581,3.9355,4.0524,4.151,4.1914,4.2083,4.2236,4.2286,4.2286,4.2286,4.2709,4.3183,4.3183,4.3166,4.3423,4.4351,4.3966,4.3541,4.4382,4.425,4.4009,4.447,4.4673,4.4793,4.4739,4.4875,4.494,4.4831,4.4776,4.4924,4.5382,4.4942,4.5077,4.6397,4.6058,4.5991,4.6718,4.7479,4.7986,4.8139,4.8545,4.8832,4.9001,4.9107,4.9229,4.9488,5.0189,5.0695,5.0873,5.1047,5.0763,5.0025,5.0196,5.0944,5.2218,5.2304,5.2304,5.2218,5.22,5.1356,5.0017,4.9997,5.0004,5.0004,4.999,4.9983,4.9992,4.9998,5.1915,5.4409,4.0462,4.0524,4.0524,4.0524,4.0816,4.117,4.154,4.1278,4.117,4.1555,4.097,4.0524,4.0524,4.0524,4.0524,4.0524,4.0524,4.0524,4.0524,4.0524,4.0524,4.0524,4.0524,4.0524,4.0524,4.0524,4.0524,4.0524,4.0524,4.0355,4.0001,4.0001,3.9816,3.9462,3.9462,3.9462,3.9462,3.9462,3.9462,3.9447,3.9123,3.8985,3.8954,3.8631,3.8708,3.8959,3.8937,3.9734,4.105,4.2349,4.2828,4.2895,4.3267,4.3386,4.3386,4.3386,4.3656,4.3978,4.3978,4.3978,4.4062,4.458,4.4449,4.4354,4.4892,4.4741,4.4624,4.4855,4.4869,4.4886,4.4831,4.5082,4.532,4.5207,4.5513,4.5869,4.616,4.5872,4.6058,4.7192,4.6989,4.7056,4.7784,4.8206,4.8443,4.8443,4.8781,4.9154,4.9509,4.965,5.0005,5.053,5.1141,5.1382,5.1253,5.1632,5.1218,5.0034,5.0686,5.1424,5.2234,5.2925,5.2891,5.2234,5.2978,5.2019,5.0017,5.0026,5.0017,5.0017,5.0017,5.0883,5.2156,5.2121,5.3139,5.452,4.0524,4.0524,4.057,4.0693,4.1201,4.1678,4.1909,4.174,4.1632,4.1755,4.1047,4.0524,4.0524,4.0524,4.0524,4.0524,4.0524,4.0586,4.0709,4.0601,4.0632,4.0878,4.077,4.0709,4.0709,4.0709,4.0647,4.0524,4.0524,4.0524,4.0524,4.0524,4.0524,4.0524,4.0524,4.0524,4.0524,4.0524,4.0524,4.0478,3.9924,3.9693,3.9631,3.9062,3.92,3.9653,3.945,4.0276,4.1584,4.3115,4.3623,4.3724,4.4367,4.4587,4.4587,4.4587,4.4587,4.4587,4.4587,4.4587,4.4587,4.4587,4.4682,4.4776,4.4886,4.4923,4.494,4.4776,4.4793,4.4771,4.4795,4.528,4.5737,4.5872,4.6397,4.6836,4.6972,4.687,4.7124,4.8003,4.8105,4.8392,4.912,4.9069,4.9103,4.9373,4.9272,4.9509,5.0253,5.0493,5.0969,5.1708,5.2015,5.2052,5.1743,5.2312,5.1957,5.0799,5.2004,5.2619,5.2619,5.3929,5.378,5.2637,5.3912,5.307,5.0748,5.0762,5.0454,5.0017,4.9975,5.1812,5.4528,5.4522,5.4482,5.4512,4.0524,4.0524,4.0724,4.134,4.1524,4.1986,4.3125,4.234,4.1817,4.2402,4.134,4.0524,4.0524,4.0524,4.0524,4.0524,4.0524,4.0786,4.1417,4.0878,4.1063,4.2279,4.1771,4.1447,4.1447,4.1447,4.1155,4.0524,4.0524,4.0524,4.0524,4.0524,4.0524,4.0524,4.0524,4.0524,4.0524,4.0524,4.0524,4.0524,4.0432,4.0385,4.037,4.0293,4.0309,4.0293,3.9683,4.034,4.1798,4.3776,4.4418,4.4451,4.4553,4.4587,4.4587,4.4587,4.4587,4.4587,4.4587,4.4587,4.4587,4.4587,4.4626,4.4626,4.4626,4.472,4.4776,4.4626,4.4643,4.4829,4.5432,4.5635,4.5906,4.6549,4.6718,4.7022,4.7682,4.7208,4.731,4.8697,4.8849,4.9137,4.9864,4.9373,4.9543,5.0828,5.0304,5.027,5.1014,5.132,5.156,5.1725,5.2454,5.2819,5.2785,5.369,5.4069,5.3868,5.4086,5.4167,5.4216,5.4371,5.4371,5.4198,5.4417,5.4269,5.3894,5.3923,5.2339,4.9991,4.9988,5.1846,5.4504,5.4512,5.4482,5.4512,4.1047,4.1124,4.1355,4.2048,4.2171,4.2355,4.294,4.2217,4.1709,4.2001,4.1155,4.0524,4.0524,4.0524,4.0524,4.0524,4.0893,4.1263,4.1571,4.1663,4.1971,4.2586,4.2325,4.2171,4.2171,4.1786,4.1447,4.1124,4.0724,4.0524,4.0524,4.0524,4.0524,4.0524,4.0524,4.0524,4.0524,4.0524,4.0524,4.0524,4.0524,4.0524,4.0524,4.0524,4.0524,4.0547,4.0981,4.1802,4.2845,4.4135,4.4587,4.4587,4.4587,4.4587,4.4587,4.4587,4.4874,4.5213,4.5213,4.5517,4.5821,4.5821,4.5821,4.5821,4.5821,4.5862,4.5801,4.528,4.5534,4.5923,4.6244,4.665,4.7056,4.7361,4.7767,4.8139,4.8477,4.824,4.8274,4.8917,4.9001,4.9137,4.9458,4.956,4.9881,5.0541,5.0676,5.1048,5.1792,5.2038,5.2401,5.2887,5.3386,5.3748,5.3828,5.4305,5.4512,5.4512,5.4512,5.4477,5.4534,5.4534,5.4534,5.4516,5.451,5.4527,5.4516,5.4468,5.3731,5.2475,5.2499,5.3356,5.4492,5.4499,5.4506,5.4512]},{"header":{"parameterUnit":"m.s-1","parameterCategory":1,"la1":30.6,"la2":28.766,"lo1":-90.7593,"lo2":-88.6598,"dy":0.0162,"dx":0.0183,"nx":116,"ny":114,"refTime":"2023-10-06T06:00:00:Z","depth":0,"parameterNumber":3,"parameterNumberName":"V-component_of_WINDS"},"data":[0.0,0.0,0.0,0.0,0.0,0.0,0.0,0.0,0.0,0.0,0.0,0.0,0.0,0.0,0.0,0.0,0.0,0.0,0.0,0.0,0.0,0.0,0.0,0.0,0.0,0.0,0.0,0.0,0.0,0.0,0.0,0.0,0.0,0.0,0.0,0.0,0.0,0.0,0.0,0.0,0.0,0.0,0.0,0.0,0.0,0.0,0.0,0.0,0.0,0.0,0.0,0.0,0.0,0.0,0.0,0.0,0.0,0.0,0.0,0.0,0.0,0.0,0.0,0.0,0.0,0.0,0.0,0.0,0.0,0.0,0.0,0.0,0.0,0.0,0.0,0.0,0.0,0.0,0.0,0.0,0.0,0.0,0.0,0.0,0.0,0.0,0.0,0.0,0.0,0.0,0.0,0.0,0.0,0.0,0.0,0.0,0.0,0.0,0.0,0.0,0.0,0.0,0.0,0.0,0.0,0.0,0.0,0.0,0.0,0.0,0.0,0.0,0.0,0.0,0.0,0.0,0.0,0.0,0.0,0.0,0.0,0.0,0.0,0.0,0.0,0.0,0.0,0.0,0.0,0.0,0.0,0.0,0.0,0.0,0.0,0.0,0.0,0.0,0.0,0.0,0.0,0.0,0.0,0.0,0.0,0.0,0.0,0.0,0.0,0.0,0.0,0.0,0.0,0.0,0.0,0.0,0.0,0.0,0.0,0.0,0.0,0.0,0.0,0.0,0.0,0.0,0.0,0.0,0.0,0.0,0.0,0.0,0.0,0.0,0.0,0.0,0.0,0.0,0.0,0.0,0.0,0.0,0.0,0.0,0.0,0.0,0.0,0.0,0.0,0.0,0.0,0.0,0.0,0.0,0.0,0.0,0.0,0.0,0.0,0.0,0.0,0.0,0.0,0.0,0.0,0.0,0.0,0.0,0.0,0.0,0.0,0.0,0.0,0.0,0.0,0.0,0.0,0.0,0.0,0.0,0.0,0.0,0.0,0.0,0.0,0.0,0.0,0.0,0.0,0.0,0.0,0.0,0.0,0.0,0.0,0.0,0.0,0.0,0.0,0.0,0.0,0.0,0.0,0.0,0.0,0.0,0.0,0.0,0.0,0.0,0.0,0.0,0.0,0.0,0.0,0.0,0.0,0.0,0.0,0.0,0.0,0.0,0.0,0.0,0.0,0.0,0.0,0.0,0.0,0.0,0.0,0.0,0.0,0.0,0.0,0.0,0.0,0.0,0.0,0.0,0.0,0.0,0.0,0.0,0.0,0.0,0.0,0.0,0.0,0.0,0.0,0.0,0.0,0.0,0.0,0.0,0.0,0.0,0.0,0.0,0.0,0.0,0.0,0.0,0.0,0.0,0.0,0.0,0.0,0.0,0.0,0.0,0.0,0.0,0.0,0.0,0.0,0.0,0.0,0.0,0.0,0.0,0.0,0.0,0.0,0.0,0.0,0.0,0.0,0.0,0.0,0.0,0.0,0.0,0.0,0.0,0.0,0.0,0.0,0.0,0.0,0.0,0.0,0.0,0.0,0.0,0.0,0.0,0.0,0.0,0.0,0.0,0.0,0.0,0.0,0.0,0.0,0.0,0.0,0.0,0.0,0.0,0.0,0.0,0.0,0.0,0.0,0.0,0.0,0.0,0.0,0.0,0.0,0.0,0.0,0.0,0.0,0.0,0.0,0.0,0.0,0.0,0.0,0.0,0.0,0.0,0.0,0.0,0.0,0.0,0.0,0.0,0.0,0.0,0.0,0.0,0.0,0.0,0.0,0.0,0.0,0.0,0.0,0.0,0.0,0.0,0.0,0.0,0.0,0.0,0.0,0.0,0.0,0.0,0.0,0.0,0.0,0.0,0.0,0.0,0.0,0.0,0.0,0.0,0.0,0.0,0.0,0.0,0.0,0.0,0.0,0.0,0.0,0.0,0.0,0.0,0.0,0.0,0.0,0.0,0.0,0.0,0.0,0.0,0.0,0.0,0.0,0.0,0.0,0.0,0.0,0.0,0.0,0.0,0.0,0.0,0.0,0.0,0.0,0.0,0.0,0.0,0.0,0.0,0.0,0.0,0.0,0.0,0.0,0.0,0.0,0.0,0.0,0.0,0.0,0.0,0.0,0.0,0.0,0.0,0.0,0.0,0.0,0.0,0.0,0.0,0.0,0.0,0.0,0.0,0.0,0.0,0.0,0.0,0.0,0.0,0.0,0.0,0.0,0.0,0.0,0.0,0.0,0.0,0.0,0.0,0.0,0.0,0.0,0.0,0.0,0.0,0.0,0.0,0.0,0.0,0.0,0.0,0.0,0.0,0.0,0.0,0.0,0.0,0.0,0.0,0.0,0.0,0.0,0.0,0.0,0.0,0.0,0.0,0.0,0.0,0.0,0.0,0.0,0.0,0.0,0.0,0.0,0.0,0.0,0.0,0.0,0.0,0.0,0.0,0.0,0.0,0.0,0.0,0.0,0.0,0.0,0.0,0.0,0.0,0.0,0.0,0.0,0.0,0.0,0.0,0.0,0.0,0.0,0.0,0.0,0.0,0.0,0.0,0.0,0.0,0.0,0.0,0.0,0.0,0.0,0.0,0.0,0.0,0.0,0.0,0.0,0.0,0.0,0.0,0.0,0.0,0.0,0.0,0.0,0.0,0.0,0.0,0.0,0.0,0.0,0.0,0.0,0.0,0.0,0.0,0.0,0.0,0.0,0.0,0.0,0.0,0.0,0.0,0.0,0.0,0.0,0.0,0.0,0.0,0.0,0.0,0.0,0.0,0.0,0.0,0.0,0.0,0.0,0.0,0.0,0.0,0.0,0.0,0.0,0.0,0.0,0.0,0.0,0.0,0.0,0.0,0.0,0.0,0.0,0.0,0.0,0.0,0.0,0.0,0.0,0.0,0.0,0.0,0.0,0.0,0.0,0.0,0.0,0.0,0.0,0.0,0.0,0.0,0.0,0.0,0.0,0.0,0.0,0.0,0.0,0.0,0.0,0.0,0.0,0.0,0.0,0.0,0.0,0.0,0.0,0.0,0.0,0.0,0.0,0.0,0.0,0.0,0.0,0.0,0.0,0.0,0.0,0.0,0.0,0.0,0.0,0.0,0.0,0.0,0.0,0.0,0.0,0.0,0.0,0.0,0.0,0.0,0.0,0.0,0.0,0.0,0.0,0.0,0.0,0.0,0.0,0.0,0.0,0.0,0.0,0.0,0.0,0.0,0.0,0.0,0.0,0.0,0.0,0.0,0.0,0.0,0.0,0.0,0.0,0.0,0.0,0.0,0.0,0.0,0.0,0.0,0.0,0.0,0.0,0.0,0.0,0.0,0.0,0.0,0.0,0.0,0.0,0.0,0.0,0.0,0.0,0.0,0.0,0.0,0.0,0.0,0.0,0.0,0.0,0.0,0.0,0.0,0.0,0.0,0.0,0.0,0.0,0.0,0.0,0.0,0.0,0.0,0.0,0.0,0.0,0.0,0.0,0.0,0.0,0.0,0.0,0.0,0.0,0.0,0.0,0.0,0.0,0.0,0.0,0.0,0.0,0.0,0.0,0.0,0.0,0.0,0.0,0.0,0.0,0.0,0.0,0.0,0.0,0.0,0.0,0.0,0.0,0.0,0.0,0.0,0.0,0.0,0.0,0.0,0.0,0.0,0.0,0.0,0.0,0.0,0.0,0.0,0.0,0.0,0.0,0.0,0.0,0.0,0.0,0.0,0.0,0.0,0.0,0.0,0.0,0.0,0.0,0.0,0.0,0.0,0.0,0.0,0.0,0.0,0.0,0.0,0.0,0.0,0.0,0.0,0.0,0.0,0.0,0.0,0.0,0.0,0.0,0.0,0.0,0.0,0.0,0.0,0.0,0.0,0.0,0.0,0.0,0.0,0.0,0.0,0.0,0.0,0.0,0.0,0.0,0.0,0.0,0.0,0.0,0.0,0.0,0.0,0.0,0.0,0.0,0.0,0.0,0.0,0.0,0.0,0.0,0.0,0.0,0.0,0.0,0.0,0.0,0.0,0.0,0.0,0.0,0.0,0.0,0.0,0.0,0.0,0.0,0.0,0.0,0.0,0.0,0.0,0.0,0.0,0.0,0.0,0.0,0.0,0.0,0.0,0.0,0.0,0.0,0.0,0.0,0.0,0.0,0.0,0.0,0.0,0.0,0.0,0.0,0.0,0.0,0.0,0.0,0.0,0.0,0.0,0.0,0.0,0.0,0.0,0.0,0.0,0.0,0.0,0.0,0.0,0.0,0.0,0.0,0.0,0.0,0.0,0.0,0.0,0.0,0.0,0.0,0.0,0.0,0.0,0.0,0.0,0.0,0.0,0.0,0.0,0.0,0.0,0.0,0.0,0.0,0.0,0.0,0.0,0.0,0.0,0.0,0.0,0.0,0.0,0.0,0.0,0.0,0.0,0.0,0.0,0.0,0.0,0.0,0.0,0.0,0.0,0.0,0.0,0.0,0.0,0.0,0.0,0.0,0.0,0.0,0.0,0.0,0.0,0.0,0.0,0.0,0.0,0.0,0.0,0.0,0.0,0.0,0.0,0.0,0.0,0.0,0.0,0.0,0.0,0.0,0.0,0.0,0.0,0.0,0.0,0.0,0.0,0.0,0.0,0.0,0.0,0.0,0.0,0.0,0.0,0.0,0.0,0.0,0.0,0.0,0.0,0.0,0.0,0.0,0.0,0.0,0.0,0.0,0.0,0.0,0.0,0.0,0.0,0.0,0.0,0.0,0.0,0.0,0.0,0.0,0.0,0.0,0.0,0.0,0.0,0.0,0.0,0.0,0.0,0.0,0.0,0.0,0.0,0.0,0.0,0.0,0.0,0.0,0.0,0.0,0.0,0.0,0.0,0.0,0.0,0.0,0.0,0.0,0.0,0.0,0.0,0.0,0.0,0.0,0.0,0.0,0.0,0.0,0.0,0.0,0.0,0.0,0.0,0.0,0.0,0.0,0.0,0.0,0.0,0.0,0.0,0.0,0.0,0.0,0.0,0.0,0.0,0.0,0.0,0.0,0.0,0.0,0.0,0.0,0.0,0.0,0.0,0.0,0.0,0.0,0.0,0.0,0.0,0.0,0.0,0.0,0.0,0.0,0.0,0.0,0.0,0.0,0.0,0.0,0.0,0.0,0.0,0.0,0.0,0.0,0.0,0.0,0.0,0.0,0.0,0.0,0.0,0.0,0.0,0.0,0.0,0.0,0.0,0.0,0.0,0.0,0.0,0.0,0.0,0.0,0.0,0.0,0.0,0.0,0.0,0.0,0.0,0.0,0.0,0.0,0.0,0.0,0.0,0.0,0.0,0.0,0.0,0.0,0.0,0.0,0.0,0.0,0.0,0.0,0.0,0.0,0.0,0.0,0.0,0.0,0.0,0.0,0.0,0.0,0.0,0.0,0.0,0.0,0.0,0.0,0.0,0.0,0.0,0.0,0.0,0.0,0.0,0.0,0.0,0.0,0.0,0.0,0.0,0.0,0.0,0.0,0.0,0.0,0.0,0.0,0.0,0.0,0.0,0.0,0.0,0.0,0.0,0.0,0.0,0.0,0.0,0.0,0.0,0.0,0.0,0.0,0.0,0.0,0.0,0.0,0.0,0.0,0.0,0.0,0.0,0.0,0.0,0.0,0.0,0.0,0.0,0.0,0.0,0.0,0.0,0.0,0.0,0.0,0.0,0.0,0.0,0.0,0.0,0.0,0.0,0.0,0.0,0.0,0.0,0.0,0.0,0.0,0.0,0.0,0.0,0.0,0.0,0.0,0.0,0.0,0.0,0.0,0.0,0.0,0.0,0.0,0.0,0.0,0.0,0.0,0.0,0.0,0.0,0.0,0.0,0.0,0.0,0.0,0.0,0.0,0.0,0.0,0.0,0.0,0.0,0.0,0.0,0.0,0.0,0.0,0.0,0.0,0.0,0.0,0.0,0.0,0.0,0.0,0.0,0.0,0.0,0.0,0.0,0.0,0.0,0.0,0.0,0.0,0.0,0.0,0.0,0.0,0.0,0.0,0.0,0.0,0.0,0.0,0.0,0.0,0.0,0.0,0.0,0.0,0.0,0.0,0.0,0.0,0.0,0.0,0.0,0.0,0.0,0.0,0.0,0.0,0.0,0.0,0.0,-0.0512,0.0,0.0,0.0,0.0,0.0,0.0,0.0,0.0,0.0,0.0,0.0,0.0,0.0,0.0,0.0,0.0,0.0,0.0,0.0,0.0,0.0,0.0,0.0,0.0,0.0,0.0,0.0,0.0,0.0,0.0,0.0,0.0,0.0,0.0,0.0,0.0,0.0,0.0,0.2693,0.2693,0.2408,0.1903,0.1903,0.2,0.2196,0.0,0.0,0.0,0.0,0.0,0.0,0.0,0.0,0.0,0.0,0.0,0.0,0.0,0.0,0.0,0.0,0.0,0.0,0.0,0.0,0.0,0.0,0.0,0.0,0.0,0.0,0.0,0.0,0.0,0.0,0.0,0.0,0.0,0.0,0.0,0.0,0.0,0.0,0.0,0.0,0.0,0.0,0.0,0.0,0.0,0.0,0.0,0.0,0.0,0.0,0.0,0.0,0.0,0.0,0.0,0.0,0.0,0.0,0.0,0.0,0.0,0.0,0.0,0.0,0.0,0.0,0.0,0.0,0.0,0.0,0.0,-0.0617,0.0,0.0,0.0,0.0,0.0,0.0,0.0,0.0,0.0,0.0,0.0,0.0,0.0,0.0,0.0,0.0,0.0,0.0,0.0,0.0,0.0,0.0,0.0,0.0,0.7839,0.7149,0.6971,0.6558,0.0,0.0,0.0,0.0,0.0,0.0,0.0,0.3298,0.3,0.2539,0.2795,0.2263,0.0899,0.1035,0.1038,0.091,0.0932,0.0,0.0,0.0,0.0,0.0,0.0,0.0,0.0,0.0,0.0,0.0,0.0,0.0,0.0,0.0,0.0,0.0,0.0,0.0,0.0,0.0,0.0,0.0,0.0,0.0,0.0,0.0,0.0,0.0,0.0,0.0,0.0,0.0,0.0,0.0,0.0,0.0,0.0,0.0,0.0,0.0,0.0,0.0,0.0,0.0,0.0,0.0,0.0,0.0,0.0,0.0,0.0,0.0,0.0,0.0,0.0,0.0,0.0,0.0,0.0,0.0,0.0,0.0,0.2171,0.21,0.2066,0.2001,0.1894,0.1633,0.104,0.0094,-0.1047,0.0,0.0,0.0,0.0,0.0,0.0,0.0,0.0,0.0,0.0,0.0,0.0,0.0,0.0,0.0,0.0,0.0,0.0,0.0,0.0,0.0,0.0,0.8139,0.7749,0.7767,0.7177,0.6745,0.0,0.0,0.0,0.0,0.0,0.0,0.3182,0.3808,0.4008,0.3777,0.3887,0.2615,0.0129,0.0792,0.0736,0.0134,0.0135,0.0136,0.0139,0.0,0.0,0.0,0.0,0.0,0.0,0.0,0.0,0.0,0.0,0.0,0.0,0.0,0.0,0.0,0.0,0.0,0.0,0.0,0.0,0.0,0.0,0.0,0.0,0.0,0.0,0.0,0.0,0.0,0.0,0.0,0.0,0.0,0.0,0.0,0.0,0.0,0.0,0.0,0.0,0.0,0.435,0.3673,0.0,0.0,0.0,0.0,0.0,0.0,0.0,0.0,0.0,0.0,0.0,0.0,0.0,0.433,0.433,0.439,0.4144,0.3613,0.3663,0.35,0.3016,0.3001,0.2498,0.1601,0.1498,0.0,0.1142,0.0,0.0,0.0,0.0,0.0,0.0,0.0,0.0,0.0,0.0,0.0,0.0,0.0,0.0,0.0,0.0,0.0,0.0,0.0,0.0,0.0,0.0,0.9252,0.9304,0.9023,0.8771,0.837,0.7791,0.731,0.0,0.0,0.0,0.5261,0.4273,0.5097,0.5023,0.4085,0.3629,0.2542,0.0856,0.02,-0.0339,-0.062,-0.0611,-0.0407,0.0,0.0,0.0,0.0,0.0,0.0,0.0,0.0,0.0,0.0,0.0,0.0,0.0,0.0,0.0,0.0,0.0,0.0,0.0,0.0,0.0,0.0,0.0,0.0,0.0,0.0,0.0,0.0,0.0,0.0,0.0,0.0,0.0,0.0,0.0,0.0,0.0,0.0,0.0,0.0,0.0,0.4321,0.4204,0.3685,0.3587,0.3381,0.0,0.0,0.0,0.0,0.0,0.0,0.0,0.0,0.0,0.3529,0.3624,0.3773,0.3896,0.392,0.3835,0.3641,0.3534,0.3449,0.3277,0.3245,0.2927,0.2522,0.2522,0.2499,0.236,0.0583,-0.0097,-0.0193,0.0,0.0,0.0,0.0,0.0477,0.0571,0.0,0.0,0.0,0.0,0.0,0.0,0.0,0.0,0.0,0.0,0.0,0.0,0.9302,1.0073,1.0484,1.01,1.0078,0.9718,0.8813,0.8199,0.0,0.7058,0.6616,0.6142,0.5701,0.5984,0.5542,0.4215,0.3594,0.2741,0.1743,0.0268,-0.0679,-0.1109,-0.1095,-0.0683,-0.0,-0.0208,-0.0275,-0.0543,0.0,0.0,0.0,0.0,0.0,0.0,0.0,0.0,0.0,0.0,0.0,0.0,0.0,0.0,0.0,0.0,0.0,0.0,0.0,0.0,0.0,0.0,0.0,0.0,0.0,0.0,0.0,0.0,0.0,0.0,0.0,0.0,0.0,0.0,0.0,0.0,0.0,0.4286,0.4296,0.3914,0.4097,0.4108,0.0,0.0,0.0,0.0,0.0,0.0,0.3733,0.3342,0.3371,0.3671,0.3335,0.318,0.3313,0.3274,0.3266,0.3189,0.3047,0.294,0.2962,0.2838,0.282,0.2808,0.2821,0.2827,0.2622,0.0994,0.0297,0.0296,-0.0,-0.0097,-0.0097,0.0197,0.0685,0.1066,0.0,0.0,0.0,0.0,0.0,0.0,0.0,0.0,0.0,0.0,0.0,1.0233,0.9663,0.9933,1.0243,1.0523,1.0269,0.9884,0.937,0.9286,0.9,0.8516,0.7835,0.7288,0.7015,0.5978,0.5134,0.455,0.4367,0.3565,0.2348,0.1743,0.0537,-0.1079,-0.1107,-0.0709,-0.0072,-0.0759,-0.1026,-0.1252,-0.34,0.0,0.0,0.0,0.0,0.0,0.0,0.0,0.0,0.0,0.0,0.0,0.0,0.0,0.0,0.0,0.0,0.0,0.0,0.0,0.0,0.0,0.0,0.0,0.0,0.0,0.0,0.0,0.0,0.0,0.0,0.0,0.0,0.0,0.0,0.0,0.0,0.0,0.0,0.4665,0.4676,0.0,0.0,0.0,0.0,0.2855,0.2912,0.2818,0.2459,0.2372,0.273,0.3403,0.3406,0.3408,0.3418,0.3415,0.308,0.2425,0.2423,0.2201,0.1675,0.1705,0.1701,0.1674,0.1705,0.1718,0.1617,0.131,0.1107,0.1007,-0.0302,-0.0804,-0.0603,0.0704,0.1508,0.2008,0.0,0.0,0.0,0.0,0.0,0.0,0.0,0.0,1.1826,1.0839,1.0872,1.0947,1.0732,1.0509,1.045,1.0587,1.0791,1.1001,1.1225,0.9564,0.8293,0.7526,0.7512,0.7001,0.6029,0.5663,0.5184,0.4625,0.4364,0.3524,0.2219,0.2486,0.1307,-0.1113,-0.1078,-0.0979,-0.0728,-0.1072,-0.12,-0.1328,-0.3961,-0.4989,0.0,0.0,0.0,0.0,0.0,0.0,0.0,0.0,0.0,0.0,0.0,0.0,0.0,0.0,0.0,0.0,0.0,0.0,0.0,0.0,0.0,0.0,0.0,0.0,0.0,0.0,0.0,0.0,0.0,0.0,0.0,0.0,0.0,0.0,0.0,0.0,0.0,0.5406,0.5466,0.0,0.5943,0.5747,0.5455,0.5238,0.5158,0.499,0.4638,0.4153,0.3714,0.3316,0.2564,0.2256,0.2283,0.2256,0.2134,0.1918,0.1896,0.1779,0.1571,0.1562,0.1563,0.1572,0.1583,0.1598,0.1617,0.1515,0.1414,0.1414,0.0908,0.0707,0.0808,0.1312,0.2018,0.2723,0.0,0.0,0.0,0.0,0.0,0.0,0.0,0.0,1.3254,1.2218,1.2092,1.2058,1.2063,1.1564,1.1301,1.136,1.154,1.1662,1.1715,0.9641,0.8212,0.7736,0.7517,0.6777,0.5445,0.5332,0.496,0.4302,0.407,0.3357,0.2398,0.2867,0.2126,0.0313,-0.0644,-0.1074,-0.1123,-0.1214,-0.1222,-0.1365,-0.328,-0.4553,-0.5329,0.0,0.0,0.0,0.0,0.0,0.0,0.0,0.0,0.0,0.0,0.0,0.0,0.0,0.0,0.0,0.0,0.0,0.0,0.0,0.0,0.0,0.0,0.0,0.0,0.0,0.0,0.0,0.0,0.0,0.0,0.0,0.0,0.0,0.0,0.0,0.5824,0.6054,0.6253,0.6488,0.6678,0.6557,0.64,0.6285,0.6076,0.5857,0.5539,0.4941,0.4261,0.3594,0.2844,0.233,0.2039,0.2115,0.1994,0.1586,0.1477,0.1463,0.154,0.1541,0.1541,0.1446,0.1562,0.1583,0.1602,0.1613,0.1611,0.1603,0.1613,0.1617,0.1617,0.1617,0.2314,0.3097,0.0,0.0,0.0,0.0,0.0,0.0,0.0,1.3616,1.3634,1.3635,1.3645,1.3646,1.3657,1.2978,1.2632,1.2903,1.2483,1.1759,1.0624,0.9527,0.9016,0.926,0.7949,0.663,0.5445,0.5061,0.4552,0.3806,0.3451,0.3173,0.2914,0.2952,0.3056,0.306,0.0182,-0.1063,-0.1101,-0.1231,-0.1297,-0.128,-0.1323,-0.2914,-0.527,0.0,0.0,0.0,0.0,0.0,0.0,0.0,0.0,0.0,0.0,0.0,0.0,0.0,0.0,0.0,0.0,0.0,0.0,0.0,0.0,0.0,0.0,0.0,0.0,0.0,0.0,0.0,0.0,0.0,0.0,0.0,0.0,0.0,0.7311,0.7088,0.6775,0.6745,0.7013,0.7128,0.6685,0.6778,0.6523,0.5729,0.5427,0.5122,0.492,0.4427,0.4228,0.4425,0.4227,0.3693,0.2843,0.3038,0.2623,0.1526,0.1263,0.1249,0.1483,0.154,0.1344,0.1021,0.1447,0.157,0.1575,0.1603,0.1597,0.1575,0.1605,0.1616,0.1615,0.1615,0.2194,0.3226,0.0,0.0,0.0,0.0,0.0,0.0,0.0,1.3597,1.3878,1.4577,1.4704,1.469,1.4707,1.3876,1.3312,1.3422,1.296,1.2586,1.2255,1.1575,1.0394,0.8674,0.737,0.6329,0.5506,0.4925,0.4255,0.3572,0.3319,0.3049,0.2754,0.2507,0.2573,0.2743,0.017,-0.095,-0.0941,-0.1107,-0.1242,-0.1327,-0.1265,-0.1738,-0.2376,0.0,0.0,0.0,0.0,0.0,0.0,0.0,0.0,0.0,0.0,0.0,0.0,0.0,0.0,0.0,0.0,0.0,0.0,0.0,0.0,0.0,0.0,0.0,0.0,0.0,0.0,0.0,0.0,0.0,0.0,0.0,0.0,0.9246,0.8533,0.7742,0.7515,0.8161,0.8028,0.8171,0.8694,0.8268,0.7849,0.7768,0.7189,0.6798,0.6807,0.6522,0.6129,0.5632,0.5669,0.4837,0.2882,0.221,0.1629,0.1049,0.1228,0.1497,0.1573,0.1475,0.1301,0.104,0.1414,0.1543,0.1601,0.1566,0.1559,0.1575,0.1605,0.1603,0.1584,0.1584,0.2247,0.3161,0.0,0.0,0.0,0.0,0.0,0.0,0.0,1.3589,1.3789,1.4381,1.484,1.5094,1.5084,1.46,1.4046,1.3627,1.3354,1.3125,1.29,1.2055,1.0467,0.8066,0.7207,0.6276,0.5208,0.4823,0.4257,0.3536,0.3294,0.2976,0.2484,0.2269,0.2288,0.2397,0.0369,-0.0608,-0.0817,-0.1039,-0.117,-0.1325,-0.1315,-0.1065,-0.0705,-0.0156,0.0,-0.0235,-0.1874,-0.0938,0.1169,0.1201,0.0,0.0,0.0,0.0,0.0,0.0,0.0,0.0,0.0,0.0,0.0,0.0,0.0,0.0,0.0,0.0,0.0,0.0,0.0,0.0,0.0,0.0,0.0,0.0,1.0272,1.0095,0.9406,0.874,0.8516,0.9002,0.8771,0.871,0.9196,0.8733,0.8378,0.8288,0.7726,0.7439,0.7545,0.726,0.6972,0.6579,0.6524,0.5698,0.404,0.3287,0.2525,0.1855,0.213,0.1933,0.1186,0.1274,0.1197,0.0,0.1395,0.1518,0.1576,0.154,0.1529,0.0,0.0,0.0,0.0,0.0,0.2203,0.2723,0.0,0.0,0.0,0.0,0.0,0.0,0.0,1.369,1.3731,1.3598,1.4492,1.5108,1.5097,1.5108,1.474,1.3836,1.3674,1.3399,1.292,1.1593,0.9954,0.7852,0.7419,0.6487,0.4973,0.4794,0.4326,0.3553,0.328,0.2879,0.2279,0.2274,0.227,0.2231,0.0686,-0.0255,-0.0638,-0.0851,-0.1031,-0.1166,-0.1118,-0.0671,0.0,0.0,0.0,0.0,0.0,0.0563,0.1338,0.1381,0.0,0.0,0.0,0.0,0.0,0.0,0.0,0.0,0.0,0.0,0.0,0.0,0.0,0.0,0.0,0.0,0.0,0.0,0.0,0.0,0.0,0.0,0.0,0.0,1.0486,1.025,1.0229,0.9689,0.9299,0.9324,0.9173,0.8979,0.88,0.8672,0.8474,0.7941,0.7664,0.757,0.7573,0.0,0.0,0.0,0.0,0.6363,0.5512,0.5245,0.4557,0.3481,0.3565,0.265,0.0806,0.1099,0.1387,0.1481,0.1484,0.1503,0.153,0.1523,0.1507,0.1491,0.1545,0.1566,0.1661,0.2017,0.2164,0.0,0.0,0.0,0.0,0.0,0.0,0.0,0.0,1.4276,1.451,1.3712,1.4492,1.5085,1.5097,1.5108,1.5005,1.4843,1.4093,1.3399,1.292,1.1805,1.0646,0.9559,0.7998,0.6742,0.5922,0.4918,0.4041,0.3265,0.3044,0.2879,0.2765,0.2752,0.2765,0.2678,0.0821,-0.0048,-0.0153,-0.0213,-0.023,-0.025,-0.026,-0.0142,0.0,0.0,0.0,0.0,0.0,0.0575,0.1404,0.1422,0.2217,0.3379,0.3912,0.3897,0.0,0.0,0.0,0.0,0.0,0.0,0.0,0.0,0.0,0.0,0.0,0.0,0.0,0.0,0.0,0.0,0.0,0.0,0.0,1.0994,1.071,1.0389,1.0669,0.9679,0.8978,0.9129,0.8986,0.8934,0.8987,0.8556,0.8271,0.8048,0.7777,0.7682,0.7685,0.722,0.0,0.759,0.7031,0.6418,0.5665,0.5489,0.5206,0.483,0.0,0.0,0.1343,0.2381,0.2405,0.1482,0.1506,0.1534,0.1559,0.151,0.15,0.1519,0.153,0.1535,0.1534,0.1624,0.2142,0.2793,0.0,0.0,0.0,0.0,0.0,0.0,0.0,1.4784,1.4923,1.4415,1.48,1.5108,1.508,1.5096,1.5085,1.5083,1.4193,1.3334,1.2651,1.2018,1.1062,0.9647,0.836,0.7043,0.5781,0.4969,0.4311,0.3741,0.3185,0.3018,0.326,0.3251,0.3271,0.3188,0.2242,0.1133,0.0,0.0312,0.0443,0.0414,0.0124,0.0,0.0,0.0,0.0,0.0082,0.0495,0.0918,0.1341,0.1373,0.2433,0.3878,0.4192,0.4157,0.4036,0.0,0.0,0.0,0.0,0.0,0.0,0.0,0.0,0.0,0.0,0.0,0.0,0.0,0.0,0.8797,0.0,0.0,0.9881,1.1028,1.0646,1.0048,0.9884,0.9448,0.9089,0.891,0.867,0.8556,0.8556,0.8384,0.8198,0.8028,0.7927,0.7841,0.7672,0.7404,0.7401,0.7669,0.7337,0.7071,0.6786,0.677,0.6719,0.6625,0.5719,0.4745,0.3592,0.3324,0.2899,0.2383,0.2288,0.2313,0.2351,0.2282,0.228,0.2321,0.2321,0.2116,0.1812,0.1812,0.2323,0.2957,0.0,0.0,0.0,0.0,0.0,0.0,0.0,1.5096,1.5119,1.5085,1.5119,1.5095,1.5109,1.4771,1.4673,1.5081,1.4156,1.3274,1.2583,1.2397,1.1585,0.9913,0.8721,0.7285,0.5536,0.5161,0.4734,0.4294,0.3661,0.3481,0.3728,0.3714,0.367,0.3589,0.3183,0.1989,0.0198,0.0682,0.0881,0.0861,0.0363,0.0189,0.0196,0.0143,0.0227,0.0312,0.1057,0.1318,0.1309,0.1611,0.2591,0.3848,0.4131,0.417,0.4183,0.393,0.3732,0.0,0.0,0.0,0.0,0.0,0.0,0.0,0.0,0.8313,0.8677,0.8923,0.8991,0.9285,1.0383,1.0257,1.0159,1.0844,1.0272,0.9481,0.8918,0.9181,0.934,0.8865,0.8496,0.8284,0.8134,0.8256,0.8255,0.8002,0.8127,0.8142,0.7741,0.7733,0.7733,0.7823,0.7737,0.7714,0.794,0.7974,0.7957,0.8053,0.6598,0.5836,0.5714,0.4175,0.3379,0.3181,0.3048,0.306,0.3102,0.3076,0.3089,0.3123,0.3135,0.291,0.2479,0.2385,0.2602,0.3047,0.0,0.0,0.0,0.0,0.0,0.0,0.0,0.0,1.5085,1.5108,1.5089,1.5077,1.5116,1.3499,1.3145,1.4955,1.4194,1.3552,1.3437,1.3204,1.278,1.2183,0.9254,0.7209,0.6309,0.5813,0.5171,0.4282,0.4796,0.4759,0.4217,0.4213,0.4007,0.3507,0.1784,0.0929,0.0822,0.0885,0.0922,0.0914,0.0798,0.0816,0.0779,0.0809,0.0917,0.1181,0.1291,0.1285,0.1487,0.2578,0.3317,0.3812,0.3812,0.3864,0.3851,0.3888,0.3597,0.3468,0.4327,0.4894,0.5475,0.6836,0.7354,0.787,0.0,0.9587,0.9618,0.9661,0.94,0.941,1.0435,1.0236,0.9998,1.0163,0.9358,0.8732,0.8615,0.9161,0.9465,0.9446,0.8879,0.8528,0.8507,0.8524,0.8444,0.8173,0.8372,0.8464,0.8173,0.8169,0.8265,0.8448,0.8089,0.7921,0.8201,0.8091,0.8012,0.7882,0.7833,0.7015,0.5399,0.5213,0.4304,0.2901,0.2947,0.2971,0.2985,0.3087,0.3102,0.3064,0.3119,0.3296,0.3521,0.3048,0.3158,0.3497,0.0,0.0,0.0,0.0,0.0,0.0,0.0,0.0,0.0,0.0,1.5119,1.4663,1.3486,1.2619,1.2441,1.3282,1.4057,1.4098,1.3253,1.2953,1.2461,1.1791,1.0142,0.832,0.6416,0.5915,0.5779,0.5912,0.6215,0.5852,0.49,0.4865,0.4786,0.4548,0.3761,0.2852,0.1958,0.2175,0.2252,0.2279,0.247,0.2581,0.2521,0.1878,0.1725,0.1784,0.1443,0.1655,0.0,0.2959,0.3274,0.3443,0.3921,0.4017,0.4021,0.427,0.4262,0.4375,0.4951,0.5802,0.6716,0.7258,0.7688,0.8275,0.9203,0.9407,0.93,0.9254,0.9216,0.9357,0.9878,0.9979,1.0178,0.0,1.0415,0.985,0.9068,0.9866,1.0293,0.9658,0.9464,0.9303,0.9101,0.9199,0.9181,0.909,0.9278,0.9296,0.9095,0.8828,0.8828,0.9266,0.8742,0.8793,0.9248,0.9248,0.9123,0.8792,0.8674,0.8095,0.7204,0.6721,0.5812,0.4732,0.4858,0.4595,0.4045,0.4021,0.3934,0.3908,0.3941,0.4001,0.4116,0.3558,0.3585,0.4032,0.0,0.0,0.0,0.0,0.0,0.0,0.0,0.0,0.0,0.0,1.5591,1.5176,1.3132,1.2438,1.2554,1.364,1.5086,1.5322,1.3939,1.3173,1.2503,1.1872,1.1143,0.9757,0.7611,0.7247,0.7302,0.7783,0.7784,0.7234,0.6164,0.6163,0.6164,0.6154,0.5169,0.4115,0.3137,0.3308,0.3365,0.3416,0.3715,0.3842,0.37,0.2927,0.2584,0.2381,0.1946,0.2346,0.3088,0.3084,0.3078,0.3144,0.3742,0.4032,0.4094,0.4378,0.4852,0.5269,0.5555,0.6554,0.7525,0.762,0.8098,0.8577,0.9143,0.928,0.9194,0.8983,0.9183,0.9338,0.9221,0.942,0.999,1.1089,1.131,1.0966,0.9906,1.0501,1.0774,1.0233,1.0312,1.0247,1.0003,0.9805,0.9649,0.9649,0.9786,0.9828,0.9823,0.9473,0.9469,0.9734,0.9473,0.9538,1.0038,1.0038,0.9846,0.9634,0.931,0.9034,0.8647,0.7521,0.6712,0.6073,0.5969,0.5601,0.496,0.4804,0.4723,0.4723,0.4723,0.468,0.4524,0.4133,0.4085,0.43,0.0,0.0,0.0,0.0,0.0,0.0,0.0,0.0,0.0,0.0,0.0,0.0,0.0,1.3254,1.368,1.7566,1.797,1.7514,1.6373,1.4496,1.3453,1.342,1.222,1.1212,1.0468,1.0488,1.0097,0.9421,0.9451,0.9094,0.8427,0.8417,0.8391,0.8266,0.4793,0.3643,0.4207,0.3901,0.3811,0.379,0.3961,0.3927,0.3776,0.3776,0.3516,0.3142,0.2997,0.3379,0.3883,0.3172,0.2921,0.304,0.3109,0.3485,0.389,0.3997,0.4922,0.5898,0.6122,0.6841,0.7602,0.8256,0.8591,0.8958,0.9395,0.9637,0.9721,0.9441,0.9395,0.9203,0.8729,0.8657,0.9248,1.1026,1.1283,1.1209,1.1066,1.0778,1.0789,1.1566,1.1566,1.156,0.0,1.0391,0.9564,0.9564,0.9569,0.9738,1.0019,0.9941,0.9941,1.0028,0.9941,0.9946,1.0038,1.0038,0.9951,0.996,0.9956,0.9602,0.8819,0.7217,0.6422,0.634,0.546,0.5018,0.5027,0.5038,0.508,0.508,0.508,0.508,0.5064,0.4963,0.4656,0.43,0.0,0.0,0.0,0.0,0.0,0.0,0.0,0.0,0.0,0.0,0.0,0.0,0.0,0.0,0.0,0.0,1.8096,1.7645,1.6441,1.5536,1.4542,1.3558,1.3087,1.2727,1.2509,1.252,1.2136,1.1376,1.137,1.0616,0.9142,0.9142,0.9153,0.9047,0.6142,0.5023,0.5173,0.4798,0.449,0.4394,0.4668,0.4728,0.4688,0.4767,0.4699,0.4581,0.0,0.4143,0.3341,0.3525,0.3585,0.3701,0.4377,0.4755,0.5133,0.5712,0.6201,0.6662,0.7077,0.7522,0.8022,0.8417,0.8832,0.9096,0.9261,0.9587,0.9757,0.9211,0.9707,0.9908,0.8819,0.8591,0.9233,1.0993,1.1827,1.2174,1.2153,1.1833,1.1649,1.1649,1.196,0.0,0.0,0.0,0.0,1.0516,1.0587,1.0619,1.0367,1.0206,1.0206,1.0372,1.0128,1.0193,1.0678,1.0678,1.058,1.0381,1.0381,1.0289,1.0024,0.9148,0.8181,0.7302,0.6511,0.5808,0.5282,0.5138,0.5063,0.5063,0.5063,0.5063,0.5058,0.5022,0.4919,0.4743,0.0,0.0,0.0,0.0,0.0,0.0,0.0,0.0,0.0,0.0,0.0,0.0,0.0,0.0,0.0,0.0,0.0,1.6879,1.5448,1.5096,1.4769,1.4312,1.4226,1.3976,1.3491,1.3464,1.313,1.2274,1.2331,1.1566,1.0079,1.0082,0.9575,0.8602,0.6954,0.6047,0.5822,0.5341,0.5121,0.4952,0.4997,0.4951,0.4956,0.504,0.5196,0.0,0.5572,0.4967,0.42,0.4429,0.4561,0.467,0.5135,0.5502,0.5975,0.6722,0.7058,0.7378,0.7892,0.8098,0.8304,0.8704,0.8941,0.9156,0.9242,0.9627,0.9817,0.9438,0.9883,1.006,0.9195,1.0228,1.1272,1.1746,1.2021,1.2265,1.2624,1.2294,1.198,1.2171,1.2439,1.2572,0.0,0.0,0.0,1.1387,1.1458,1.1381,1.1139,1.0974,1.0848,1.0925,1.076,1.0835,1.1233,1.1233,1.1098,1.0821,1.082,1.0862,1.0862,1.0168,0.924,0.8009,0.7221,0.6343,0.5463,0.5282,0.528,0.528,0.528,0.528,0.528,0.528,0.528,0.528,0.0,0.0,0.0,0.0,0.0,0.0,0.0,0.0,0.0,0.0,0.0,0.0,0.0,0.0,0.0,0.0,0.0,0.0,1.3648,1.3526,1.4126,1.5592,1.5506,1.4828,1.3556,1.3484,1.31,1.2378,1.235,1.1889,1.0983,1.1187,0.9797,0.7147,0.7143,0.6817,0.6193,0.5722,0.554,0.5465,0.5002,0.4814,0.4874,0.4698,0.5112,0.5735,0.5712,0.6036,0.6328,0.5825,0.5838,0.5917,0.5497,0.5789,0.6457,0.7106,0.7526,0.7984,0.8519,0.8538,0.8508,0.902,0.914,0.9085,0.9401,0.9686,0.9938,0.9938,0.9866,0.9963,1.0279,1.3222,1.5054,1.308,1.1838,1.1581,1.2562,1.2103,1.1945,0.0,0.0,0.0,0.0,0.0,0.0,1.225,0.0,1.2083,1.202,1.2009,1.1889,1.1549,1.1872,1.1889,1.1649,1.156,1.1447,1.1214,1.1277,1.1305,1.1322,1.0343,0.9401,0.854,0.757,0.6694,0.5908,0.5822,0.5819,0.5822,0.5733,0.5733,0.5733,0.5733,0.5733,0.5733,0.0,0.0,0.0,0.0,0.0,0.0,0.0,0.0,0.0,0.0,0.0,0.0,0.0,0.0,0.0,0.0,0.0,0.0,1.3588,1.3512,1.3672,1.4074,1.5145,1.501,1.3548,1.3462,1.3426,1.316,1.3468,1.2107,0.9304,1.2017,1.122,0.7415,0.7211,0.7044,0.6846,0.657,0.6138,0.5797,0.5832,0.6102,0.6603,0.6924,0.7631,0.8471,0.8684,0.8898,0.8938,0.7274,0.6962,0.7198,0.7161,0.738,0.7727,0.8095,0.8174,0.8299,0.8719,0.8694,0.8647,0.8876,0.9221,0.9427,0.951,0.9734,0.9937,0.9911,0.9922,1.1146,1.5185,1.4597,1.3607,1.3827,1.3009,0.0,1.3299,1.3187,0.0,1.3307,1.3512,1.3652,1.3705,1.404,0.0,0.0,1.2766,1.1881,1.1741,1.174,1.1607,1.1375,1.1438,1.1535,1.1649,1.1643,1.1532,1.1464,1.1345,1.1303,1.1472,1.0347,0.9887,1.0,0.8897,0.8315,0.8257,0.757,0.7221,0.7221,0.6346,0.5997,0.5997,0.5733,0.5822,0.5997,0.0,0.0,0.0,0.0,0.0,0.0,0.0,0.0,0.0,0.0,0.0,0.0,0.0,0.0,0.0,0.0,0.0,0.0,0.0,1.3504,1.3518,1.3486,1.5002,1.5407,1.4498,1.387,1.3513,1.3499,1.3722,1.2905,1.1023,1.1473,1.038,0.7951,0.736,0.7097,0.7176,0.6833,0.6521,0.0,0.0,0.6912,0.7454,0.7969,0.8793,0.9805,0.9889,1.0293,1.0494,0.9114,0.8653,0.8609,0.8403,0.8583,0.8807,0.8887,0.882,0.8874,0.9177,0.9097,0.897,0.9061,0.9108,0.9118,0.9062,0.9518,0.9922,0.9907,1.0586,1.2519,1.7169,1.5499,1.3736,1.4754,1.3954,1.3319,1.3883,1.363,1.3481,1.3741,1.3866,1.4035,1.4314,1.4443,1.4667,0.0,1.3812,1.2979,1.2671,1.2619,1.2433,1.1946,1.2052,1.2075,1.1981,1.1787,1.1729,1.1729,1.1508,1.1427,1.156,1.0757,1.0341,1.0154,0.0,0.8658,0.8328,0.7537,0.7217,0.7132,0.652,0.6257,0.6257,0.6083,0.6083,0.6257,0.0,0.0,0.0,0.0,0.0,0.0,0.0,0.0,0.0,0.0,0.0,0.0,0.0,0.0,0.0,0.0,0.0,0.0,0.0,0.0,1.3572,1.3786,1.5103,1.5783,1.5803,1.4506,1.3735,1.3469,1.329,1.3497,1.3935,1.0835,0.9051,0.8537,0.7549,0.7204,0.7281,0.6864,0.661,0.6551,0.694,0.7398,0.7778,0.0,0.9339,1.0363,1.0395,1.0886,1.1375,1.1006,1.0454,0.9974,0.9438,0.9392,0.9518,0.9479,0.9416,0.9394,0.9582,0.9491,0.9366,0.9295,0.8948,0.8669,0.85,0.9256,0.999,1.022,1.1594,1.3647,1.6738,1.5665,1.4595,1.5524,1.4676,1.405,1.4269,1.3893,1.3711,1.4254,1.4269,1.4429,1.5035,1.4884,1.4858,1.5082,1.4916,1.4581,1.4041,1.396,1.3603,1.2857,1.3082,1.2984,1.2421,1.2125,1.1974,1.1974,1.1778,1.1605,1.1605,1.1324,1.0831,1.005,0.0,0.0,0.8025,0.733,0.7041,0.7044,0.6868,0.6868,0.6779,0.6779,0.6779,0.6779,0.0,0.0,0.0,0.0,0.0,0.0,0.0,0.0,0.0,0.0,1.6874,1.7362,0.0,0.0,0.0,0.0,0.0,0.0,0.0,0.0,0.0,1.5322,1.5636,1.58,1.5803,1.5547,1.4788,1.3482,1.2445,1.2485,1.3628,1.329,1.1484,0.8559,0.7799,0.7419,0.745,0.6675,0.6342,0.6468,0.7509,0.8208,0.8598,0.9367,0.0,0.0,1.208,1.227,1.2313,1.2061,1.1498,1.072,1.0433,1.0082,0.9759,1.003,0.9571,0.9066,0.9382,0.9276,0.9036,0.9002,0.9243,0.9363,0.8694,0.9256,1.0377,1.1897,1.2494,1.2889,1.3476,1.3894,1.4389,1.5075,1.4863,1.4596,1.4813,1.4754,1.476,1.4814,1.4843,1.4963,1.5265,1.5259,0.0,0.0,0.0,1.5337,1.4587,1.4046,1.3749,1.3648,1.3605,1.3586,1.3312,1.2828,1.2416,1.224,1.1948,1.1846,1.1834,1.154,1.1479,1.1513,1.1393,0.0,1.1405,1.0701,1.0448,1.0361,0.9401,0.9056,0.9052,0.8782,0.8873,0.8969,0.0,0.0,0.0,0.0,0.0,0.0,0.0,1.3743,1.4103,1.4458,1.5177,1.541,1.4591,1.4474,1.4484,0.0,0.0,0.0,0.0,0.0,0.0,0.0,1.5812,1.5797,1.578,1.5833,1.5052,1.3475,0.0,1.1935,1.2487,1.2712,1.1633,0.9604,0.8112,0.7957,0.8737,0.832,0.8069,0.7991,0.912,0.9802,1.0131,0.0,0.0,0.0,1.3073,1.3118,1.2997,1.2826,1.2481,1.2031,1.1384,1.123,1.1134,1.0479,0.9725,0.9217,0.9389,0.9378,0.9264,0.9237,0.9444,0.9707,0.9825,1.1004,1.2336,1.3281,1.3448,1.3467,1.3425,1.5304,1.6376,1.5113,1.514,1.5312,1.5568,1.5568,1.5613,1.5659,1.55,1.5431,1.5732,1.5674,1.565,1.5805,0.0,1.5444,1.4721,1.4257,1.4021,1.4021,1.4021,1.3887,1.3423,1.3297,1.3165,1.2853,1.2581,1.2382,1.224,1.2116,1.1969,1.1812,1.167,0.0,1.1494,1.0877,1.0534,1.0448,0.941,0.9065,0.8973,0.8356,0.8532,0.8973,0.0,0.0,0.0,0.0,0.0,0.0,0.0,1.3606,1.3837,1.4223,1.3862,1.3778,1.4453,1.4834,1.5015,0.0,0.0,0.0,0.0,0.0,0.0,0.0,0.0,0.0,0.0,0.0,0.0,1.4012,1.2668,0.0,0.0,0.0,0.0,0.0,0.8389,0.8276,1.0036,1.033,0.9931,0.0,0.0,1.1257,0.0,0.0,0.0,0.0,0.0,1.3574,1.3568,1.3392,1.3426,1.3244,1.2232,1.2228,1.2412,1.0961,1.0067,0.9562,0.9759,0.9933,1.0014,0.9592,0.9829,1.0317,1.1159,1.2746,1.409,1.4077,1.4117,1.4358,1.535,1.7135,1.7645,1.5262,1.5369,1.5867,1.6197,1.6281,1.6422,1.6422,1.6204,1.6029,1.6204,1.6047,0.0,1.6115,0.0,0.0,1.4792,1.4585,1.4495,1.4495,1.4443,1.4224,1.3758,1.3847,1.3783,1.3481,1.3201,1.2927,1.266,1.266,1.2428,1.1955,1.1764,0.0,0.0,1.0924,1.0656,1.0621,0.9887,0.9533,0.941,0.8619,0.8798,0.941,0.0,0.0,0.0,0.0,0.0,0.0,0.0,1.4012,1.421,1.3657,1.3525,1.3751,1.4405,1.5811,1.6664,0.0,0.0,0.0,0.0,0.0,0.0,0.0,0.0,0.0,0.0,0.0,0.0,1.5584,1.4058,0.0,0.0,0.0,0.0,0.0,0.0,0.8015,1.058,1.1651,0.0,0.0,0.0,0.0,0.0,0.0,0.0,0.0,0.0,1.3639,1.4004,1.4024,1.3997,1.3814,1.2934,1.2583,1.2371,1.1675,1.0557,0.9708,1.0566,1.1377,1.1657,0.9944,1.0761,1.2058,1.2148,1.3166,1.4069,1.4124,1.4065,1.5318,1.9272,1.7655,1.5665,1.5413,1.5483,1.5845,1.6441,1.6784,1.7063,1.7063,1.7035,1.6819,1.6567,1.6546,1.6355,0.0,0.0,0.0,1.5344,1.5259,1.5265,1.5265,1.5097,1.4973,1.4904,1.4415,1.406,1.3767,1.3487,1.3213,1.2946,1.2946,1.2794,1.2552,1.277,0.0,0.0,1.3286,1.3269,1.307,1.3225,1.3089,1.2705,1.2613,1.2443,1.2272,0.0,0.0,0.0,0.0,0.0,0.0,1.3485,1.3718,1.3787,1.3506,1.3853,1.4547,1.5803,1.6534,1.6929,1.691,0.0,0.0,0.0,0.0,0.0,0.0,0.0,0.0,0.0,0.0,1.5189,1.5814,1.4253,0.0,0.0,0.0,0.0,0.0,0.0,1.1056,1.1596,1.1401,0.0,0.0,0.0,0.0,0.0,0.0,0.0,0.0,0.0,0.0,1.4082,1.4068,1.4122,1.4035,1.3627,1.3863,1.3928,1.2447,1.1651,1.1242,1.1646,1.2019,1.2144,1.1374,1.1783,1.2305,1.232,1.3661,1.4896,1.4851,1.4856,1.539,1.7137,1.8009,1.8181,1.71,1.6097,1.5782,1.667,1.6879,1.7174,1.775,1.7476,1.7268,0.0,0.0,1.664,0.0,0.0,0.0,1.5846,1.5423,1.5137,1.5137,1.5197,1.5023,1.4522,1.4807,1.4606,1.3999,1.4051,1.3841,1.3402,1.3579,1.3417,1.3082,1.3278,0.0,0.0,1.3468,1.3493,1.3319,1.2905,1.2623,1.2363,1.1832,1.1918,1.2272,0.0,0.0,0.0,0.0,0.0,1.3502,1.3485,1.3494,1.3475,1.3526,1.4514,1.5643,1.6806,1.688,1.6912,1.6878,1.6917,0.0,0.0,0.0,0.0,0.0,0.0,0.0,0.0,0.0,1.58,1.5777,1.4622,1.4094,0.0,0.0,1.3838,1.3482,0.0,0.0,0.0,0.0,0.0,0.0,0.0,0.0,0.0,0.0,0.0,0.0,0.0,0.0,0.0,0.0,0.0,1.444,1.4508,1.4911,1.5113,1.3635,1.2819,1.2389,1.2736,1.3057,1.3212,1.3198,1.3198,1.3186,1.3192,1.436,1.5375,1.5357,1.5427,1.571,1.6711,1.8113,1.8734,1.7788,1.6629,1.6102,1.7206,1.7387,1.7747,1.8454,0.0,1.7757,0.0,1.7523,0.0,0.0,0.0,0.0,0.0,1.5732,1.5312,1.5308,1.5335,1.5093,1.4482,1.4917,1.483,1.4215,1.4335,1.4175,1.3781,1.3988,1.3891,1.3539,0.0,0.0,0.0,1.3658,1.3645,1.3574,1.2961,1.2599,1.2443,1.174,1.1918,1.2443,0.0,0.0,0.0,0.0,0.0,0.0,1.3511,1.3511,1.3475,1.3526,1.5487,1.689,1.6892,1.6921,1.6888,1.6902,1.6863,0.0,0.0,0.0,0.0,0.0,0.0,0.0,0.0,0.0,1.5773,1.5807,1.5535,1.5352,1.5381,1.5373,1.4734,1.3532,0.0,0.0,0.0,0.0,0.0,0.0,0.0,0.0,0.0,0.0,0.0,0.0,0.0,0.0,0.0,0.0,0.0,0.0,0.0,1.5369,1.5433,1.5374,1.3909,1.2569,1.3731,1.4724,1.5372,1.5372,1.5372,1.5362,1.5388,1.5367,1.5397,1.5413,1.5396,1.6464,1.9891,1.773,1.5759,1.6549,1.673,1.7077,1.8168,1.8498,1.8854,1.9225,1.8876,1.859,1.859,1.7823,0.0,0.0,0.0,0.0,0.0,1.6295,1.6181,1.6204,1.5622,1.5354,1.5378,1.4816,1.4522,1.4509,1.4229,1.4088,1.4082,1.4088,1.4088,0.0,0.0,0.0,0.0,1.4396,1.4349,1.4115,1.4402,1.4163,1.3652,1.3652,1.3568,1.3392,0.0,0.0,0.0,0.0,0.0,0.0,0.0,1.3511,1.349,1.3492,1.5504,1.692,1.6921,1.6897,1.692,1.6876,1.6865,0.0,0.0,0.0,0.0,0.0,0.0,0.0,0.0,0.0,1.579,1.5793,1.5534,1.5428,1.5419,1.5431,1.52,1.4734,1.3882,0.0,0.0,0.0,0.0,0.0,0.0,0.0,0.0,0.0,0.0,0.0,0.0,0.0,0.0,0.0,0.0,0.0,0.0,0.0,0.0,1.5419,1.4895,1.4472,1.4904,1.5198,1.5368,1.5442,1.5435,1.542,1.5434,1.5419,1.5397,1.5373,1.7307,1.8539,1.7315,1.7138,1.7465,1.8237,1.8397,1.8352,1.8297,1.8589,1.9026,1.963,1.9419,1.9086,0.0,0.0,0.0,0.0,0.0,0.0,0.0,1.6958,1.6657,1.5882,1.568,1.5327,1.4742,1.4974,1.4798,1.4222,1.4335,1.4282,1.4088,1.4088,0.0,0.0,0.0,0.0,0.0,1.4182,1.4168,1.4095,1.4188,1.4083,1.3997,1.3997,1.3913,1.3913,0.0,0.0,0.0,0.0,0.0,0.0,0.0,1.358,1.3663,1.3502,1.5494,1.6911,1.693,1.6893,1.7133,1.7743,1.8368,0.0,0.0,0.0,0.0,0.0,0.0,0.0,0.0,1.6664,1.6341,1.5795,1.6189,1.6069,1.5403,1.5383,1.5442,1.5403,1.4554,0.0,0.0,0.0,0.0,0.0,0.0,0.0,1.5442,0.0,0.0,0.0,0.0,0.0,0.0,0.0,0.0,0.0,0.0,0.0,0.0,0.0,1.635,1.6208,1.5591,1.5405,1.5372,1.5433,1.5433,1.5403,1.5435,1.6619,1.7806,1.7814,1.9537,2.0118,1.6926,1.7257,1.8232,1.9108,1.945,1.9556,1.9315,1.9405,1.9633,2.0176,0.0,0.0,0.0,0.0,0.0,0.0,0.0,0.0,0.0,1.713,1.6817,1.6034,1.585,1.5483,1.4919,1.4984,1.4788,1.4334,1.4518,1.4419,1.4243,1.4243,0.0,0.0,0.0,0.0,0.0,1.4088,1.4088,1.4088,1.4088,1.4088,1.4088,1.4088,1.4088,1.4088,0.0,0.0,0.0,0.0,0.0,0.0,0.0,1.3787,1.3882,1.3712,1.5541,1.6874,1.6884,1.6965,1.7631,1.9164,0.0,0.0,0.0,0.0,0.0,0.0,0.0,0.0,0.0,1.8048,1.7376,1.615,1.7251,1.6992,1.524,1.5321,1.5397,1.5418,1.5418,0.0,0.0,0.0,0.0,0.0,0.0,0.0,0.0,0.0,0.0,0.0,0.0,0.0,0.0,0.0,0.0,0.0,0.0,0.0,0.0,0.0,0.0,0.0,0.0,1.5569,1.5576,1.5576,1.5576,1.5569,1.5554,1.8696,0.0,2.1789,2.167,2.0897,1.8655,1.8294,1.8449,1.9097,1.9796,2.0445,2.0879,2.0609,2.0483,0.0,2.0281,0.0,1.8693,0.0,0.0,0.0,0.0,0.0,0.0,1.7047,1.674,1.6411,1.6212,1.5917,1.569,1.5028,1.4741,1.4734,1.4734,1.4566,1.4391,1.4391,0.0,0.0,0.0,0.0,0.0,1.4173,1.4173,1.4173,1.4166,1.4088,1.4088,1.4088,1.4088,1.4088,0.0,0.0,0.0,0.0,0.0,0.0,0.0,0.0,0.0,0.0,1.6169,1.692,1.6866,1.7987,1.891,0.0,0.0,0.0,0.0,0.0,0.0,0.0,0.0,0.0,0.0,1.8632,1.8442,1.9266,1.7311,1.5514,1.3938,1.4653,1.5185,1.5418,1.5418,0.0,0.0,0.0,0.0,0.0,0.0,0.0,0.0,0.0,0.0,0.0,1.3471,1.369,0.0,0.0,0.0,0.0,0.0,0.0,0.0,0.0,1.801,1.7912,1.7513,0.0,1.7425,1.7425,1.7425,1.7384,0.0,1.8201,1.9485,2.137,2.0224,1.9344,2.0684,2.0883,2.0552,1.9359,1.9841,2.0437,2.0821,2.1293,0.0,2.1239,2.1078,2.0305,0.0,0.0,0.0,0.0,0.0,0.0,0.0,1.726,1.7069,1.6748,1.6499,1.5959,1.5227,1.507,1.4915,1.4734,1.4734,1.465,1.465,1.465,0.0,0.0,0.0,0.0,1.4573,1.4573,1.4573,1.4573,1.4405,1.4321,1.4321,1.4166,1.4088,1.4088,0.0,0.0,0.0,0.0,0.0,0.0,0.0,0.0,0.0,0.0,0.0,1.6609,1.6888,1.7668,0.0,0.0,0.0,0.0,0.0,0.0,0.0,0.0,0.0,0.0,1.9238,1.8469,1.8086,1.8239,1.6583,1.535,1.4552,1.4993,1.514,1.4992,1.5279,0.0,0.0,0.0,0.0,0.0,1.5131,0.0,0.0,0.0,0.0,0.0,1.3528,1.3947,0.0,1.4551,1.4561,1.4857,0.0,0.0,0.0,0.0,1.7997,1.8026,1.8026,1.7989,1.8002,1.804,1.8017,1.8034,1.7971,1.8011,1.8373,1.98,1.9898,2.0178,2.1551,2.1391,2.0803,1.987,2.0316,2.0908,2.1105,2.1773,2.2038,2.1482,2.095,2.035,0.0,0.0,0.0,0.0,0.0,0.0,0.0,1.7186,1.6967,1.6638,1.6323,1.5908,1.5481,1.5329,1.5173,1.4999,1.4999,1.4992,1.4908,1.4908,1.4824,0.0,0.0,0.0,1.4734,1.4734,1.4734,1.465,1.4566,1.4566,1.4482,1.4412,1.4412,1.4412,0.0,0.0,0.0,0.0,0.0,0.0,0.0,0.0,0.0,0.0,0.0,0.0,0.0,0.0,0.0,0.0,0.0,0.0,0.0,0.0,0.0,0.0,0.0,1.7968,1.797,1.8002,1.7401,1.6146,1.5967,1.5937,1.5863,1.5599,1.5105,1.4583,1.5158,1.5423,0.0,0.0,0.0,0.0,1.5363,0.0,0.0,0.0,0.0,0.0,0.0,0.0,0.0,1.5825,1.5816,1.5806,1.578,0.0,0.0,0.0,0.0,0.0,1.7968,1.8267,1.8576,1.8368,1.8155,1.8002,1.7983,1.8311,1.8581,1.8554,2.0333,2.1819,2.1815,2.0803,2.0081,2.0515,2.1176,0.0,2.169,2.2227,2.2329,2.1508,2.0752,0.0,0.0,0.0,0.0,0.0,0.0,0.0,0.0,1.7117,1.6794,1.6374,1.6074,1.5891,1.584,1.557,1.5431,1.5431,1.5431,1.5347,1.5173,1.5173,1.4999,0.0,0.0,0.0,1.4824,1.4824,1.4824,1.4824,1.4741,1.4734,1.4741,1.4741,1.4734,1.4734,0.0,0.0,0.0,0.0,0.0,0.0,0.0,0.0,0.0,0.0,0.0,0.0,0.0,0.0,0.0,0.0,0.0,0.0,0.0,0.0,0.0,0.0,1.7909,1.8027,1.803,1.8022,1.7874,1.7667,1.6801,1.6428,1.637,1.5519,1.5026,1.4852,1.5194,1.5401,1.5418,0.0,0.0,0.0,0.0,0.0,0.0,0.0,0.0,0.0,0.0,0.0,0.0,1.5814,1.5786,1.5774,1.5761,0.0,0.0,0.0,0.0,0.0,1.8005,1.9578,2.1037,2.0178,1.8986,1.8023,1.7978,1.9709,2.1212,2.1238,2.1514,2.1835,2.1809,1.987,1.9127,2.1535,2.2411,2.2772,0.0,0.0,2.2621,2.1533,0.0,0.0,0.0,0.0,0.0,0.0,0.0,0.0,0.0,1.7667,1.7154,1.6374,1.6074,1.5782,1.5504,1.5452,1.5431,1.5431,1.5431,1.5347,1.5347,1.5347,1.534,0.0,0.0,1.5257,1.5257,1.5257,1.5257,1.5257,1.509,1.5006,1.4999,1.4741,1.4734,1.4734,0.0,0.0,0.0,0.0,0.0,0.0,0.0,0.0,0.0,0.0,0.0,0.0,0.0,0.0,0.0,0.0,0.0,0.0,0.0,0.0,0.0,1.7996,1.8,1.7613,1.6793,1.6793,1.7184,1.8008,1.7537,1.6889,1.61,1.5616,1.5475,1.5657,1.5517,1.5381,1.5434,0.0,0.0,0.0,0.0,0.0,0.0,0.0,0.0,0.0,0.0,0.0,0.0,0.0,1.5835,1.5826,1.5771,0.0,0.0,0.0,0.0,0.0,1.9186,1.9543,2.106,2.3431,2.201,2.0043,2.0014,2.0941,2.1788,2.1767,2.1789,2.1364,2.0026,2.1541,2.3095,2.335,0.0,2.2978,2.2544,2.2329,2.185,0.0,0.0,0.0,0.0,0.0,0.0,0.0,0.0,0.0,0.0,0.0,1.7602,1.6815,1.6413,1.6015,1.5431,1.5431,1.5431,1.5431,1.5431,1.5431,1.5431,1.5431,1.5431,1.5431,0.0,1.5431,1.5431,1.5431,1.5431,1.5431,1.5257,1.5264,1.5278,1.5367,1.544,1.5605,0.0,0.0,0.0,0.0,0.0,0.0,0.0,0.0,0.0,0.0,0.0,0.0,0.0,0.0,0.0,0.0,0.0,0.0,0.0,0.0,1.8137,1.8477,1.8198,1.7443,1.6309,1.6017,1.6355,1.7451,1.7633,1.7117,1.58,1.5804,1.6031,1.6335,1.5927,1.5569,1.536,1.536,1.639,0.0,0.0,0.0,0.0,0.0,0.0,0.0,0.0,0.0,0.0,0.0,0.0,0.0,0.0,0.0,0.0,1.9687,2.1303,2.2698,2.0908,2.0449,2.1439,2.5489,2.4792,2.2812,2.1949,2.2452,2.2848,2.194,2.2432,2.2188,1.9361,2.3232,2.6329,2.4748,2.3856,2.3116,2.2438,2.2016,2.1492,0.0,0.0,0.0,0.0,0.0,0.0,0.0,0.0,0.0,0.0,0.0,1.8049,1.7255,1.6854,1.627,1.5597,1.5597,1.5514,1.5431,1.5431,1.5431,1.5431,1.5431,1.5431,1.5431,1.5431,1.5431,1.5431,1.5511,1.5496,1.5438,1.5511,1.5592,1.5687,1.6016,1.633,1.6616,0.0,0.0,0.0,0.0,0.0,0.0,0.0,0.0,0.0,0.0,0.0,0.0,0.0,0.0,0.0,0.0,0.0,0.0,0.0,0.0,1.8619,2.0031,1.8797,1.7925,1.7828,1.651,1.5855,1.5976,1.6634,1.658,1.5814,1.6179,1.649,1.6644,1.6603,1.6203,1.5368,1.5368,1.6395,0.0,0.0,0.0,0.0,0.0,0.0,0.0,0.0,0.0,0.0,0.0,0.0,0.0,0.0,0.0,2.1073,2.1083,2.0425,2.0259,2.3089,2.3821,2.3941,2.4347,2.5618,2.595,2.2453,2.433,2.5824,2.2426,2.4407,2.5705,2.2058,2.3703,2.5327,2.4613,2.4372,2.4017,2.3451,0.0,0.0,0.0,0.0,0.0,0.0,0.0,0.0,0.0,0.0,0.0,0.0,0.0,0.0,1.7771,1.7036,1.6523,1.6087,1.6087,1.5846,1.5431,1.5431,1.5431,1.5431,1.5431,1.5431,1.5431,1.5431,1.5431,1.5452,1.576,1.5701,1.546,1.576,1.6052,1.6338,1.6667,1.6989,1.7223,0.0,0.0,0.0,0.0,0.0,0.0,0.0,0.0,0.0,0.0,0.0,0.0,0.0,0.0,0.0,0.0,0.0,0.0,0.0,0.0,1.825,1.883,1.8338,1.7536,1.6667,1.606,1.534,1.4355,1.561,1.652,1.7183,1.6868,1.6996,1.7474,1.7498,1.7315,1.7058,1.7006,1.7414,1.8171,0.0,0.0,0.0,0.0,0.0,0.0,0.0,0.0,0.0,0.0,2.0281,2.1183,2.1187,2.1167,2.1216,2.123,2.0885,2.1058,2.3538,2.422,2.4183,2.42,2.4788,2.4993,2.3541,2.6289,2.8715,2.725,2.8077,2.725,2.1273,2.2161,2.3694,2.3493,2.334,2.3205,2.2815,0.0,0.0,0.0,0.0,0.0,0.0,0.0,0.0,0.0,0.0,0.0,0.0,0.0,0.0,1.8213,1.7522,1.682,1.6095,1.6087,1.5839,1.5431,1.5431,1.5431,1.5431,1.5431,1.5431,1.5438,1.5643,1.5613,1.5452,1.5782,1.584,1.5782,1.6301,1.6572,1.6711,1.7033,1.7223,1.734,0.0,0.0,0.0,0.0,0.0,0.0,0.0,0.0,0.0,0.0,0.0,0.0,0.0,0.0,0.0,0.0,0.0,0.0,0.0,1.7232,1.7596,1.797,1.7553,1.6817,1.5815,1.5808,1.5309,1.4253,1.528,1.634,1.7294,1.7071,1.7294,1.8014,1.798,1.8004,1.7952,1.7482,1.8057,1.9303,2.0217,2.1055,0.0,0.0,0.0,0.0,0.0,0.0,0.0,0.0,2.1206,2.1172,2.1215,2.1221,2.1197,2.1174,2.1182,2.1633,2.3632,2.4186,2.45,2.5797,2.5119,2.4226,2.4158,2.7307,3.0194,3.0228,2.8802,2.5957,2.096,2.1392,0.0,0.0,2.2903,2.2814,0.0,0.0,0.0,0.0,0.0,0.0,0.0,0.0,0.0,0.0,0.0,0.0,0.0,0.0,0.0,0.0,1.7962,1.7229,1.65,1.65,1.6252,1.5597,1.5597,1.5514,1.5431,1.5431,1.5431,1.5438,1.5665,1.5635,1.5452,1.5782,1.5972,1.6111,1.6645,1.6916,1.7047,1.7362,1.7545,1.7655,0.0,0.0,0.0,0.0,0.0,0.0,0.0,0.0,0.0,0.0,0.0,0.0,0.0,0.0,0.0,0.0,0.0,0.0,1.6883,1.6549,1.6841,1.79,1.6555,1.5799,1.5794,1.5797,1.5765,1.5797,1.5797,1.5808,1.5813,1.6563,1.7303,1.8039,1.7952,1.7952,1.7917,1.6423,1.8096,2.1603,1.9089,1.9538,0.0,0.0,0.0,0.0,0.0,0.0,0.0,0.0,2.1225,2.1169,2.1233,2.1169,2.1174,2.1192,2.1237,2.168,2.3709,2.4221,2.5171,2.916,2.7168,2.4248,2.4249,2.7313,3.0138,3.0161,2.5679,2.1674,2.1701,2.1671,0.0,2.313,2.3404,0.0,0.0,0.0,0.0,0.0,0.0,0.0,0.0,0.0,0.0,0.0,0.0,0.0,0.0,0.0,0.0,0.0,1.8228,1.7797,1.7392,1.7392,1.6984,1.6095,1.6087,1.5846,1.5431,1.5431,1.5431,1.5431,1.5431,1.5431,1.5452,1.5789,1.6104,1.6411,1.674,1.7055,1.7377,1.7699,1.8021,1.8247,0.0,0.0,0.0,0.0,0.0,0.0,0.0,0.0,0.0,0.0,0.0,0.0,0.0,0.0,0.0,0.0,0.0,0.0,1.689,1.6821,1.6648,1.6486,1.7025,1.6826,1.5791,1.4757,1.4702,1.5816,1.5816,1.5777,1.5831,1.7061,1.7782,1.7952,1.7458,1.7251,1.714,1.6218,1.8136,2.1821,2.2232,2.2801,2.349,0.0,0.0,0.0,0.0,0.0,0.0,0.0,0.0,0.0,2.1215,2.1197,2.1226,2.1207,2.2183,2.3724,2.5755,2.6296,2.6612,2.7824,2.83,2.8262,2.7554,2.6622,2.6617,2.8672,2.5862,2.2889,2.2571,2.2026,0.0,2.2098,0.0,0.0,0.0,0.0,0.0,0.0,0.0,0.0,0.0,0.0,0.0,0.0,0.0,0.0,0.0,0.0,0.0,0.0,1.8228,1.7797,1.7392,1.7392,1.7269,1.6928,1.636,1.5846,1.5431,1.5431,1.5431,1.5438,1.5672,1.5643,1.5467,1.6016,1.6557,1.7077,1.7399,1.7589,1.7684,1.7779,1.7728,1.7604,0.0,0.0,0.0,0.0,0.0,0.0,0.0,0.0,0.0,0.0,0.0,0.0,0.0,0.0,0.0,0.0,0.0,0.0,0.0,0.0,1.6404,1.5807,1.6661,1.6723,1.5835,1.4901,1.4877,1.58,1.58,1.5783,1.581,1.6681,1.7273,1.7535,1.726,1.7261,1.7475,1.7791,1.9324,2.1683,2.2638,2.3029,2.3003,0.0,0.0,0.0,0.0,0.0,0.0,0.0,0.0,0.0,2.2407,2.1834,2.1541,2.311,2.4401,2.5654,2.6845,2.6876,2.6589,2.6597,2.7794,2.8796,2.7938,2.6192,2.5204,2.6679,2.5413,2.3609,2.2573,2.2161,0.0,2.1951,0.0,0.0,0.0,0.0,0.0,0.0,0.0,0.0,0.0,0.0,0.0,0.0,0.0,0.0,0.0,0.0,0.0,0.0,1.8374,1.8167,1.8162,1.8162,1.8012,1.7795,1.7104,1.6604,1.6103,1.5649,1.5431,1.5438,1.5635,1.5613,1.5474,1.6104,1.6594,1.6996,1.7443,1.7618,1.7618,1.7618,1.7501,1.7326,0.0,0.0,0.0,0.0,0.0,0.0,0.0,0.0,0.0,0.0,0.0,0.0,0.0,0.0,0.0,0.0,0.0,0.0,0.0,0.0,1.6157,1.5904,1.586,1.5852,1.6005,1.5897,1.585,1.5996,1.6007,1.5905,1.5762,1.5782,1.6144,1.6798,1.7349,1.7849,1.846,2.0289,2.1098,2.1207,2.118,2.118,2.1173,2.1229,0.0,0.0,0.0,0.0,0.0,0.0,0.0,0.0,2.4214,2.2982,2.2192,2.5876,2.7078,2.7215,2.7333,2.662,2.5814,2.5884,2.6606,2.701,2.6397,2.597,2.5495,2.468,2.4573,2.3963,2.2143,2.2128,2.2429,0.0,0.0,0.0,0.0,0.0,0.0,0.0,0.0,0.0,0.0,0.0,0.0,0.0,0.0,0.0,0.0,0.0,0.0,1.8579,1.8622,1.8811,1.917,1.917,1.9015,0.0,1.8102,1.7777,1.7411,1.6095,1.5514,1.5514,1.5514,1.5529,1.5602,1.6292,1.6566,1.6655,1.7184,1.7426,1.7426,1.7426,1.7426,1.7426,0.0,0.0,0.0,0.0,0.0,0.0,0.0,0.0,0.0,0.0,0.0,0.0,0.0,0.0,0.0,0.0,0.0,0.0,0.0,0.0,1.6093,1.6665,1.6105,1.6324,1.746,1.6358,1.6365,1.7525,1.7541,1.6929,1.5823,1.583,1.5858,1.6065,1.7629,1.8385,1.8542,1.9379,2.0347,2.1172,2.1206,2.1206,2.1183,2.1168,2.1167,0.0,0.0,0.0,0.0,0.0,0.0,0.0,2.4225,2.3895,2.375,2.4602,2.5946,2.7387,2.8142,2.7598,2.6968,2.7522,2.7393,2.7138,2.6999,2.6121,2.5213,2.506,2.4756,2.4145,2.3038,2.2274,2.1885,0.0,0.0,0.0,0.0,0.0,0.0,0.0,0.0,0.0,0.0,0.0,0.0,0.0,0.0,0.0,1.8451,0.0,0.0,1.8579,1.8888,1.9093,1.917,1.917,1.9238,0.0,1.8396,1.8217,1.8674,1.7151,1.6409,1.6409,1.6409,1.6565,1.6846,1.7337,1.7666,1.7955,1.8286,1.8458,1.8458,1.8458,1.8458,1.8458,0.0,0.0,0.0,0.0,0.0,0.0,0.0,0.0,0.0,0.0,0.0,0.0,0.0,0.0,0.0,0.0,0.0,0.0,0.0,0.0,0.0,1.6679,1.6448,1.6616,1.7099,1.7365,1.776,1.8366,1.8128,1.7278,1.5832,1.6191,1.6564,1.7102,1.8002,1.8664,1.917,1.9553,2.0311,2.1221,2.1221,2.1221,2.1221,2.1221,2.1183,2.1495,2.3447,0.0,0.0,0.0,0.0,0.0,0.0,0.0,2.4734,2.4765,2.5654,2.6752,2.7526,2.7518,2.7437,2.7999,2.8018,2.7653,2.6513,2.5902,2.5174,2.3824,2.3432,2.3068,2.2236,2.1612,0.0,0.0,0.0,0.0,0.0,0.0,0.0,0.0,0.0,0.0,0.0,0.0,0.0,0.0,0.0,1.8194,1.8562,1.8588,1.8751,1.9127,1.9341,1.953,1.971,1.971,1.9804,2.0001,1.9149,1.8902,1.9095,1.7649,1.6976,1.6969,1.6802,1.6929,1.7278,1.7628,1.7977,1.8335,1.8692,1.8827,1.8827,1.8827,1.8931,1.9074,0.0,0.0,0.0,0.0,0.0,0.0,0.0,0.0,0.0,0.0,0.0,0.0,0.0,0.0,0.0,0.0,0.0,0.0,0.0,0.0,0.0,1.6585,1.6795,1.6705,1.636,1.8044,1.8796,1.8574,1.8183,1.7375,1.623,1.7171,1.8103,1.895,1.8829,1.9235,2.0053,2.0237,2.0635,2.1221,2.1221,2.1221,2.1221,2.1221,0.0,2.1484,2.3297,2.4056,2.419,2.4376,0.0,0.0,0.0,0.0,2.529,2.526,2.558,2.6107,2.6461,2.7046,2.7557,2.7661,2.8122,2.7861,2.5771,2.5574,2.5128,2.2654,2.2011,2.1694,2.1114,2.0741,0.0,0.0,0.0,0.0,0.0,0.0,0.0,0.0,0.0,0.0,0.0,0.0,0.0,0.0,0.0,1.8331,1.8571,1.8708,1.9076,1.9727,1.9804,1.9984,2.0292,2.0292,2.0292,2.0292,1.9984,1.9641,1.9264,1.8165,1.7645,1.7572,1.729,1.729,1.7524,1.7951,1.8265,1.8523,1.9007,1.916,1.9112,1.9176,1.9378,1.9628,0.0,0.0,0.0,0.0,0.0,0.0,0.0,0.0,0.0,0.0,0.0,0.0,0.0,0.0,0.0,0.0,0.0,0.0,1.4107,0.0,0.0,1.6788,1.6906,1.6839,1.683,1.708,1.7515,1.8199,1.8117,1.799,1.7812,1.9737,2.0705,2.0809,2.0831,2.0895,2.1034,2.1047,2.1094,2.1221,2.1221,2.1221,2.1221,0.0,0.0,0.0,2.2476,2.3419,2.4294,2.4957,2.5159,0.0,0.0,0.0,2.5278,2.5111,2.5467,2.6036,2.6271,2.6948,2.7382,2.676,2.6987,2.711,2.588,2.5469,2.4903,2.3306,2.2401,2.1607,2.0754,2.0558,0.0,0.0,0.0,0.0,0.0,0.0,0.0,0.0,0.0,0.0,0.0,0.0,0.0,0.0,1.8828,1.8896,1.8605,1.9222,1.9641,1.9735,2.0052,2.024,2.0292,2.0292,2.0292,2.0292,2.024,2.0026,1.9667,1.9431,1.9236,1.8914,1.8871,1.8684,1.8472,1.9194,1.9321,1.9177,2.0212,2.0407,2.0152,2.0492,2.0645,2.0687,0.0,0.0,0.0,0.0,0.0,0.0,0.0,0.0,0.0,0.0,0.0,0.0,0.0,0.0,0.0,1.3571,1.3754,1.3983,1.4222,1.4823,1.5594,1.6492,1.6807,1.6913,1.6874,1.718,1.7469,1.7749,1.8371,1.8672,0.0,2.0428,2.125,2.1376,2.114,2.1273,2.1578,2.1319,2.1221,2.1221,2.1221,2.1342,2.156,0.0,0.0,0.0,0.0,0.0,2.4855,2.517,2.5278,2.5277,2.5277,0.0,0.0,0.0,2.5373,2.5695,2.617,2.6366,2.647,2.6801,2.6909,2.6724,2.565,2.515,2.4324,2.2453,2.1384,2.0677,2.0274,0.0,0.0,0.0,0.0,0.0,0.0,0.0,0.0,0.0,0.0,0.0,0.0,0.0,0.0,0.0,1.9041,1.9187,1.923,1.9555,1.9838,2.0043,2.0206,2.0292,2.0292,2.0292,2.0292,2.0292,2.0292,2.0206,2.0052,2.0052,1.9847,1.9478,1.9264,1.9196,1.9264,1.9607,1.9769,1.9872,2.06,2.0771,2.0668,2.1037,2.1319,2.1508,0.0,0.0,0.0,0.0,0.0,0.0,0.0,0.0,0.0,0.0,0.0,0.0,0.0,0.0,0.0,0.0,1.3616,1.3864,1.4185,1.4295,1.4891,1.6111,1.6522,1.6782,1.6899,1.7291,1.7509,1.7614,1.8455,1.8964,1.9274,2.0519,2.1262,0.0,2.1307,2.1427,0.0,2.1319,2.1238,2.1353,2.1353,2.1663,0.0,0.0,0.0,0.0,0.0,0.0,0.0,0.0,0.0,2.5312,2.5312,2.5312,0.0,0.0,0.0,2.5445,2.6009,2.5916,2.5746,2.6687,2.6646,2.6187,2.5352,2.483,2.3988,0.0,2.0948,2.029,1.9943,0.0,0.0,0.0,0.0,0.0,0.0,0.0,0.0,0.0,0.0,0.0,0.0,0.0,0.0,0.0,1.9505,1.9583,1.9677,1.9684,1.9872,2.0146,2.0155,2.0155,2.0155,2.0155,2.0155,2.0155,2.0249,2.0292,2.0292,2.0292,2.0146,1.9872,1.9581,1.9564,1.9752,1.9847,2.0043,2.0343,2.0823,2.1011,2.1062,2.1422,2.1739,2.1996,0.0,0.0,0.0,0.0,0.0,0.0,0.0,0.0,0.0,0.0,0.0,0.0,0.0,1.3873,1.3873,1.3855,1.3534,1.3332,1.336,1.3708,1.446,1.567,1.6111,0.0,1.6899,1.6927,1.7273,1.7998,1.8008,1.8556,1.9569,2.0525,2.1147,2.1538,2.1935,2.1794,2.1256,0.0,0.0,0.0,0.0,0.0,0.0,0.0,0.0,0.0,0.0,0.0,0.0,0.0,0.0,0.0,0.0,0.0,2.5312,0.0,0.0,0.0,2.5718,2.5822,2.5814,2.5984,2.5782,2.5437,2.5162,2.4778,2.4098,2.2755,2.209,2.1443,2.0162,0.0,0.0,0.0,0.0,0.0,0.0,0.0,0.0,0.0,0.0,0.0,0.0,0.0,0.0,0.0,2.0562,2.0279,1.9565,1.9626,1.9752,1.9769,1.9769,1.9769,1.9769,1.9769,1.9769,1.9778,2.0129,2.0292,2.0292,2.0292,2.0283,2.0266,2.024,2.0052,1.9769,2.0121,2.0275,2.036,2.1097,2.1379,2.143,2.1824,2.1978,2.1996,0.0,0.0,0.0,0.0,0.0,0.0,0.0,0.0,0.0,0.0,0.0,0.0,0.0,1.4705,1.4815,1.4143,1.3652,1.3487,1.3691,1.38,1.4543,1.6028,1.6239,1.6505,1.6899,1.7373,1.7774,1.7969,1.89,1.9515,1.9951,2.0686,2.119,2.1305,2.182,2.2047,2.2177,2.1932,0.0,0.0,0.0,0.0,0.0,0.0,0.0,0.0,0.0,0.0,0.0,0.0,0.0,0.0,0.0,0.0,0.0,2.5312,2.5312,2.5206,2.4737,2.4565,2.4539,2.4715,2.4233,2.387,2.4523,2.395,2.3003,2.2242,2.1738,2.1193,2.0383,0.0,0.0,0.0,0.0,0.0,0.0,0.0,0.0,0.0,0.0,0.0,0.0,0.0,0.0,0.0,0.0,2.0427,1.9651,1.9667,1.9632,1.9384,1.9376,1.9376,1.9376,1.9376,1.9376,1.9384,1.9761,1.9941,1.9949,2.018,2.0292,2.0292,2.0292,2.036,2.048,2.0617,2.0805,2.1062,2.1585,2.179,2.1833,2.221,2.2355,2.2355,0.0,0.0,0.0,0.0,0.0,0.0,0.0,0.0,0.0,0.0,0.0,0.0,0.0,0.0,1.5245,1.4393,1.3835,1.3798,1.4298,1.4286,1.49,1.6257,1.6513,1.6891,1.7226,1.7969,1.8432,1.87,1.9628,2.0237,2.0495,2.1019,2.1285,2.1296,2.1654,2.1989,0.0,0.0,0.0,2.3092,0.0,0.0,2.4543,0.0,0.0,0.0,0.0,0.0,0.0,0.0,0.0,0.0,0.0,0.0,0.0,0.0,0.0,2.5158,2.4504,2.4348,2.4438,2.4755,2.3853,2.3112,2.4158,2.3042,2.1796,2.1662,2.124,2.0869,2.0741,0.0,0.0,0.0,0.0,0.0,0.0,0.0,0.0,0.0,0.0,0.0,0.0,0.0,0.0,0.0,0.0,0.0,1.9835,1.9722,1.9454,1.899,1.8982,1.8982,1.8982,1.8982,1.8982,1.8982,1.9495,1.9744,1.9672,2.0121,2.0292,2.0292,2.0292,2.0514,2.0883,2.0883,2.1165,2.1636,2.1893,2.2073,2.221,2.2458,2.2644,2.2644,0.0,0.0,0.0,0.0,0.0,0.0,0.0,0.0,0.0,0.0,0.0,0.0,0.0,0.0,0.0,1.4643,1.4197,1.4298,1.5065,1.5182,1.5541,1.6294,1.7053,1.7635,1.8046,1.8731,1.9396,2.0118,2.0107,2.0495,2.1221,2.1336,2.1388,2.1388,2.1624,2.1612,2.1463,0.0,2.2333,2.325,0.0,2.4178,2.5639,0.0,0.0,0.0,2.6431,2.5949,0.0,2.5278,0.0,0.0,0.0,0.0,0.0,0.0,0.0,0.0,0.0,0.0,0.0,2.6312,2.4678,2.3086,2.3945,2.2257,2.0622,2.1025,2.0805,2.0649,2.1034,0.0,0.0,0.0,0.0,0.0,0.0,0.0,0.0,0.0,0.0,0.0,0.0,0.0,0.0,0.0,2.1463,2.0934,1.9965,1.9648,1.921,1.8579,1.8571,1.8571,1.8571,1.8571,1.8571,1.8579,1.9358,1.9727,1.9735,2.0121,2.0292,2.0292,2.0292,2.0514,2.0883,2.0891,2.1328,2.1996,2.2004,2.2235,2.2644,2.2644,2.2644,2.2644,0.0,0.0,0.0,0.0,0.0,0.0,1.829,1.8383,0.0,0.0,0.0,0.0,0.0,0.0,1.6571,1.6396,1.5944,1.5586,1.5532,1.6514,1.7203,1.7494,1.8562,1.9203,1.9315,2.0005,2.0476,2.0687,2.0803,2.1019,2.1336,2.1388,2.1463,2.1624,2.1749,2.18,2.1847,2.2669,0.0,2.4612,2.467,2.523,0.0,0.0,0.0,0.0,0.0,2.6115,2.529,0.0,2.5312,2.5312,0.0,0.0,0.0,0.0,0.0,0.0,2.4564,0.0,0.0,0.0,0.0,0.0,0.0,0.0,2.044,2.097,2.1016,2.0979,2.1089,2.1016,0.0,0.0,0.0,0.0,0.0,0.0,0.0,0.0,0.0,0.0,0.0,0.0,0.0,0.0,2.1038,2.0638,1.988,1.9147,1.8542,1.8194,1.8186,1.8186,1.8186,1.8186,1.8186,1.8194,1.8965,1.9333,1.9358,2.0001,2.0292,2.0292,2.0292,2.0514,2.09,2.1156,2.155,2.2021,2.2295,2.2458,2.2644,2.2644,2.2644,2.2644,0.0,0.0,0.0,0.0,0.0,1.9738,1.9315,1.9346,1.9438,0.0,0.0,0.0,0.0,0.0,0.0,1.7655,1.7376,1.7155,1.7048,1.7853,1.8356,1.8412,1.9604,2.0264,2.0264,2.0951,2.1297,2.1297,2.1206,2.1285,2.1388,2.1474,2.1612,2.1812,0.0,0.0,0.0,0.0,0.0,0.0,2.4833,0.0,0.0,2.5757,2.5889,0.0,0.0,0.0,2.6517,2.5587,2.5312,0.0,0.0,0.0,0.0,0.0,0.0,0.0,0.0,0.0,0.0,0.0,0.0,0.0,2.2019,2.0941,2.0096,0.0,2.0613,2.0668,2.0833,2.0998,2.1034,0.0,0.0,0.0,0.0,0.0,0.0,0.0,0.0,0.0,0.0,2.1236,2.1213,2.0962,2.0944,2.0526,1.964,1.8693,1.8201,1.804,1.804,1.804,1.804,1.804,1.804,1.8049,1.8811,1.917,1.9196,1.9949,2.0292,2.0292,2.0292,2.042,2.066,2.1037,2.1508,2.2013,2.2235,2.2415,2.2644,2.2644,2.2644,2.2644,0.0,0.0,2.0096,2.0226,2.0764,2.1072,2.0623,2.0197,2.007,0.0,0.0,0.0,0.0,0.0,0.0,0.0,1.8636,1.8739,1.9085,1.9198,1.9243,1.911,2.0409,2.1096,2.1096,2.171,2.2099,2.2088,2.159,2.1366,2.1544,2.1647,2.1824,2.1925,0.0,0.0,0.0,0.0,0.0,2.3893,2.441,2.5204,0.0,0.0,2.6468,2.7162,2.6798,2.7311,2.7841,2.5972,2.5312,0.0,0.0,0.0,0.0,0.0,2.5158,0.0,0.0,0.0,0.0,0.0,0.0,0.0,2.2291,2.0999,1.9826,0.0,2.009,2.0182,2.0585,2.0979,2.1227,0.0,0.0,0.0,0.0,0.0,0.0,0.0,0.0,0.0,2.1704,2.1741,2.1575,2.1209,2.1089,2.0543,1.9386,1.849,1.804,1.804,1.804,1.804,1.804,1.804,1.804,1.8049,1.8768,1.9127,1.9196,1.9906,2.0249,2.0292,2.0292,2.0292,2.0317,2.0668,2.1234,2.1884,2.1961,2.2201,2.2492,2.2526,2.2644,2.2644,0.0,2.0031,2.0291,2.0996,2.1262,2.1376,2.1432,2.1401,2.1315,0.0,0.0,0.0,0.0,0.0,0.0,0.0,2.0042,1.9758,1.9619,2.038,2.0495,1.9901,2.1487,2.2321,2.2321,2.2868,2.3213,2.3329,2.2425,2.2168,2.2415,2.2064,2.1937,2.2123,2.2185,0.0,0.0,0.0,0.0,2.4422,2.4939,0.0,2.6045,2.5624,2.554,2.572,2.5636,2.5767,2.584,2.5408,2.5312,2.5312,0.0,0.0,0.0,0.0,0.0,0.0,0.0,0.0,0.0,0.0,0.0,0.0,2.1651,2.0985,2.0736,0.0,2.1117,2.1007,2.142,2.1823,2.1988,2.1667,0.0,0.0,0.0,0.0,0.0,0.0,0.0,0.0,2.1759,2.1741,2.1704,2.1621,2.1007,2.0261,1.9377,1.8823,1.8371,1.8031,1.804,1.804,1.804,1.804,1.804,1.804,1.8494,1.887,1.9187,1.9641,2.0009,2.0292,2.0292,2.0292,2.03,2.0377,2.0677,2.1156,2.1764,2.2038,2.2141,2.2432,2.2644,2.2644,2.0613,2.0741,2.0944,2.1474,2.1549,2.1549,2.1698,2.1698,2.1792,0.0,0.0,0.0,0.0,0.0,0.0,0.0,0.0,0.0,0.0,2.1854,2.1916,2.1574,2.2639,2.3179,2.3179,2.3433,2.363,2.3828,2.308,2.2709,2.271,2.271,2.25,2.2209,2.2751,2.3123,0.0,0.0,2.4446,2.4939,2.5204,0.0,2.5673,2.5408,2.5312,2.5312,2.5312,2.5312,2.5336,2.5278,2.5302,0.0,0.0,2.5004,2.4707,0.0,2.4409,2.4047,0.0,0.0,0.0,2.2621,0.0,0.0,0.0,2.1352,2.1053,2.1216,2.1047,2.0879,2.1089,2.1456,2.1722,2.1731,2.2245,0.0,0.0,0.0,0.0,0.0,0.0,0.0,2.2364,2.1979,2.1649,2.1438,2.0583,1.9879,1.9433,1.8896,1.8442,1.8201,1.804,1.804,1.804,1.804,1.804,1.7959,1.8408,1.8793,1.9187,1.9573,1.9941,2.0292,2.0292,2.0292,2.0292,2.0292,2.0412,2.066,2.1413,2.1824,2.2038,2.2415,2.2644,2.2644,2.1336,2.1463,2.1572,2.1827,2.1832,2.1796,2.1954,2.1895,2.2013,0.0,0.0,0.0,0.0,0.0,0.0,0.0,0.0,0.0,0.0,0.0,2.2968,2.3024,2.3502,2.3688,2.3758,2.3863,2.398,2.4189,2.3694,2.3368,2.3072,2.3406,2.3173,2.2534,2.3388,2.3821,0.0,0.0,0.0,2.5312,0.0,2.5312,2.5312,2.5312,2.5312,2.5312,2.5312,2.5312,2.5277,2.5325,2.5373,2.5444,2.5111,2.4706,0.0,0.0,0.0,0.0,0.0,0.0,0.0,0.0,0.0,2.1496,0.0,0.0,0.0,2.1099,2.0845,2.075,2.075,0.0,0.0,0.0,0.0,0.0,0.0,0.0,0.0,0.0,0.0,0.0,0.0,2.2263,2.1768,2.1264,2.0452,1.9942,1.9705,1.9073,1.8707,1.8556,1.8386,1.8224,1.8224,1.8155,1.8121,1.804,1.834,1.8725,1.9187,1.9495,1.9872,2.0292,2.0292,2.0292,2.0292,2.0292,2.0292,2.036,2.1114,2.1602,2.1936,2.2381,2.2644,2.2644,2.1635,2.1698,2.1839,2.2479,2.2171,2.2091,2.2759,2.2435,2.2327,0.0,0.0,0.0,0.0,0.0,0.0,0.0,0.0,0.0,2.3861,0.0,2.2889,2.3238,2.3571,2.3758,2.3979,2.4449,2.4755,2.4957,2.4434,2.4205,2.427,2.3953,2.3701,2.3592,2.3779,2.4013,0.0,0.0,2.4831,0.0,2.5312,2.5312,0.0,2.5312,2.5312,2.5312,2.5312,2.5312,2.5312,0.0,2.5648,2.578,0.0,2.4492,2.4471,0.0,0.0,0.0,0.0,0.0,0.0,0.0,2.2073,0.0,0.0,0.0,2.1603,2.1594,0.0,0.0,0.0,0.0,0.0,0.0,0.0,0.0,2.2547,0.0,0.0,0.0,0.0,0.0,0.0,2.2774,2.2492,2.1722,2.1496,2.1044,2.0165,2.0084,1.9728,1.9215,1.9197,1.9115,1.9115,1.8609,1.8353,1.8362,1.8164,1.8477,1.917,1.9213,1.9624,2.0292,2.0292,2.0292,2.0292,2.0292,2.0292,2.036,2.1114,2.1439,2.1559,2.2287,2.2644,2.2644,2.1812,2.206,2.2396,2.2803,2.2975,2.3011,2.2991,2.3304,0.0,0.0,0.0,0.0,0.0,0.0,0.0,0.0,0.0,2.4143,0.0,0.0,0.0,2.472,2.5132,2.5262,2.5039,2.5264,2.5361,2.5241,2.5025,2.4761,2.4518,2.4614,2.435,2.3863,2.4398,0.0,2.4554,0.0,2.5384,0.0,0.0,0.0,0.0,2.5312,2.5312,2.5312,2.5312,2.5312,2.5312,0.0,2.5147,0.0,0.0,0.0,0.0,0.0,0.0,0.0,0.0,0.0,0.0,0.0,0.0,0.0,2.2419,0.0,2.2264,0.0,0.0,0.0,0.0,0.0,0.0,0.0,2.2392,0.0,0.0,0.0,2.3657,0.0,0.0,0.0,0.0,0.0,0.0,0.0,2.1741,2.1396,2.0725,2.0404,2.012,1.9865,1.9689,1.9573,1.9268,1.9018,1.8832,1.8612,1.8362,1.8599,1.9333,1.9256,1.9581,2.0292,2.0292,2.0292,2.0292,2.0292,2.0429,2.0686,2.1208,2.1413,2.1508,2.2261,2.2644,2.2644,2.2178,0.0,0.0,2.3171,2.352,2.364,2.3256,2.3833,0.0,0.0,0.0,0.0,2.3982,2.4174,0.0,0.0,2.4637,2.4921,0.0,0.0,2.5763,2.5898,2.6336,0.0,2.6137,2.5982,2.578,2.5528,2.5384,2.5107,2.4747,2.5131,2.4903,2.4218,2.4975,2.5095,2.4795,0.0,2.5877,2.5564,2.5937,2.5781,2.5312,2.5312,2.5312,2.5312,2.5312,2.5312,2.5241,2.5087,2.4657,0.0,2.3644,0.0,0.0,0.0,0.0,0.0,2.2046,0.0,0.0,0.0,0.0,0.0,0.0,0.0,0.0,0.0,0.0,0.0,0.0,0.0,0.0,0.0,0.0,2.2392,0.0,0.0,0.0,0.0,0.0,0.0,0.0,0.0,0.0,0.0,0.0,2.1786,2.1145,2.078,2.0558,2.044,2.0337,2.0117,1.9838,1.9647,1.9368,1.902,1.8734,1.892,1.9574,1.9307,1.9581,2.0292,2.0292,2.0292,2.0292,2.0292,2.0523,2.0917,2.1268,2.1473,2.1653,2.2304,2.2644,2.2644,2.2859,2.2967,0.0,0.0,2.3761,2.3761,2.3749,0.0,0.0,0.0,0.0,0.0,0.0,0.0,0.0,0.0,0.0,2.4921,2.5241,0.0,2.5775,2.6093,2.6399,2.6685,0.0,2.637,2.6093,2.6069,2.5564,2.53,2.5288,2.53,2.5288,2.5264,2.53,2.53,2.5312,2.5865,2.6093,2.6069,2.6093,2.5781,2.5312,0.0,2.5312,2.5312,2.5312,0.0,0.0,2.4409,2.4441,0.0,0.0,0.0,0.0,0.0,0.0,0.0,0.0,0.0,0.0,2.2295,0.0,0.0,0.0,0.0,2.2008,0.0,0.0,0.0,0.0,0.0,0.0,0.0,0.0,0.0,0.0,0.0,0.0,0.0,0.0,0.0,0.0,0.0,0.0,0.0,0.0,0.0,2.1172,2.1484,2.1511,2.1099,2.1089,2.108,2.1071,2.0449,2.0005,1.9733,1.9195,1.9253,1.971,1.9341,1.9581,2.0292,2.0292,2.0292,2.0292,2.0292,2.0523,2.0917,2.1268,2.1645,2.2021,2.2407,2.2644,2.2644,0.0,0.0,0.0,0.0,0.0,0.0,0.0,2.5083,0.0,0.0,0.0,0.0,0.0,2.5769,2.5769,0.0,0.0,2.5852,2.6358,2.6737,0.0,0.0,0.0,2.7735,0.0,2.7272,2.6815,2.6093,2.5913,2.5648,2.5312,2.5312,2.5312,2.5312,2.5312,2.5504,0.0,0.0,0.0,0.0,0.0,2.5781,2.5312,0.0,0.0,2.4492,2.4492,2.4204,0.0,2.3463,2.3045,2.2562,2.1959,2.1507,2.0987,2.0683,2.0781,0.0,0.0,0.0,2.1865,2.2553,0.0,0.0,0.0,0.0,0.0,0.0,0.0,0.0,0.0,0.0,0.0,0.0,0.0,0.0,0.0,0.0,0.0,0.0,0.0,0.0,0.0,0.0,0.0,0.0,0.0,0.0,0.0,2.1658,2.1676,2.153,2.152,2.1392,2.1108,2.0629,2.0225,1.9879,1.9317,1.9377,2.0048,1.9745,2.0018,2.0736,2.0645,2.0564,2.0564,2.0382,2.066,2.1242,2.1362,2.1799,2.2372,2.2501,2.2644,2.2644,2.3765,0.0,0.0,0.0,0.0,0.0,0.0,0.0,0.0,0.0,2.655,0.0,2.5889,0.0,2.5889,0.0,2.6093,2.6334,2.6899,2.7428,0.0,2.7717,2.8222,0.0,0.0,0.0,2.7284,2.6394,2.619,2.5829,2.5312,2.5312,2.5312,2.5312,2.5312,2.56,2.6142,2.6695,2.7043,0.0,0.0,2.6069,0.0,0.0,2.4791,2.4036,0.0,2.339,2.2957,2.266,2.2134,2.1614,2.1385,2.0867,2.0342,2.0566,2.0693,2.1014,2.1533,2.165,0.0,2.2359,2.2436,0.0,2.2515,0.0,0.0,0.0,0.0,0.0,0.0,0.0,0.0,0.0,0.0,0.0,0.0,2.1951,0.0,0.0,0.0,0.0,0.0,0.0,0.0,0.0,0.0,0.0,0.0,0.0,2.1741,2.1741,2.1741,2.153,2.1108,2.0851,2.0446,1.998,1.9634,1.9686,2.0238,2.0152,2.0403,2.0988,2.0826,2.0826,2.0835,2.0802,2.1136,2.1709,2.1848,2.229,2.2846,2.2644,2.2644,2.2644,2.497,0.0,0.0,0.0,2.5408,0.0,0.0,0.0,2.6117,0.0,2.5721,2.5384,2.5348,2.5348,2.5552,2.6057,2.6093,2.6334,2.6899,2.7428,0.0,0.0,2.8222,2.851,2.851,0.0,0.0,0.0,2.6406,2.5853,2.5312,2.5312,2.5312,2.5312,2.5312,2.5612,2.6178,2.6707,2.7236,2.7681,2.7176,2.6622,2.6045,2.5469,2.4802,2.4047,2.3316,2.3032,2.2883,2.2134,2.1832,2.169,2.0867,2.0498,2.0342,2.0489,2.0498,2.0439,2.1033,2.123,2.1338,2.1777,0.0,0.0,0.0,0.0,2.2325,0.0,0.0,0.0,0.0,0.0,0.0,0.0,0.0,0.0,0.0,0.0,0.0,0.0,0.0,0.0,0.0,0.0,0.0,0.0,0.0,0.0,0.0,0.0,2.1777,2.1741,2.1759,2.1566,2.1145,2.1099,2.082,2.0219,2.0183,2.0296,2.043,2.0526,2.0731,2.0997,2.0997,2.0997,2.1032,2.144,2.1831,2.2212,2.262,2.301,2.3347,2.2846,2.2644,2.2644,2.5595,2.6328,2.6662,0.0,2.6039,2.6298,0.0,0.0,0.0,0.0,2.6851,2.6358,2.5937,2.5889,2.5949,2.6081,2.6093,0.0,0.0,0.0,0.0,2.7717,2.8222,2.851,2.851,2.8378,0.0,2.6935,0.0,2.6238,2.5312,2.5312,2.5312,2.5312,2.5312,2.5841,2.6731,2.6875,2.7236,2.7705,2.7572,2.6947,0.0,0.0,2.4661,2.4047,2.3902,2.3463,2.2957,2.2734,2.2209,2.1538,2.1308,2.0789,2.0342,2.0342,2.0411,2.0586,2.1113,2.123,2.1257,2.1336,2.1518,2.1671,0.0,0.0,0.0,0.0,0.0,0.0,0.0,0.0,0.0,0.0,0.0,0.0,0.0,0.0,0.0,2.2025,0.0,0.0,0.0,0.0,0.0,0.0,0.0,0.0,0.0,0.0,0.0,2.1759,2.2016,2.1979,2.1575,2.097,2.0769,2.0866,2.0282,2.028,2.0934,2.0944,2.1162,2.1553,2.1383,2.1293,2.132,2.1541,2.1831,2.2212,2.2426,2.2615,2.2846,2.2846,2.2745,2.2644,2.6466,0.0,0.0,2.7643,0.0,0.0,2.759,0.0,0.0,2.7332,2.6899,0.0,2.6129,2.5889,2.5841,2.6069,2.6093,0.0,2.6899,0.0,0.0,2.7717,2.8005,2.827,2.8498,2.8282,0.0,2.6935,0.0,2.6129,2.5312,2.5312,2.5312,2.5312,2.5312,2.5913,2.6959,2.7428,2.7789,2.8029,2.756,0.0,0.0,2.5013,2.4361,2.4047,2.3756,2.3169,2.2435,2.2059,2.1538,2.1088,2.1088,2.0722,2.0342,2.042,2.0411,2.0547,2.0879,2.0868,2.0886,2.0986,2.1132,2.1286,2.1541,2.1795,2.1992,0.0,0.0,0.0,0.0,0.0,0.0,0.0,0.0,0.0,0.0,0.0,0.0,0.0,2.1841,0.0,0.0,0.0,0.0,0.0,0.0,0.0,0.0,0.0,0.0,2.1768,2.23,2.2236,2.1475,2.119,2.0989,2.0842,2.0576,2.0677,2.1117,2.1291,2.1511,2.1731,2.1562,2.1562,2.1518,2.2005,2.2272,2.2524,2.2903,2.2962,2.2946,2.2946,2.2958,2.2792,2.7322,0.0,0.0,0.0,0.0,0.0,0.0,2.7539,0.0,2.6887,0.0,2.5997,2.5997,2.5588,2.5492,2.5949,0.0,2.6202,2.6683,2.6791,2.7031,2.7488,2.7645,2.7909,2.8294,2.7921,0.0,0.0,0.0,2.5865,2.5408,2.5336,2.5312,2.5312,2.5312,2.5913,2.6995,2.7993,2.845,2.8426,2.744,2.6995,2.6665,2.4885,2.4177,2.3963,2.3169,2.2435,2.1842,2.1165,2.0867,2.0712,2.0722,2.0566,2.0342,2.0489,2.042,2.0342,2.0566,2.0411,2.0351,2.0656,2.0803,2.0959,2.1475,2.1802,2.2031,2.1998,2.2008,2.2008,0.0,0.0,0.0,0.0,0.0,0.0,0.0,0.0,0.0,0.0,0.0,0.0,0.0,0.0,0.0,0.0,0.0,0.0,0.0,0.0,0.0,2.1841,2.2502,0.0,2.1365,0.0,2.1346,2.0759,2.0998,2.1135,2.12,2.1566,2.1741,2.1741,2.1796,2.1814,2.1878,2.2694,2.2966,2.3085,2.3583,2.3646,2.3347,2.3147,2.3123,2.3281,2.7886,0.0,0.0,0.0,0.0,2.84,2.7557,2.7042,2.6578,2.6262,2.5781,2.5444,2.5444,2.536,2.5348,2.5432,2.5444,0.0,0.0,0.0,0.0,2.6382,2.7248,2.756,2.7224,2.7548,2.7464,0.0,0.0,0.0,2.5949,2.5516,2.5312,2.5312,2.5312,2.5913,2.6971,2.7596,0.0,2.845,2.7837,2.732,2.6713,2.528,2.4476,2.3891,2.2499,2.236,2.2809,2.266,2.2134,2.1538,2.1385,2.1021,2.0489,2.042,2.0342,2.0342,2.0566,2.0255,1.996,2.0036,2.0377,2.062,2.0698,2.1191,2.1668,2.1756,2.1731,2.1741,2.1741,0.0,0.0,0.0,0.0,0.0,0.0,0.0,0.0,0.0,0.0,2.141,0.0,0.0,0.0,0.0,0.0,0.0,0.0,0.0,0.0,0.0,2.2364,0.0,0.0,0.0,2.1484,2.1997,2.1392,2.1291,2.163,2.1704,2.1741,2.175,2.208,2.2217,2.2291,2.3098,2.3444,2.3655,2.38,2.3646,2.3347,2.3347,2.3697,2.4149,0.0,0.0,0.0,0.0,0.0,0.0,0.0,2.6883,0.0,2.6093,2.5877,2.5721,2.5721,2.548,2.5312,2.5312,2.5312,2.5312,2.5312,2.554,2.5817,2.6081,2.6598,0.0,2.7332,2.7043,2.7031,2.7344,0.0,0.0,2.6526,2.6274,2.6154,2.6166,2.6442,2.6851,0.0,0.0,0.0,2.8462,2.7933,2.7404,2.6713,2.4922,2.3951,2.3316,2.1756,2.1461,2.1766,2.1766,2.1461,2.1165,2.1088,2.0867,2.0566,2.0489,2.0498,2.0489,2.0566,2.0333,2.0156,2.0216,2.0504,2.0744,2.0817,2.1231,2.1581,2.1695,2.1741,2.1741,2.1741,2.1741,0.0,0.0,0.0,0.0,0.0,0.0,0.0,0.0,0.0,0.0,0.0,0.0,0.0,0.0,0.0,0.0,0.0,0.0,0.0,0.0,0.0,0.0,0.0,0.0,0.0,2.2318,2.1722,2.1649,2.2043,2.2043,2.2162,2.2281,2.2566,2.2648,2.2694,2.3299,2.3688,2.3954,2.3845,2.3755,2.3582,2.3687,2.4021,2.4482,0.0,2.988,0.0,0.0,2.9149,0.0,2.7631,2.6883,2.6287,2.5949,2.5925,2.5925,2.5925,2.5564,2.5312,2.5312,2.5312,2.5312,2.5312,2.5312,2.5492,2.5913,2.6033,2.6502,2.7356,2.6538,2.6574,0.0,0.0,0.0,0.0,2.6935,2.6935,0.0,0.0,0.0,0.0,0.0,2.8414,2.8462,2.7933,2.7311,2.6564,2.4612,2.3504,2.2799,2.1268,2.0713,2.0693,2.0596,2.0566,2.0566,2.0566,2.0566,2.0566,2.0566,2.0566,2.0566,2.0566,2.0411,2.0184,2.0438,2.0583,2.0717,2.0787,2.1245,2.1603,2.1603,2.1603,2.1603,2.1603,2.1603,0.0,0.0,0.0,0.0,0.0,0.0,0.0,0.0,0.0,0.0,2.2263,0.0,0.0,0.0,0.0,0.0,0.0,0.0,0.0,0.0,0.0,2.3354,2.3208,0.0,2.2738,0.0,2.2181,2.2153,2.2465,2.2465,2.2639,2.2866,2.2948,2.3125,2.3235,2.3547,2.3868,2.4152,2.3954,2.3909,2.4026,2.4149,2.445,2.4843,0.0,0.0,0.0,0.0,0.0,0.0,2.7656,2.6895,2.6154,2.5444,2.5384,2.5384,2.5384,2.5336,2.5312,2.5312,2.5312,2.5312,2.5312,2.5312,2.5336,2.5384,2.5841,2.6142,2.625,2.6154,2.6394,0.0,0.0,0.0,0.0,0.0,0.0,0.0,0.0,0.0,0.0,2.7777,2.8077,2.8462,2.7933,2.7215,2.6301,2.4836,2.3849,2.2897,2.162,2.1172,2.1113,2.0703,2.0566,2.0566,2.0566,2.0566,2.0566,2.0566,2.0498,2.0342,2.0566,2.0108,1.9724,1.991,2.017,2.0326,2.0035,2.0791,2.1432,2.1172,2.1163,2.1163,2.1163,2.1163,2.1163,0.0,0.0,0.0,0.0,0.0,0.0,2.1209,0.0,0.0,0.0,2.1383,0.0,0.0,0.0,0.0,0.0,0.0,0.0,2.2802,0.0,2.3345,2.4033,2.3318,0.0,2.3428,2.2939,2.2765,2.2802,2.2802,2.282,2.2884,2.3336,2.3703,2.4042,2.4079,2.4115,2.4152,2.4152,2.4381,2.473,2.4766,2.5262,2.5797,0.0,0.0,0.0,0.0,0.0,0.0,0.0,2.7458,2.6773,2.5925,2.5504,2.5312,2.5312,2.5312,2.5312,2.5312,2.5312,2.5312,2.5312,2.5312,2.5312,2.5312,2.5516,2.5937,2.6586,2.6274,2.6526,0.0,0.0,0.0,0.0,0.0,0.0,0.0,0.0,2.7993,2.8198,2.8198,2.8318,2.8419,2.7702,2.7023,2.6246,2.4659,2.3625,2.297,2.2006,2.1621,2.1553,2.1113,2.0791,2.0566,2.0566,2.0566,2.0566,2.0566,2.0566,2.0489,2.0566,2.0342,2.0029,1.9942,2.0104,2.017,1.9925,2.0624,2.113,2.0805,2.075,2.075,2.075,2.0943,2.1108,0.0,0.0,0.0,0.0,0.0,0.0,0.0,0.0,2.1071,0.0,0.0,0.0,0.0,0.0,0.0,0.0,0.0,0.0,2.3204,0.0,2.3345,2.4143,2.3593,2.3391,2.3538,2.3048,2.2984,2.3308,2.3308,2.3437,2.3684,2.384,2.4005,2.4152,2.4152,2.4152,2.418,2.4436,2.4638,2.484,2.5307,2.5683,2.5995,2.9566,0.0,2.993,0.0,2.9251,2.8774,2.7926,2.7581,2.7029,2.6034,2.554,2.5312,2.5312,2.5312,2.5312,2.5312,2.5312,2.5312,2.5312,2.5312,2.5312,2.5312,2.5312,0.0,2.6671,2.6142,2.6322,2.7248,2.7416,0.0,0.0,0.0,0.0,0.0,2.851,2.851,2.851,2.851,2.851,2.8431,2.7846,2.7048,2.6071,2.4834,2.3815,2.3041,2.2359,2.207,2.1982,2.1426,2.1025,2.0742,2.0605,2.0566,2.0566,2.0566,2.0566,2.0566,2.0489,2.0342,2.0108,1.9872,1.9851,1.9894,1.9751,2.0273,2.0714,2.0549,2.0429,2.0347,2.0347,2.0576,2.0796,2.0915,0.0,0.0,0.0,0.0,0.0,0.0,2.097,2.1007,2.1346,2.1328,0.0,0.0,0.0,0.0,0.0,0.0,0.0,0.0,0.0,0.0,0.0,2.3868,2.3721,2.3721,2.3446,2.3455,2.3721,2.3721,2.3877,2.4152,2.4152,2.4152,2.4152,2.4152,2.4225,2.4363,2.4666,2.4922,2.5197,2.5757,2.6041,2.6188,2.9051,2.9842,3.0256,2.9139,2.9212,2.8795,2.698,2.7017,2.6748,2.5456,2.5312,2.5312,2.5312,2.5312,2.5312,2.5312,2.5312,2.5312,2.5312,2.5312,2.5312,0.0,0.0,2.5564,2.6093,2.5588,2.5576,2.6117,0.0,0.0,2.6959,0.0,2.851,2.851,2.851,2.851,2.851,2.851,2.851,2.851,2.851,2.7418,2.5819,2.5808,2.4638,2.3066,2.2656,2.251,2.2373,2.1523,2.123,2.1152,2.0703,2.0566,2.0566,2.0566,2.0566,2.0566,2.0342,2.0108,1.9863,1.9636,1.9478,1.9311,1.9311,1.9641,2.0053,2.0438,2.0209,1.9934,1.9934,1.9943,2.0072,2.0457,0.0,0.0,0.0,0.0,0.0,0.0,2.1475,2.141,2.0613,2.1264,0.0,0.0,0.0,0.0,0.0,0.0,0.0,2.2884,2.373,0.0,2.4152,2.4143,2.4143,2.4143,2.4143,2.4143,2.4143,2.4143,2.4143,2.4152,2.4152,2.4152,2.4152,2.4152,2.44,2.4776,2.4785,2.5262,2.5949,2.5958,2.6224,2.6582,2.8963,2.9541,2.9942,2.9578,2.9576,2.9235,2.7951,2.8194,2.7858,2.6106,2.6178,2.6129,2.5384,2.5312,2.5312,0.0,2.5312,2.5312,0.0,2.5312,2.5312,2.5312,2.5312,2.5552,2.6093,2.5925,2.5925,2.6093,0.0,0.0,0.0,2.8354,2.851,2.851,2.851,2.851,2.851,2.851,2.851,2.8431,2.7846,2.7255,2.6588,2.5411,2.4573,2.3973,2.3152,2.2939,2.2812,2.1963,2.168,2.1543,2.0801,2.0566,2.0566,2.042,2.042,2.0342,2.0098,1.9863,1.9715,1.9645,1.9469,1.9301,1.9301,1.9402,1.9613,2.0035,1.9787,1.9503,1.9503,1.9742,1.9971,2.0099,2.0677,0.0,0.0,0.0,0.0,0.0,2.1227,2.1209,0.0,2.1154,0.0,0.0,0.0,0.0,0.0,0.0,0.0,0.0,2.3602,0.0,2.4152,2.4152,2.4152,2.4152,2.4152,2.4152,2.4152,2.4152,2.4152,2.4152,2.4152,2.4317,2.4583,2.4583,2.4821,2.5216,2.5482,2.5738,2.5995,2.6289,2.6472,2.6591,2.8612,2.9252,2.9666,2.9239,2.9263,2.8911,2.757,2.7802,2.7553,2.6034,2.6105,2.6142,2.5661,2.5432,0.0,2.5312,2.5312,2.5312,2.5312,2.5312,2.5312,2.5312,2.5312,2.5468,2.5793,0.0,0.0,2.5793,2.6887,2.7801,2.851,2.851,2.851,2.851,2.851,2.851,2.851,2.851,2.851,2.8431,2.7926,2.751,2.7021,2.5579,2.4829,2.4413,2.3474,2.3135,2.3037,2.2353,2.2012,2.1787,2.124,2.083,2.0566,2.0411,2.0342,2.0264,1.9942,1.9715,1.9566,1.9478,1.939,1.9301,1.9301,1.9301,1.9375,1.9641,1.9485,1.9301,1.9301,1.9522,1.9742,1.9907,2.0466,2.0934,2.1089,0.0,0.0,0.0,0.0,0.0,0.0,2.1346,0.0,0.0,0.0,0.0,0.0,0.0,0.0,2.3547,2.3694,0.0,2.4152,2.4152,2.4152,2.4152,2.4152,2.4152,2.4152,2.4152,2.4152,2.4161,2.4317,2.4537,2.4794,2.4941,2.5234,2.5619,2.5867,2.605,2.6224,2.649,2.6591,2.6591,2.8109,2.9013,0.0,0.0,2.8512,0.0,2.6316,2.6382,2.6275,2.5444,2.5432,2.5636,2.6045,2.5697,2.542,2.542,0.0,0.0,0.0,2.5312,2.5312,2.5312,2.5312,2.5312,2.5312,2.5312,2.5324,2.536,2.6382,2.7416,2.845,2.845,2.8474,2.851,2.851,2.851,2.851,2.851,2.851,2.851,2.8431,2.7926,2.7092,2.608,2.5242,2.4413,2.3474,2.3135,2.3076,2.2656,2.2246,2.1924,2.1894,2.1318,2.0654,2.0615,2.044,2.0186,1.9942,1.9715,1.9557,1.9381,1.9301,1.9301,1.9301,1.9301,1.9301,1.9301,1.9301,1.9301,1.9301,1.9301,1.9439,1.9861,2.0264,2.0659,2.1053,0.0,0.0,0.0,0.0,0.0,0.0,2.1741,2.1759,0.0,0.0,0.0,0.0,0.0,2.396,2.3556,2.3941,2.4152,2.4152,2.4152,2.4152,2.4152,2.4189,2.4279,2.4152,2.4189,2.4198,2.4216,2.4611,2.4812,2.4895,2.5262,2.5647,2.6004,2.6004,2.6243,2.6591,2.6591,2.6591,2.6591,0.0,0.0,2.9704,2.944,2.9503,2.9162,2.7952,2.8133,2.7822,2.6154,2.6635,2.6887,2.6178,2.637,2.655,2.655,2.5793,2.5312,2.5312,2.5312,2.5312,2.5312,2.5312,2.5312,2.5312,2.5312,2.5504,2.5913,2.6166,2.6851,2.7909,2.7909,2.8126,2.851,2.851,2.851,2.851,2.851,2.851,2.8431,2.7765,2.7348,2.701,2.5421,2.4659,2.4413,2.3474,2.3135,2.3076,2.2656,2.2441,2.2305,2.1992,2.1738,2.1504,2.0992,2.0426,1.9942,1.9715,1.9548,1.9381,1.9301,1.9301,1.9301,1.9301,1.9301,1.9301,1.9301,1.9301,1.9301,1.9301,1.9301,1.9439,1.9861,2.0264,2.0659,2.1053,2.1475,0.0,0.0,2.1741,2.1741,2.1741,2.1741,2.1997,0.0,0.0,0.0,0.0,2.3996,2.396,2.3556,2.3941,2.4152,2.4152,2.4152,2.4152,2.4161,2.4482,2.4464,2.4161,2.4491,2.4638,2.4638,2.4739,2.5124,2.5683,2.5784,2.6068,2.6444,2.6444,2.6499,2.6591,2.6591,2.6591,2.6591,2.8436,2.9189,2.9704,2.9453,2.9249,2.8833,2.8049,2.8056,2.7694,2.6598,2.6995,2.7236,2.6875,2.6899,2.7031,2.7272,2.6538,2.6045,2.6045,2.6045,2.6045,2.6045,2.6045,2.6045,2.6045,2.6045,2.619,2.6478,2.6226,2.6526,2.7356,2.7356,2.7512,2.7789,2.7789,2.7921,2.815,2.815,2.8294,2.8431,2.751,2.7185,2.701,2.5168,2.4498,2.4413,2.3474,2.3135,2.3105,2.2881,2.2676,2.2471,2.2246,2.1904,2.1543,2.1128,2.0726,2.0267,1.9841,1.9557,1.939,1.9301,1.9301,1.9301,1.9301,1.9301,1.9301,1.9301,1.9301,1.9301,1.9301,1.9301,1.9439,1.9861,2.0264,2.0659,2.1053,2.1475,0.0,2.1979,2.2006,2.208,2.2181,2.2373,2.264,2.3093,0.0,0.0,2.4249,2.4347,2.4141,2.3831,2.4033,2.4152,2.4152,2.4152,2.4244,2.4445,2.4675,2.4757,2.4721,2.4941,2.5051,2.506,2.5243,2.5564,2.5977,2.6169,2.638,2.6591,2.6591,2.6591,2.6591,2.6591,2.6591,2.6591,2.8837,2.9402,2.9641,2.9063,2.8672,2.8282,2.7753,2.7391,2.714,2.7067,2.7128,2.7308,2.7681,2.7392,2.7356,2.7801,2.7428,2.7103,2.6947,2.6935,2.6935,2.6935,2.6935,2.6935,2.6935,2.6935,2.6899,2.6803,2.6334,2.6334,2.6803,2.6803,2.6851,2.6935,2.7019,2.7308,2.7729,2.7813,2.8102,2.8431,2.751,2.7092,2.6846,2.5168,2.4413,2.4155,2.3396,2.3135,2.3135,2.3135,2.29,2.2598,2.2539,2.2012,2.1406,2.1279,2.106,2.0793,2.0055,1.9715,1.9478,1.9301,1.9301,1.9301,1.9301,1.9301,1.9301,1.9301,1.9301,1.932,1.9384,1.9393,1.9577,2.0118,2.0429,2.0769,2.1227,0.0,2.1951,2.2282,2.2373,2.2557,2.2914,2.3214,2.3317,2.3476,2.4022,2.4354,0.0,2.445,2.444,2.4251,2.4251,2.4152,2.4152,2.4152,2.4363,2.4785,2.484,2.5041,2.5372,2.5436,2.5463,2.5482,2.5812,2.5995,2.6078,2.6444,2.6591,2.6591,2.6591,2.6591,2.6591,2.6591,2.6591,2.6591,2.8913,2.9402,2.9677,2.9397,2.9294,2.9114,2.8638,2.8548,2.8312,2.7657,2.7993,2.8126,2.7765,2.8041,2.8294,2.8378,2.8318,2.7885,2.6995,2.6935,2.6935,2.6935,2.6935,2.6935,2.6935,2.6935,2.6695,2.6226,2.6142,2.6142,2.6226,2.6226,2.6478,2.6947,2.7404,2.7645,2.7753,2.8198,2.8426,2.8431,2.751,2.6753,2.5913,2.4914,2.3993,2.3309,2.3135,2.3135,2.3135,2.3135,2.3096,2.2978,2.2627,2.2422,2.2168,2.1445,2.115,2.0973,2.0134,1.9627,1.9301,1.9301,1.9301,1.9301,1.9301,1.9301,1.9301,1.9301,1.9301,1.9412,1.9769,1.9833,2.0191,2.1282,2.1209,2.1273,2.2025,0.0,2.2436,2.2318,2.2806,2.3131,2.3196,2.3299,2.3542,2.4098,2.4288,2.4477,2.4827,2.4599,2.4538,2.443,2.4251,2.4152,2.4152,2.4152,2.4363,2.4785,2.5115,2.5307,2.5381,2.572,2.5867,2.5876,2.5931,2.616,2.649,2.6564,2.6591,2.6591,2.6591,2.6591,2.6591,2.6591,2.6591,2.6591,2.9149,2.9424,2.9521,2.9275,2.9118,2.9028,2.8803,2.8724,2.8493,2.8186,2.8366,2.8522,2.857,2.8534,2.8631,2.8919,2.8679,2.8426,2.8222,2.7945,2.7789,2.7789,2.7789,2.7789,2.7789,2.75,2.7236,2.6971,2.6683,2.6394,2.6093,2.6093,2.6238,2.649,2.6743,2.7176,2.7741,2.7981,2.8246,2.8339,2.6999,2.6163,2.5652,2.4231,2.3484,2.3105,2.2881,2.2803,2.2764,2.2539,2.2461,2.2393,2.1963,2.1826,2.1699,2.1064,2.0721,2.0435,1.9998,1.9627,1.9301,1.9301,1.9301,1.9301,1.9301,1.9301,1.9301,1.9301,1.9476,1.9696,1.9897,2.0273,2.0824,2.1612,2.175,0.0,0.0,2.2843,2.3028,2.2852,2.3392,2.3833,2.3833,2.4126,2.4535,2.4841,2.4957,2.514,2.5323,2.4932,2.4735,2.4735,2.4341,2.4262,2.4491,2.4271,2.4574,2.5417,2.539,2.5601,2.6032,2.6215,2.6298,2.6298,2.6298,2.6408,2.6591,2.6591,2.6591,2.6591,2.6591,2.6591,2.6591,2.6591,2.6591,2.6591,2.9266,2.9341,2.9341,2.9052,2.8882,2.8803,2.8724,2.8578,2.8558,2.8679,2.8691,2.8895,2.9424,2.9124,2.9039,2.9448,2.9112,2.9051,2.946,2.91,2.8823,2.8703,2.857,2.857,2.8691,2.8174,2.7849,2.7717,2.732,2.6827,2.6298,2.6298,2.6298,2.6298,2.6418,2.6935,2.7729,2.7849,2.8138,2.8339,2.6753,2.5931,2.5511,2.4029,2.325,2.2959,2.2744,2.2656,2.2598,2.2168,2.21,2.208,2.1553,2.1455,2.1426,2.0879,2.0487,2.0065,1.9891,1.9627,1.9381,1.9301,1.9301,1.9329,1.943,1.9448,1.9476,1.9567,1.9916,2.02,2.02,2.0851,2.153,2.1951,0.0,0.0,0.0,2.3448,2.3636,2.357,2.4117,2.4564,2.4564,2.4956,2.5342,2.544,2.5538,2.5742,2.5742,2.5235,2.4932,2.4833,2.4449,2.4354,2.4776,2.4464,2.4858,2.5958,2.5656,2.5885,2.6591,2.6591,2.6591,2.6591,2.6591,2.6591,2.6591,2.6591,2.6591,2.6591,2.6591,2.6591,2.6591,2.6591,2.6591,2.6591,2.9209,2.9275,2.9263,2.8882,2.8791,2.8724,2.859,2.851,2.8691,2.9172,2.9244,2.9448,2.9965,2.9989,2.9989,3.0025,2.9989,2.9989,3.0025,2.9989,2.9749,2.9256,2.8775,2.8739,2.9232,2.8727,2.821,2.7717,2.7681,2.7392,2.6875,2.6875,2.6875,2.6899,2.738,2.7645,2.7753,2.8246,2.8474,2.8431,2.751,2.6318,2.5147,2.4587,2.3654,2.2607,2.2959,2.3096,2.3027,2.2607,2.2725,2.291,2.209,2.2109,2.2256,2.1426,2.1012,2.0675,1.9818,1.9566,1.9557,1.9381,1.9301,1.9402,1.9797,1.9888,1.9989,2.0356,2.0741,2.1016,2.1016,2.1686,2.2373,2.2701,0.0,0.0,2.3734,2.4259,2.4545,2.4278,2.4841,2.5187,2.5187,2.5314,2.544,2.5635,2.5645,2.5742,2.5742,2.544,2.5039,2.4538,2.4341,2.4354,2.4776,2.4748,2.5142,2.5958,2.5931,2.6151,2.6591,2.6591,2.6591,2.6591,2.6591,2.6591,2.6591,2.6591,2.6591,2.6591,2.6591,2.6591,2.6591,2.6591,2.6591,2.6591,2.9462,2.9181,2.9169,2.9528,2.9371,2.9181,2.9436,2.9208,2.9076,2.9268,2.9304,2.9496,3.0025,3.0086,3.0218,3.0543,3.0278,3.023,3.0555,3.0266,2.9845,2.9316,2.9112,2.8943,2.8811,2.8607,2.8414,2.821,2.821,2.7945,2.7428,2.7428,2.7428,2.7428,2.7633,2.7897,2.8222,2.8426,2.851,2.8431,2.751,2.6558,2.5496,2.4756,2.3796,2.2891,2.2783,2.2754,2.2685,2.2266,2.2227,2.2305,2.1992,2.1992,2.206,2.1738,2.1549,2.1347,2.0756,2.0473,2.04,2.0309,2.0136,2.0099,2.0255,2.0292,2.0338,2.0484,2.1044,2.1493,2.1493,2.2364,2.3134,2.329,0.0,2.4119,2.4287,2.4695,2.489,2.4555,2.5179,2.5431,2.515,2.5373,2.5635,2.5732,2.5742,2.5742,2.5742,2.5691,2.5429,2.4902,2.5071,2.5191,2.5142,2.5142,2.5555,2.6344,2.6087,2.6178,2.6591,2.6591,2.6591,2.6591,2.6591,2.6591,2.6591,2.6591,2.6591,2.6591,2.6591,2.6591,2.6591,2.6591,2.6591,2.6591,2.9606,2.9367,2.9464,3.0049,2.9785,2.9677,3.0025,2.9785,2.9605,2.9773,2.9797,2.9989,3.0518,3.0579,3.0723,3.1096,3.0783,3.0735,3.1096,3.0783,3.035,2.9821,2.9641,2.946,2.9256,2.8931,2.8751,2.8751,2.8595,2.8318,2.7969,2.7969,2.7969,2.7969,2.7969,2.8174,2.851,2.851,2.851,2.8431,2.751,2.658,2.5539,2.4777,2.3816,2.292,2.2764,2.2715,2.2646,2.2217,2.2168,2.2256,2.2129,2.209,2.2109,2.2236,2.2187,2.2026,2.1805,2.1495,2.1268,2.0838,2.0605,2.0549,2.0677,2.0704,2.0741,2.0869,2.1548,2.208,2.1942,2.2914,2.3694,2.3662,2.417,2.4637,2.4735,2.5137,2.5334,2.5044,2.546,2.5615,2.5312,2.5684,2.5889,2.5752,2.5986,2.6143,2.6143,2.6216,2.6059,2.5423,2.5853,2.5983,2.5555,2.5555,2.5903,2.6582,2.6298,2.6371,2.6774,2.6774,2.6774,2.6774,2.6774,2.6701,2.6591,2.6591,2.6591,2.6591,2.6591,2.6719,2.6737,2.6737,2.6737,2.6737,2.9386,2.9903,3.0361,3.0182,3.0098,3.0098,3.0098,3.0098,3.029,3.0807,3.0879,3.1072,3.1601,3.1661,3.1661,3.1661,3.1661,3.1661,3.1661,3.1661,3.1432,3.0903,3.0374,3.0338,3.0855,2.9845,2.9304,2.9304,2.8775,2.8522,2.8522,2.8522,2.851,2.851,2.851,2.851,2.851,2.851,2.851,2.8431,2.7592,2.6389,2.5185,2.4661,2.372,2.2568,2.2988,2.3135,2.3076,2.2656,2.2793,2.3066,2.2646,2.2519,2.2598,2.3018,2.2852,2.2532,2.2775,2.2627,2.2067,2.0817,2.053,2.0631,2.1034,2.1117,2.1236,2.1658,2.2392,2.2738,2.241,2.3327,2.4122,2.391,2.4472,2.503,2.5235,2.5538,2.5742,2.5742,2.5742,2.5742,2.5742,2.6133,2.6201,2.5771,2.6533,2.7012,2.7012,2.7021,2.6807,2.6172,2.6598,2.6508,2.5968,2.5968,2.6178,2.6591,2.6591,2.6793,2.7178,2.7178,2.7178,2.7178,2.7178,2.6949,2.6591,2.6591,2.6591,2.6591,2.6591,2.6865,2.7157,2.7176,2.7176,2.7176,3.0411,3.0314,3.0411,3.106,3.0879,3.0771,3.1144,3.0879,3.0699,3.0855,3.0879,3.0939,3.1096,3.1444,3.1661,3.1661,3.1661,3.1661,3.1661,3.1661,3.1589,3.1432,3.0927,3.0543,3.0326,3.0013,2.9845,2.9845,2.9689,2.9424,2.9063,2.9063,2.8871,2.851,2.851,2.851,2.851,2.851,2.851,2.851,2.8179,2.751,2.656,2.6449,2.5753,2.4714,2.4276,2.4069,2.3963,2.3162,2.3037,2.3115,2.2988,2.2949,2.2978,2.3105,2.3271,2.3349,2.3297,2.3137,2.29,2.2208,2.1673,2.1548,2.2245,2.2171,2.208,2.2502,2.3006,2.3231,2.3198,2.3712,2.4205,2.4282,2.4651,2.503,2.5235,2.5538,2.5742,2.5742,2.5742,2.5742,2.5742,2.5859,2.6006,2.6182,2.6699,2.7012,2.7012,2.7305,2.7263,2.6627,2.7034,2.6929,2.6399,2.6399,2.6463,2.6591,2.6591,2.6793,2.7178,2.7178,2.7178,2.7178,2.7178,2.6949,2.6591,2.6591,2.6591,2.6591,2.6591,2.6709,2.6857,2.7122,2.7071,2.6911,3.0893,3.0783,3.0915,3.1553,3.1396,3.13,3.1613,3.1396,3.1192,3.1192,3.1192,3.1192,3.1192,3.148,3.1661,3.1661,3.1661,3.1661,3.1661,3.1661,3.1661,3.1661,3.136,3.1036,3.0723,3.0506,3.0398,3.0398,3.0194,2.9917,2.9617,2.9617,2.9436,2.9136,2.9136,2.9136,2.9136,2.9136,2.9136,2.9112,2.8907,2.8314,2.7461,2.7254,2.6712,2.5997,2.4892,2.4612,2.465,2.3456,2.3252,2.3428,2.3594,2.3643,2.3643,2.3643,2.3838,2.3942,2.376,2.3679,2.3616,2.3428,2.2667,2.2235,2.2804,2.2758,2.2648,2.299,2.3358,2.374,2.3836,2.417,2.4548,2.4735,2.4932,2.5137,2.544,2.5635,2.5801,2.5977,2.5996,2.6064,2.623,2.6396,2.668,2.7109,2.7226,2.7344,2.751,2.7773,2.7699,2.7062,2.7299,2.7116,2.6591,2.6591,2.6591,2.6591,2.6747,2.7031,2.7416,2.7386,2.7499,2.7416,2.7416,2.7225,2.6865,2.6865,2.6865,2.6855,2.6709,2.6719,2.6857,2.725,2.7257,2.7116,3.0939,3.1336,3.1661,3.1661,3.1661,3.1685,3.1733,3.1697,3.1685,3.1733,3.1697,3.1661,3.1661,3.1661,3.1661,3.1661,3.1661,3.1661,3.1661,3.1661,3.1661,3.1661,3.1661,3.1661,3.1661,3.1192,3.0951,3.0951,3.0458,3.0206,3.0158,3.0158,3.0134,3.0086,3.0086,3.0086,3.0086,3.0086,3.0086,3.005,2.9569,2.8858,2.8122,2.766,2.7254,2.6711,2.5306,2.51,2.5259,2.3731,2.3516,2.3916,2.4297,2.4414,2.4414,2.4414,2.4443,2.438,2.4204,2.4204,2.4217,2.4374,2.3589,2.2917,2.3063,2.3033,2.3109,2.3401,2.3718,2.4085,2.4286,2.4685,2.5039,2.5235,2.5333,2.545,2.5693,2.5762,2.5918,2.6387,2.6406,2.6553,2.6973,2.7412,2.7822,2.8203,2.792,2.7891,2.8271,2.8291,2.797,2.7431,2.7361,2.7172,2.6646,2.6655,2.6646,2.6609,2.7078,2.7352,2.7774,2.7746,2.7843,2.7765,2.7756,2.7586,2.7157,2.7148,2.7148,2.7138,2.6737,2.6865,2.7285,2.7706,2.7881,2.7866,3.1408,3.1589,3.1661,3.1661,3.1661,3.1805,3.225,3.1949,3.1817,3.2262,3.1937,3.1661,3.1661,3.1661,3.1661,3.1661,3.1661,3.1661,3.1661,3.1661,3.1661,3.1661,3.1661,3.1661,3.1661,3.1553,3.1492,3.1492,3.1384,3.1108,3.0699,3.0699,3.0482,3.0086,3.0086,3.0086,3.0086,3.0086,3.0086,3.0074,2.9965,2.9822,2.9642,2.9535,2.9379,2.9139,2.7775,2.7048,2.6569,2.4696,2.4199,2.4297,2.4385,2.4414,2.4414,2.4414,2.4658,2.4932,2.4932,2.4922,2.4944,2.5092,2.4622,2.426,2.4475,2.4026,2.3895,2.4397,2.4635,2.4701,2.4799,2.4875,2.5039,2.5235,2.5333,2.5546,2.6201,2.5947,2.6025,2.6787,2.6592,2.6553,2.6973,2.7412,2.7705,2.7793,2.8027,2.8193,2.8291,2.8067,2.7853,2.7431,2.7535,2.7382,2.705,2.7428,2.7419,2.702,2.7113,2.7373,2.7765,2.7811,2.7811,2.7765,2.7464,2.7306,2.7157,2.6865,2.6728,2.6728,2.7001,2.7138,2.7285,2.8,2.8041,2.7872,3.1613,3.1661,3.1661,3.1661,3.1889,3.2166,3.2454,3.225,3.2166,3.2466,3.201,3.1661,3.1661,3.1661,3.1661,3.1661,3.1661,3.1661,3.1661,3.1661,3.1661,3.1661,3.1661,3.1661,3.1661,3.1661,3.1661,3.1661,3.1661,3.1529,3.1252,3.1252,3.1108,3.0831,3.0831,3.0831,3.0831,3.0831,3.0831,3.0819,3.0567,3.0458,3.0434,3.0182,3.0242,3.0301,2.8812,2.7565,2.6404,2.5195,2.4727,2.4766,2.498,2.5049,2.5049,2.5049,2.5205,2.5391,2.5391,2.5391,2.5439,2.5479,2.5276,2.4967,2.4884,2.4673,2.4482,2.4992,2.5128,2.5137,2.5235,2.5506,2.5641,2.5838,2.6013,2.6216,2.665,2.6484,2.6592,2.7246,2.7129,2.7168,2.7588,2.7832,2.7969,2.7969,2.8164,2.8379,2.8584,2.8377,2.8148,2.8009,2.7912,2.7753,2.7539,2.7743,2.7809,2.7734,2.7807,2.7921,2.8066,2.8141,2.8122,2.8066,2.7873,2.7805,2.7725,2.7303,2.7157,2.7157,2.7157,2.7197,2.7296,2.8152,2.8403,2.8381,3.1661,3.1661,3.1697,3.1793,3.219,3.2563,3.2743,3.2611,3.2527,3.2623,3.207,3.1661,3.1661,3.1661,3.1661,3.1661,3.1661,3.1709,3.1805,3.1721,3.1745,3.1937,3.1853,3.1805,3.1805,3.1805,3.1757,3.1661,3.1661,3.1661,3.1661,3.1661,3.1661,3.1661,3.1661,3.1661,3.1661,3.1661,3.1661,3.1625,3.1192,3.1011,3.0963,3.0518,3.0627,3.0841,2.9593,2.7811,2.6111,2.5397,2.5185,2.5244,2.5615,2.5742,2.5742,2.5742,2.5742,2.5742,2.5742,2.5742,2.5742,2.5742,2.5538,2.5333,2.5137,2.503,2.5039,2.5333,2.5342,2.5459,2.5732,2.6143,2.6406,2.6484,2.6787,2.7041,2.7119,2.706,2.7207,2.7715,2.7773,2.7939,2.8359,2.833,2.835,2.8506,2.8447,2.8584,2.9014,2.8713,2.8544,2.8662,2.8389,2.8115,2.7948,2.7961,2.821,2.8449,2.853,2.8422,2.8422,2.8373,2.8445,2.8431,2.8364,2.8367,2.842,2.7993,2.7823,2.7725,2.7559,2.7404,2.7335,2.808,2.8664,2.8984,3.1661,3.1661,3.1817,3.2298,3.2442,3.2803,3.3693,3.308,3.2671,3.3128,3.2298,3.1661,3.1661,3.1661,3.1661,3.1661,3.1661,3.1865,3.2358,3.1937,3.2082,3.3032,3.2635,3.2382,3.2382,3.2382,3.2154,3.1661,3.1661,3.1661,3.1661,3.1661,3.1661,3.1661,3.1661,3.1661,3.1661,3.1661,3.1661,3.1661,3.1589,3.1553,3.1541,3.148,3.1492,3.148,3.0865,2.9309,2.7404,2.6044,2.5644,2.5664,2.5723,2.5742,2.5742,2.5742,2.5742,2.5742,2.5742,2.5742,2.5742,2.5742,2.5635,2.5635,2.5635,2.543,2.5333,2.5635,2.5645,2.5752,2.623,2.6348,2.6504,2.6875,2.6973,2.7148,2.7529,2.7256,2.7314,2.8115,2.8203,2.8369,2.8789,2.8506,2.8603,2.9346,2.9043,2.9023,2.9453,2.9036,2.8728,2.8672,2.848,2.8381,2.8362,2.8698,2.8901,2.8945,2.891,2.8801,2.8373,2.8455,2.8455,2.8364,2.8027,2.8101,2.8355,2.7921,2.7829,2.7853,2.8138,2.8004,2.7771,2.8226,2.8664,2.8984,3.207,3.213,3.231,3.2851,3.2947,3.3092,3.3549,3.2984,3.2587,3.2815,3.2154,3.1661,3.1661,3.1661,3.1661,3.1661,3.1949,3.2238,3.2478,3.2551,3.2791,3.3272,3.3068,3.2947,3.2947,3.2647,3.2382,3.213,3.1817,3.1661,3.1661,3.1661,3.1661,3.1661,3.1661,3.1661,3.1661,3.1661,3.1661,3.1661,3.1661,3.1661,3.1661,3.1661,3.1661,3.1536,3.0186,2.873,2.7295,2.6127,2.5742,2.5742,2.5742,2.5742,2.5742,2.5742,2.5908,2.6103,2.6103,2.6279,2.6455,2.6455,2.6455,2.6455,2.6455,2.6345,2.6177,2.6143,2.6289,2.6514,2.6699,2.6934,2.7168,2.7344,2.7578,2.7793,2.7988,2.7851,2.7871,2.8242,2.8291,2.8369,2.8555,2.8613,2.8799,2.918,2.9258,2.9473,2.9902,2.9592,2.9346,2.9316,2.9137,2.888,2.8772,2.8874,2.8984,2.8984,2.8984,2.8966,2.8692,2.8692,2.8692,2.8683,2.8527,2.8536,2.8683,2.8354,2.812,2.8196,2.8357,2.837,2.8518,2.8673,2.8829,2.8984]}]]